GFSSGP_250_spd_000.txt.gz
Wind_Speed
112 112 115 117 113 121 120 120 121 123 122 126 125 123 124 127 126 130 128 126 121 119 117 117 102 89 82 75 66 60 57 50 50 48 57 56 41 18 30 41 45 51 51 65 70 68 69 73 74
111 116 115 114 118 121 122 123 123 123 129 125 129 135 131 131 135 127 122 121 112 106 93 81 79 71 66 62 59 53 54 47 55 51 41 39 36 22 22 37 50 44 41 44 58 61 61 71 70
113 112 117 119 119 121 125 131 132 124 126 125 129 125 129 133 123 110 111 104 96 83 81 73 66 58 59 55 56 56 57 51 55 64 56 43 42 40 35 41 48 51 46 49 55 59 60 58 59
119 122 124 124 128 127 126 119 131 131 127 121 129 120 124 116 106 93 91 88 81 75 69 60 59 57 55 56 60 56 56 58 56 59 58 45 51 60 55 57 48 47 52 53 55 48 50 55 58
123 126 125 123 119 122 131 131 123 129 128 115 114 105 97 90 88 83 79 76 71 67 66 61 58 49 50 55 57 56 56 53 50 48 47 45 59 72 66 71 66 65 61 63 63 63 55 53 59
124 120 122 121 125 120 121 119 105 103 95 90 84 83 80 80 79 76 76 72 73 66 63 55 49 44 50 55 56 54 51 43 42 42 41 45 53 65 76 83 80 73 71 59 53 51 45 45 46
112 111 111 114 109 91 86 82 77 75 71 69 69 70 71 72 74 73 73 71 66 59 48 46 44 49 53 54 54 50 43 40 42 40 40 41 45 54 63 69 76 75 66 50 35 33 34 34 38
97 93 85 73 65 65 66 62 60 59 60 63 64 63 64 67 67 67 67 59 55 50 45 45 48 48 49 50 48 45 41 39 41 39 39 41 44 47 48 48 49 49 44 39 35 33 30 28 33
68 62 56 54 54 54 54 55 54 56 58 59 56 54 55 56 56 57 55 50 46 45 44 42 46 45 48 47 44 42 39 38 37 36 37 41 41 43 44 37 40 40 34 34 31 29 30 33 32
56 53 50 50 49 48 48 49 49 49 48 45 43 44 45 45 47 48 44 41 42 45 44 43 44 45 44 44 42 39 38 37 36 37 38 45 44 48 46 42 39 39 33 31 29 35 38 38 38
41 40 38 38 37 37 37 38 40 39 37 35 35 37 40 41 43 41 39 40 41 44 46 47 48 47 46 45 42 39 36 35 38 40 40 46 52 52 52 47 38 36 31 37 41 47 44 42 46
28 28 26 24 24 23 22 25 25 26 27 27 28 30 32 35 37 38 39 41 43 45 46 47 48 48 46 46 45 42 40 38 39 42 43 46 54 56 57 52 49 56 46 46 25 51 47 47 51
16 17 18 18 18 17 17 19 19 20 20 21 23 25 27 28 31 36 39 41 44 46 48 50 52 51 50 49 49 47 46 44 41 44 47 49 52 59 59 59 52 54 59 67 59 64 56 52 61
13 10 13 14 12 14 14 13 11 9 12 10 12 18 21 23 27 31 34 37 41 43 46 48 50 51 52 52 53 54 52 51 47 47 52 54 56 62 63 61 56 49 68 71 65 64 62 68 65
13 3 11 23 11 4 10 24 9 5 5 17 12 18 17 21 13 22 29 27 30 36 39 42 46 47 49 50 53 55 57 56 54 52 56 59 62 63 68 67 65 62 68 73 71 66 65 67 74
33 34 36 32 40 36 29 46 20 33 40 39 31 24 25 14 17 15 15 18 21 17 23 35 45 47 46 51 55 54 56 61 62 60 60 63 67 68 71 72 72 67 74 79 80 75 73 77 80
37 37 38 39 41 39 39 43 39 39 44 39 33 28 31 30 30 32 24 35 33 28 37 36 28 37 45 34 49 57 56 57 60 66 68 68 72 74 75 78 82 71 81 83 85 81 81 74 74
31 30 33 37 38 37 37 39 38 38 43 39 38 35 36 32 29 32 34 32 32 38 41 41 41 45 46 48 50 42 55 54 58 61 68 74 76 81 81 82 89 83 82 89 90 96 94 86 89
31 31 34 37 35 34 34 37 36 42 44 45 45 42 40 42 39 40 35 35 40 37 41 44 51 55 49 52 54 58 55 46 47 57 63 71 82 88 89 89 93 98 93 91 99 98 99 98 96
35 31 33 36 39 35 30 35 36 41 43 43 46 46 46 48 49 50 40 45 49 55 55 56 57 52 50 57 55 60 53 56 57 53 55 53 78 90 96 100 97 99 107 103 101 109 108 108 110
30 28 29 32 36 39 37 36 38 41 43 43 44 47 49 51 52 54 52 55 57 58 57 60 58 67 65 63 69 59 57 54 57 58 63 60 57 80 93 104 106 107 107 114 115 112 113 117 116
25 28 30 31 33 37 37 37 39 39 40 44 47 50 51 51 52 55 57 56 58 59 61 63 64 66 67 77 77 83 74 61 55 59 65 68 65 67 61 98 104 117 119 119 121 123 123 122 123
22 27 29 30 29 32 32 32 34 39 42 45 48 48 51 57 57 56 58 57 58 61 64 66 70 72 70 76 85 84 84 71 64 57 60 62 69 72 71 68 82 107 114 128 131 130 131 134 133
20 24 29 34 33 34 32 32 37 37 42 45 49 53 53 54 53 55 56 56 61 65 66 67 70 73 77 85 83 88 88 79 74 69 64 63 66 69 73 72 74 79 91 109 126 138 141 141 141
17 21 23 26 32 30 31 29 32 35 41 45 48 50 51 50 53 53 51 57 60 64 67 69 72 76 83 87 92 90 89 89 77 73 65 65 66 71 71 73 75 76 77 86 92 113 129 145 151
19 23 18 18 24 33 33 36 29 40 42 44 43 49 53 54 58 61 62 62 66 70 68 70 73 81 85 96 97 95 92 93 79 74 68 68 71 71 71 72 76 75 76 80 85 90 102 120 120
20 23 28 28 30 30 37 41 38 41 43 46 49 57 61 64 65 67 70 72 78 80 79 78 81 87 92 101 101 102 97 92 80 73 68 68 68 70 70 69 73 77 78 78 79 82 88 96 106
22 25 28 31 34 32 28 40 50 48 50 54 59 62 68 71 73 74 79 79 83 86 89 87 86 91 97 108 107 111 100 97 82 74 69 67 67 69 69 68 69 72 76 80 83 85 87 89 93
28 29 32 32 38 38 36 40 51 52 57 60 64 67 69 71 76 83 85 86 89 94 95 95 95 94 102 111 116 114 107 97 85 76 71 68 67 68 68 69 70 73 76 80 82 84 86 87 89
36 36 41 41 39 42 43 40 52 58 60 63 66 67 69 72 77 79 84 90 93 99 100 102 102 102 107 113 118 122 104 93 83 76 72 69 67 67 67 68 70 73 75 78 80 83 86 88 89

GFSSGP_250_spd_003.txt.gz
Wind_Speed
105 108 111 113 117 117 120 122 121 121 126 123 119 117 123 126 124 125 124 129 125 129 133 129 123 119 103 95 87 86 80 76 72 73 59 50 34 31 32 36 41 25 42 39 50 49 55 55 55
104 108 109 114 116 117 123 125 121 117 120 121 127 127 124 126 127 128 127 131 134 133 125 115 99 95 89 80 76 74 70 69 66 57 53 40 36 35 37 38 38 29 46 36 47 45 44 48 51
106 108 113 115 116 121 128 125 123 126 126 125 127 131 126 123 124 125 120 120 114 113 102 92 91 78 74 74 70 65 65 64 60 50 53 40 35 40 47 42 44 37 29 35 46 53 51 53 50
114 118 121 125 126 127 132 132 135 131 130 132 130 128 120 119 119 109 109 100 94 92 84 81 77 78 72 68 64 61 59 60 57 52 51 47 42 46 46 41 41 36 18 32 48 59 60 61 58
121 125 127 130 130 128 132 132 131 129 130 128 117 107 104 99 99 93 94 87 87 81 77 74 73 72 69 65 60 58 58 57 55 52 50 52 47 51 59 48 46 39 37 25 56 63 67 56 57
129 130 134 132 130 133 131 125 128 115 117 109 103 98 90 90 87 85 79 77 76 74 72 70 71 66 63 60 54 52 52 50 52 50 46 48 51 52 66 59 54 59 55 56 59 66 67 73 69
124 125 129 130 125 119 112 105 101 98 95 88 82 81 77 76 73 72 70 70 70 67 64 63 63 62 58 55 49 48 50 53 49 48 48 45 48 53 59 73 77 75 77 63 62 53 68 64 62
123 122 114 99 91 91 87 88 85 79 73 67 66 66 64 65 64 64 64 62 61 58 55 56 54 52 50 45 44 48 52 46 45 48 48 52 54 53 61 71 94 87 83 71 70 60 68 67 60
87 87 74 76 66 65 63 63 63 61 59 59 59 59 59 58 55 52 51 49 48 48 46 45 43 42 41 43 46 46 43 44 47 50 49 49 51 53 56 69 87 103 96 89 85 78 63 62 56
56 50 50 50 51 51 50 50 49 46 44 45 46 47 47 44 44 44 43 43 43 42 42 40 39 39 39 40 43 43 45 45 46 46 46 48 49 48 53 62 81 96 112 110 101 96 80 66 57
31 33 32 31 31 31 31 33 35 34 33 32 33 35 37 38 37 37 37 39 40 41 40 40 39 40 41 42 45 46 48 48 48 48 47 45 46 48 51 59 69 82 92 99 102 94 86 68 56
15 15 17 17 17 18 18 18 20 21 21 23 26 27 28 28 28 29 31 32 33 36 38 40 43 44 45 47 48 49 48 48 49 49 49 47 46 50 52 60 64 69 74 78 73 70 67 63 52
13 15 15 14 14 16 17 18 19 17 17 20 20 23 23 20 24 26 28 29 31 34 36 39 41 43 45 47 48 50 51 51 52 52 53 51 49 51 56 60 64 64 67 69 68 68 69 60 59
17 20 20 16 14 16 19 18 17 14 14 18 19 18 14 23 22 25 25 24 25 28 31 36 35 37 41 45 47 49 51 54 55 57 58 58 55 53 58 61 67 67 70 73 72 71 68 65 66
22 13 31 32 29 30 31 28 30 27 18 30 27 36 34 33 28 27 20 14 24 21 26 19 20 24 32 36 38 43 46 47 51 56 60 63 62 58 60 66 71 72 75 75 76 75 75 76 70
29 26 28 27 34 32 37 42 41 40 33 31 32 40 38 37 37 37 37 36 25 31 33 31 26 35 30 23 25 31 36 32 40 51 54 60 67 66 64 69 72 79 78 83 82 79 81 83 84
28 23 27 27 31 30 36 37 36 36 40 40 40 41 46 46 40 38 38 36 35 39 40 40 42 40 41 38 39 36 29 39 41 38 43 57 63 70 73 72 75 81 86 87 87 89 83 86 87
26 30 28 27 32 30 31 32 35 36 37 40 42 42 43 44 43 43 40 38 39 38 37 38 40 42 43 43 48 47 45 39 40 42 50 52 60 70 75 81 82 83 88 91 93 90 87 87 88
22 22 26 24 25 24 26 28 30 32 34 35 37 41 42 41 35 38 40 40 38 36 37 38 38 40 39 40 43 48 52 56 56 52 53 51 48 55 61 77 90 90 92 97 97 99 97 93 91
23 21 24 23 23 21 23 24 27 29 33 35 35 37 38 38 38 37 37 42 45 41 42 43 41 42 43 43 44 51 55 58 62 64 62 60 51 58 72 72 84 96 99 101 102 106 105 98 96
20 20 20 19 20 20 21 22 23 27 31 33 38 40 40 38 43 46 43 43 48 48 53 57 54 55 56 60 59 56 61 64 66 73 73 72 65 59 63 59 67 85 98 105 111 111 115 112 106
15 20 22 20 21 19 19 24 26 28 32 36 36 36 44 48 51 52 55 57 60 59 59 61 64 65 65 66 70 72 67 68 71 77 81 87 77 62 61 64 67 69 85 99 115 119 121 122 121
16 20 21 21 22 22 22 20 23 29 29 32 36 42 48 52 57 59 60 62 64 65 67 67 70 73 76 74 77 78 78 78 80 82 90 92 86 70 62 65 66 73 74 82 98 123 125 130 130
16 19 20 20 18 22 22 20 18 27 32 33 39 45 49 54 59 62 60 59 63 65 71 73 75 82 82 84 84 82 84 83 84 87 91 93 93 77 68 64 67 69 75 80 83 101 115 135 136
11 14 17 21 24 26 31 31 25 20 31 41 43 48 53 56 59 58 57 60 62 67 71 73 75 80 83 83 85 84 87 87 88 91 94 94 90 79 72 65 66 69 71 76 77 83 95 110 125
14 16 16 20 25 27 30 29 32 27 34 38 42 47 50 53 55 58 61 65 69 73 75 76 77 77 84 87 88 89 91 92 93 95 95 96 92 80 73 69 66 67 68 72 76 79 84 88 106
19 21 19 21 23 24 31 33 36 45 45 46 50 54 57 60 64 64 65 67 70 74 78 83 84 87 87 90 95 95 96 98 99 98 96 101 89 78 72 69 68 68 69 71 73 76 80 84 90
20 20 24 25 27 23 27 31 43 52 54 56 58 59 62 66 68 68 70 71 74 80 80 82 85 91 92 94 99 101 104 108 104 102 98 100 85 78 72 67 67 68 70 72 74 76 79 82 87
28 33 35 32 33 32 27 33 51 53 57 61 64 65 69 69 71 69 71 76 76 78 82 88 92 97 98 100 103 106 111 114 111 105 101 93 82 76 71 67 67 68 70 73 76 77 79 80 82
37 41 40 39 33 41 32 40 51 53 58 63 67 68 72 71 74 73 77 80 84 83 88 94 98 103 105 108 110 113 116 119 113 108 98 87 80 73 69 67 67 68 70 71 74 77 79 80 81

GFSSGP_250_spd_006.txt.gz
Wind_Speed
96 99 105 106 109 112 118 118 115 111 107 111 113 117 116 120 119 124 122 122 118 120 120 119 117 116 112 109 107 106 104 101 92 85 84 76 73 67 57 49 48 38 31 32 24 22 30 41 43
100 107 110 110 116 114 115 115 116 117 120 120 125 128 127 129 129 128 123 121 118 119 115 110 108 105 110 107 99 99 99 94 88 84 79 68 66 60 51 52 40 40 41 31 20 3 34 50 52
107 112 109 111 117 116 115 120 122 124 121 124 126 130 133 134 134 135 127 114 109 107 106 101 99 101 102 98 96 94 89 86 78 75 74 64 56 47 46 53 48 36 38 35 17 17 34 40 48
114 109 112 112 116 118 121 122 128 130 129 134 134 131 132 131 123 115 108 103 101 102 102 96 99 96 94 93 87 84 80 75 72 69 65 57 53 47 45 55 49 54 48 37 31 34 37 35 45
113 119 117 124 127 133 129 131 136 137 136 131 133 123 106 108 110 103 99 98 98 100 98 94 94 88 85 80 80 77 72 70 66 61 60 59 51 48 51 56 54 51 60 47 42 39 37 17 40
123 124 130 134 132 132 133 131 138 134 128 124 114 102 91 90 91 91 89 85 79 78 78 78 75 72 68 68 69 66 59 55 56 56 53 50 46 50 53 58 54 53 62 59 57 61 53 45 51
123 125 130 134 135 127 136 117 106 103 98 94 94 84 79 87 88 86 80 79 81 75 68 66 63 62 58 58 57 53 50 50 50 49 48 47 47 47 52 59 60 58 66 66 70 69 66 52 54
129 131 128 131 125 114 95 89 85 84 81 78 78 74 63 69 67 71 70 68 65 62 60 58 55 52 51 49 46 45 44 45 45 43 44 48 47 46 47 52 52 56 69 74 81 80 79 61 54
117 120 109 105 81 81 77 66 63 60 59 54 51 54 53 54 54 53 52 50 48 47 45 44 42 41 39 36 39 38 40 41 42 41 39 39 44 44 47 49 49 52 79 79 89 88 88 72 64
99 99 85 69 59 54 53 48 43 41 39 38 37 36 33 34 35 35 35 35 35 34 33 34 35 36 36 35 34 37 38 39 39 39 39 41 42 43 46 49 52 58 66 82 90 90 96 82 73
49 53 47 40 38 32 28 25 24 23 22 21 21 22 19 20 21 24 25 26 27 27 28 28 29 30 33 35 37 38 39 40 41 43 44 46 47 48 48 49 53 57 62 81 94 95 95 94 82
21 21 21 21 20 17 17 16 15 15 15 17 17 17 17 15 18 20 21 23 22 24 26 27 29 31 32 32 34 37 41 44 46 48 49 50 51 51 49 50 52 55 60 68 89 105 103 105 108
10 8 7 6 9 10 12 15 19 19 21 23 24 21 22 26 28 25 16 17 27 25 22 22 24 23 22 21 24 31 36 41 42 47 50 52 54 55 57 56 54 54 57 64 70 83 102 103 110
14 18 19 17 19 18 22 20 15 12 21 35 27 30 32 31 33 35 28 27 21 27 29 28 30 30 28 26 22 21 22 25 33 37 44 47 52 56 59 62 61 61 58 63 67 73 81 90 97
20 19 19 16 18 23 25 35 34 32 35 36 34 38 39 40 37 36 34 33 27 28 27 22 25 23 22 22 19 20 17 23 23 22 25 32 33 41 53 61 65 68 69 65 68 69 75 77 81
14 15 15 16 27 31 35 34 33 33 34 34 35 36 36 35 37 39 42 40 38 36 35 35 36 38 35 31 33 33 27 24 23 26 28 30 31 30 35 41 56 68 75 74 71 73 76 76 79
11 13 17 23 26 27 28 29 31 31 33 35 35 36 38 38 37 38 42 41 41 40 39 41 41 40 40 42 42 41 39 35 34 28 29 33 32 34 36 41 46 50 69 78 80 78 80 84 83
16 15 17 18 21 22 22 24 26 27 30 32 33 35 36 40 41 43 43 43 43 42 44 47 48 47 48 49 52 49 47 45 46 44 44 49 38 43 46 47 51 55 57 71 83 85 85 87 91
12 15 16 17 17 16 18 18 20 24 26 26 26 34 39 41 42 42 44 45 44 44 47 49 53 54 55 56 58 60 58 57 57 54 49 53 51 55 58 53 51 55 56 65 79 89 91 93 96
12 12 13 13 13 16 18 17 18 20 22 24 27 33 36 40 43 44 42 43 44 42 45 50 53 54 56 59 60 63 65 63 64 65 62 60 63 65 65 65 63 60 59 63 73 85 92 97 102
7 10 9 11 13 15 14 15 18 18 19 21 24 31 35 39 41 42 44 44 43 45 47 50 53 54 54 57 61 61 64 68 69 71 72 68 68 68 70 73 68 66 66 67 71 81 94 98 107
7 11 10 8 9 12 14 15 14 17 21 28 32 31 35 35 40 43 47 50 52 52 55 57 57 57 57 56 63 68 68 68 73 77 80 82 78 80 79 76 75 75 72 74 73 75 83 98 109
15 15 12 9 13 19 21 22 14 17 23 26 31 38 40 44 47 51 52 55 58 58 59 58 61 61 62 63 65 68 75 76 81 86 89 91 92 92 88 88 78 76 76 75 74 77 81 85 95
21 21 19 20 23 22 28 28 29 25 18 29 35 36 40 46 49 53 59 61 63 62 59 62 63 65 68 69 75 78 77 84 89 95 99 98 100 98 97 97 88 85 85 81 76 75 79 86 92
23 21 23 24 24 28 23 27 34 36 37 39 41 42 44 49 53 56 58 62 61 61 63 64 66 69 73 78 81 81 84 88 95 101 102 101 98 98 99 98 95 89 85 83 79 74 74 80 87
24 19 20 20 22 27 35 37 43 37 39 41 38 42 47 48 52 53 57 58 58 61 66 71 72 73 76 78 80 83 88 94 100 106 105 104 103 103 103 102 98 94 89 80 76 73 72 74 80
23 27 25 24 28 29 35 39 49 47 45 45 48 48 49 54 58 62 63 65 66 69 72 77 83 84 85 86 89 91 97 101 103 110 109 109 108 106 107 102 96 90 83 77 74 71 70 70 74
26 29 31 30 32 29 37 36 51 46 52 57 60 62 63 64 65 67 69 71 73 77 79 82 84 86 90 91 94 98 103 107 110 116 114 113 110 111 107 100 92 84 77 74 71 69 69 68 72
26 32 34 37 38 32 30 35 52 49 56 62 64 65 66 66 71 74 76 77 79 78 82 85 85 88 92 95 99 105 110 115 118 122 119 119 114 111 103 93 86 81 76 71 69 68 67 68 70
32 37 39 37 34 39 39 42 58 60 59 59 62 65 68 73 78 80 82 85 87 86 85 86 89 93 97 99 104 110 117 119 125 126 119 117 112 106 98 87 85 79 74 70 67 66 67 69 71

GFSSGP_250_spd_009.txt.gz
Wind_Speed
95 93 97 103 104 101 107 112 110 108 111 114 114 110 113 117 124 124 125 125 128 131 128 126 123 120 119 118 115 111 109 105 105 102 102 102 95 96 82 82 77 70 68 59 52 49 31 30 40
95 96 101 104 107 106 107 114 115 114 119 122 123 116 115 118 125 127 128 127 124 124 125 117 117 113 113 104 108 101 97 103 99 98 98 96 95 84 77 77 69 60 59 56 56 53 31 20 16
98 97 96 100 104 105 111 117 114 114 112 120 122 128 125 126 129 125 124 123 122 114 110 110 105 104 99 96 98 96 98 97 95 94 93 89 86 79 71 68 62 54 52 55 56 46 36 34 29
109 104 99 98 103 107 112 120 123 127 133 137 130 128 133 139 132 119 109 105 98 96 96 96 90 91 91 88 89 86 84 83 79 79 77 76 67 65 65 59 54 49 53 54 54 41 40 39 34
97 104 109 112 114 116 121 127 131 132 134 135 133 130 126 119 114 101 97 97 96 96 98 85 81 86 89 85 75 71 72 68 64 67 66 59 56 54 51 51 47 45 52 45 52 47 49 45 48
106 114 113 113 118 122 124 125 129 134 128 126 124 120 102 101 103 96 94 91 84 83 79 76 80 78 73 77 69 64 62 61 58 54 53 50 47 43 45 44 44 47 50 44 54 57 57 53 54
119 120 122 121 120 119 122 123 128 130 125 118 107 99 97 89 87 83 81 65 69 70 73 68 63 61 58 53 48 47 47 46 45 43 40 40 38 40 43 43 46 51 50 44 59 61 64 62 59
118 118 121 120 117 117 118 122 110 106 102 97 78 73 71 67 68 64 56 58 60 56 51 47 45 43 39 36 37 36 37 35 34 33 34 37 35 35 40 43 47 48 52 53 60 61 74 70 67
112 108 118 124 119 103 96 93 86 78 68 63 59 56 47 41 40 39 38 36 36 34 34 30 30 32 31 32 32 30 30 33 32 32 32 33 33 36 38 40 44 50 53 54 59 63 68 82 81
119 116 103 99 96 87 71 62 57 48 44 40 33 29 26 21 20 21 21 21 22 23 23 22 22 23 23 26 29 29 30 31 34 32 34 34 32 34 36 38 38 43 49 50 53 63 71 78 88
98 91 82 63 55 51 45 39 34 29 24 18 15 12 10 10 10 11 11 15 15 15 15 18 18 18 19 18 18 22 27 31 35 38 40 41 42 40 41 43 45 45 46 48 52 56 77 81 89
48 42 38 31 29 27 21 13 6 5 9 14 16 17 18 18 20 21 18 23 23 24 23 22 21 19 16 15 17 16 17 20 22 26 33 39 43 45 46 48 49 50 51 53 56 57 70 89 92
21 19 13 5 5 5 12 13 15 16 16 25 28 30 37 35 34 32 31 28 25 23 27 30 31 30 34 32 29 21 21 18 21 18 20 25 27 30 40 44 48 51 53 58 59 61 66 71 94
11 9 9 13 15 17 17 20 22 23 28 31 34 39 37 38 36 37 35 34 32 32 33 30 31 32 31 30 32 28 24 26 17 25 22 19 23 23 25 31 43 49 54 57 62 65 67 69 74
11 13 15 15 18 20 24 25 28 27 32 34 35 36 36 36 36 34 35 34 35 37 39 38 36 34 34 31 34 34 32 31 32 34 36 35 34 27 30 29 28 33 45 53 62 67 71 74 75
10 15 12 17 22 25 25 26 27 27 28 28 32 32 32 31 33 34 34 33 32 32 35 38 37 36 34 36 36 38 37 35 38 41 39 39 38 39 42 37 38 39 41 47 56 65 73 77 80
9 5 9 15 18 19 20 20 20 21 23 27 29 30 31 33 34 34 34 36 36 36 36 37 37 37 39 38 38 38 40 42 42 43 46 46 47 51 51 47 48 48 50 49 53 54 62 74 82
2 3 6 12 14 13 14 17 18 19 22 22 23 25 27 28 30 33 34 35 36 36 37 36 34 36 36 38 37 36 38 40 40 42 45 50 54 59 61 62 63 61 57 54 57 60 62 64 73
3 6 7 8 9 9 10 11 12 13 15 17 21 24 25 26 27 28 31 33 36 40 40 36 37 36 39 40 40 42 42 47 50 53 53 54 57 62 65 68 67 68 66 64 63 63 65 71 72
2 2 3 5 7 10 8 7 7 9 13 19 24 26 25 25 28 30 32 36 41 41 42 39 41 40 43 46 50 51 50 54 57 58 58 60 63 67 68 73 76 73 72 72 71 71 67 72 79
5 4 10 9 6 7 10 9 12 16 17 16 20 23 27 30 33 36 39 39 43 47 48 48 44 46 47 50 54 57 57 59 63 63 62 63 67 72 76 76 81 83 82 80 79 77 76 73 75
10 12 15 11 10 14 16 15 10 14 18 20 22 27 31 34 38 42 43 44 46 50 52 53 54 57 59 61 60 63 65 65 66 70 72 72 76 81 85 85 89 92 92 87 84 81 83 82 78
19 17 18 14 14 15 20 22 15 13 13 14 19 28 29 35 44 47 48 49 50 53 57 58 61 66 68 67 65 65 64 69 73 75 77 81 87 88 91 98 97 100 98 88 85 81 82 83 82
23 23 19 18 22 19 24 30 36 32 31 25 24 26 28 36 42 50 54 55 56 56 60 66 68 69 71 73 73 73 72 75 77 80 81 91 94 95 98 107 104 110 101 93 86 83 80 78 79
22 21 22 21 22 30 27 32 39 42 42 40 37 37 41 45 47 49 52 53 50 56 63 65 66 68 73 74 75 78 79 82 82 84 91 98 103 106 108 116 114 119 103 96 92 86 83 76 70
22 22 22 25 28 29 37 40 48 45 45 44 43 45 49 54 54 51 51 53 55 60 64 67 68 71 76 82 84 86 87 88 89 89 95 102 106 113 114 118 122 116 100 95 92 87 81 72 68
23 24 26 28 28 29 32 44 55 51 49 51 47 51 51 55 55 57 58 62 65 69 72 75 77 82 83 86 90 93 96 96 96 95 100 106 115 117 117 121 122 108 98 94 90 85 76 69 68
27 30 33 35 34 34 36 41 51 54 54 57 58 58 64 68 68 72 73 74 75 78 80 81 87 87 86 89 94 97 99 102 103 107 109 115 121 122 121 118 115 101 97 91 85 77 73 70 67
29 33 31 36 39 41 34 39 52 50 52 54 59 66 65 70 71 75 80 82 83 82 84 85 90 94 93 96 100 105 107 107 112 114 116 121 124 123 120 117 111 100 94 86 78 74 72 68 66
35 42 46 40 37 44 38 44 54 58 60 62 65 69 72 76 80 81 82 84 84 86 88 93 97 101 102 104 107 109 112 114 118 121 125 129 128 124 116 112 103 97 88 79 75 72 69 66 63

GFSSGP_250_spd_012.txt.gz
Wind_Speed
86 89 90 91 92 90 92 94 99 100 97 101 102 102 104 111 116 123 125 128 122 125 125 128 124 125 117 113 113 106 97 97 94 95 98 99 96 91 90 89 88 82 79 77 77 73 63 61 60
86 89 92 92 95 94 95 98 106 106 101 100 108 113 112 119 124 128 130 126 130 126 129 129 124 119 108 104 102 101 96 93 89 89 85 83 81 82 83 79 81 71 69 66 69 63 53 56 56
94 92 91 93 97 100 104 103 104 101 103 108 109 119 123 126 128 130 135 137 130 132 123 118 111 102 99 97 96 94 91 89 79 80 76 77 73 70 70 67 69 57 57 58 56 55 51 56 51
96 100 97 95 96 103 107 111 114 115 116 117 120 122 124 129 128 131 134 134 125 124 113 104 97 99 96 97 90 83 81 73 78 79 74 68 65 61 60 58 51 53 47 51 48 55 56 52 43
104 101 100 98 103 104 109 113 111 120 125 131 122 128 127 130 133 126 121 116 111 105 102 99 94 88 83 79 74 74 73 74 69 66 62 57 51 51 50 46 45 47 45 49 51 54 58 55 48
106 96 97 106 112 114 118 117 118 123 126 130 129 123 124 120 113 112 110 104 96 87 81 72 72 67 65 67 69 69 65 60 55 52 51 46 43 41 40 41 41 43 45 47 50 54 54 53 53
108 109 111 110 114 118 124 122 121 123 125 123 122 120 111 108 101 94 87 77 73 68 58 52 53 57 53 50 50 46 40 35 35 35 34 34 36 36 36 37 38 40 44 46 54 54 51 51 55
113 112 117 121 121 115 120 123 119 124 116 110 111 98 91 83 72 66 57 52 50 46 42 44 44 39 34 34 32 28 28 28 25 27 26 26 27 27 30 31 35 38 42 47 48 50 54 52 58
114 119 117 115 115 116 106 110 115 98 92 87 76 69 53 45 38 35 33 32 29 30 33 32 29 26 25 23 22 20 22 22 23 26 26 27 28 28 28 28 32 35 39 41 48 51 51 54 54
109 111 101 100 102 101 98 90 82 68 58 53 45 38 28 24 20 18 19 16 9 7 10 14 18 20 17 16 15 16 18 20 22 25 28 29 32 34 33 33 33 36 39 41 46 50 50 57 67
97 95 93 91 81 70 70 53 45 39 29 20 12 5 4 6 6 12 15 15 17 21 20 24 28 28 30 27 28 27 27 23 23 26 25 25 27 30 33 35 37 39 40 42 45 49 51 54 60
86 82 59 57 41 41 32 28 19 4 5 7 8 15 21 23 23 31 34 32 29 28 29 29 28 28 29 29 23 20 21 21 22 21 24 24 28 32 32 32 32 38 43 47 49 51 53 56 59
28 24 22 23 20 15 13 3 7 10 18 22 27 28 31 33 32 29 28 27 28 27 26 24 25 24 22 22 21 20 19 18 16 17 20 18 17 22 27 29 32 34 35 40 45 52 58 59 62
13 12 10 8 7 6 3 9 16 19 24 27 27 28 27 26 26 23 23 22 21 21 23 23 22 21 20 20 23 22 22 22 20 23 22 27 26 24 23 25 25 28 33 37 41 44 51 57 64
7 9 10 9 6 6 10 17 21 23 24 24 25 22 23 24 24 26 26 25 25 26 27 27 25 25 24 24 23 22 23 25 27 27 27 30 32 34 36 38 37 39 37 33 34 40 46 52 57
8 9 9 8 13 13 17 16 17 19 19 20 18 19 20 22 23 25 27 28 29 29 28 27 25 27 27 27 28 27 28 32 33 33 35 38 40 40 40 41 41 43 47 48 49 49 45 48 55
3 5 4 6 8 10 10 11 13 13 13 14 15 17 17 19 21 23 23 23 26 28 30 30 29 29 31 31 32 34 36 38 37 39 40 41 41 41 39 43 45 47 50 52 54 56 56 55 51
3 0 4 7 6 6 5 6 8 6 4 8 11 15 15 15 17 21 23 28 28 30 31 32 32 31 34 34 36 40 44 45 44 45 46 46 49 49 47 48 50 52 57 59 60 62 64 63 60
4 7 7 6 4 3 3 3 3 2 3 7 11 13 11 11 20 20 25 30 32 33 36 35 38 37 36 39 41 44 45 44 44 44 44 45 49 52 51 51 52 57 62 64 66 71 72 74 71
4 11 10 9 7 6 7 10 12 6 4 10 12 12 12 18 23 26 30 33 37 39 42 42 41 39 38 40 44 44 46 48 51 53 55 56 57 58 58 60 60 65 71 73 75 79 81 81 80
11 12 11 14 14 15 15 15 19 23 19 20 26 25 25 26 28 34 36 40 45 46 48 48 47 44 43 48 50 51 55 60 63 64 65 66 64 66 68 70 73 74 74 79 82 86 89 90 88
12 15 16 18 19 19 23 22 15 12 18 23 24 30 35 36 36 40 45 51 54 54 55 56 56 57 54 60 61 60 62 68 69 68 69 71 70 72 74 74 77 79 83 83 87 92 93 93 95
21 18 19 18 20 23 23 26 20 19 24 26 25 28 30 34 38 39 46 51 53 55 58 61 66 68 67 68 71 70 71 72 73 76 77 80 81 83 85 87 88 89 92 93 96 98 99 99 98
19 18 19 21 23 24 25 31 28 29 21 19 23 30 34 36 39 43 49 52 55 58 62 67 70 69 72 73 73 75 78 77 79 81 84 88 89 92 95 98 99 99 101 102 105 104 104 102 95
19 22 22 22 26 29 29 36 36 39 39 40 37 39 40 46 47 50 52 56 59 61 65 68 69 70 71 73 76 79 81 84 85 88 92 97 97 98 101 103 105 109 110 113 113 112 110 99 91
19 21 24 24 23 29 37 43 43 46 47 45 47 49 50 53 55 55 59 63 65 68 70 71 72 74 75 79 81 84 89 94 98 99 102 104 107 106 108 110 113 117 121 121 118 113 101 93 89
24 25 26 29 29 27 35 48 61 54 51 51 50 49 55 59 62 65 69 71 73 72 73 76 78 83 86 88 90 93 98 103 106 107 109 112 114 116 118 122 126 123 120 115 110 102 97 93 88
30 35 31 29 28 31 36 49 55 52 50 50 55 59 63 67 69 68 68 70 72 76 80 85 89 90 91 94 97 100 104 108 113 115 118 121 123 124 126 125 120 122 114 109 101 97 92 87 82
38 40 38 39 43 47 40 41 47 46 48 50 57 62 65 66 69 74 77 79 82 84 87 90 95 99 102 103 105 108 112 118 121 125 127 127 125 120 119 118 116 112 107 101 97 89 84 79 74
48 49 44 40 38 38 35 39 45 49 52 55 60 64 69 73 76 79 82 85 87 90 94 99 102 104 108 111 115 118 123 127 128 128 126 123 121 115 113 110 104 101 96 90 86 82 78 71 71

GFSSGP_250_spd_015.txt.gz
Wind_Speed
76 81 85 84 84 86 85 86 90 91 96 100 101 100 104 107 107 113 113 114 117 124 126 127 127 130 125 122 117 116 116 113 111 110 105 101 92 94 91 89 88 83 79 80 76 71 66 65 65
90 94 91 87 86 85 88 89 95 99 102 100 104 108 108 106 109 113 121 125 123 125 128 128 127 121 118 118 118 113 110 111 106 100 100 98 95 93 91 86 76 66 68 67 62 61 62 56 58
89 93 89 88 91 95 101 99 97 100 105 110 109 107 113 117 124 123 133 132 134 129 124 128 122 119 117 111 111 101 95 96 95 91 84 81 76 74 68 71 72 67 66 64 59 56 57 52 55
92 87 91 95 96 103 104 103 102 105 108 107 111 116 118 118 123 126 125 127 126 122 120 115 112 106 99 93 85 82 79 71 72 64 64 66 71 69 71 63 58 61 57 55 51 50 50 50 52
93 99 100 103 104 101 102 106 109 110 112 113 117 120 122 129 131 129 127 122 121 119 115 107 97 91 79 75 66 67 60 60 61 63 64 60 60 58 58 56 52 52 53 49 48 47 50 52 51
98 99 98 95 96 101 102 108 109 114 111 117 127 118 121 118 123 121 117 115 112 103 86 78 70 67 61 62 58 57 56 58 56 50 49 48 47 46 44 40 41 44 46 45 44 44 47 50 52
96 100 105 112 107 110 116 117 118 120 126 127 123 120 116 116 115 114 111 88 76 56 57 55 51 47 48 46 44 44 47 45 43 40 37 34 33 32 31 30 31 34 38 40 41 43 46 49 51
105 107 107 109 120 121 119 126 127 127 126 122 118 111 108 103 96 83 65 57 48 42 38 33 32 31 30 29 27 27 29 28 27 25 25 26 26 26 28 28 30 31 31 33 35 40 43 47 49
110 109 112 120 119 121 128 125 123 121 118 109 103 96 81 68 58 54 46 39 31 24 20 16 16 14 11 9 9 8 9 11 12 12 14 16 18 20 24 27 28 28 29 32 33 37 39 43 47
114 117 117 116 113 109 111 116 103 98 89 80 74 56 42 36 28 28 24 10 4 4 11 12 15 12 7 5 6 7 12 20 21 20 25 24 25 27 25 22 21 22 28 33 35 38 40 43 47
97 104 108 104 89 85 88 84 69 63 54 49 40 26 17 13 3 2 9 17 18 17 22 21 19 22 23 22 23 22 23 22 22 21 22 21 22 24 23 28 25 24 22 20 26 37 41 43 45
94 91 86 82 81 59 51 44 41 38 26 24 11 1 8 12 13 18 18 19 21 23 23 21 20 20 22 23 23 21 20 18 15 15 16 15 16 17 18 19 24 25 26 25 22 20 23 35 45
66 66 52 52 34 34 28 25 19 14 5 6 14 17 18 18 18 19 17 17 17 20 19 18 17 16 17 19 21 19 18 17 19 19 16 19 20 20 22 25 25 25 23 22 23 24 25 27 30
34 27 27 23 20 15 11 7 2 5 12 17 17 16 15 16 17 20 20 21 20 19 17 18 19 22 22 22 23 23 24 26 29 29 28 26 26 28 29 29 31 31 27 28 28 29 25 20 21
20 20 16 4 3 2 3 12 13 13 14 10 10 11 11 11 13 15 18 20 20 19 21 21 23 24 22 25 27 25 26 29 33 34 32 30 31 33 34 34 34 32 33 33 35 34 35 36 37
9 5 4 2 3 4 10 13 10 11 7 5 4 4 7 7 9 12 14 18 23 25 26 28 26 26 26 26 28 31 33 34 35 35 34 33 34 36 35 37 38 40 42 40 39 40 42 44 44
2 2 2 8 8 12 9 9 10 8 6 5 1 4 8 7 10 15 15 20 25 28 29 32 34 36 34 33 32 33 36 37 38 39 39 40 42 44 45 46 46 45 48 49 50 50 50 54 55
5 7 5 6 8 9 11 10 11 8 9 9 9 14 16 17 22 30 32 31 34 35 33 36 38 39 39 39 40 40 42 45 46 47 47 50 52 52 50 51 50 51 52 55 57 59 61 63 65
4 8 8 9 10 12 13 13 11 14 15 11 14 15 20 25 29 33 34 33 36 38 41 41 40 38 39 41 46 50 53 55 54 55 53 54 56 55 56 58 59 59 59 62 66 66 67 68 69
7 10 14 14 14 17 18 14 15 17 21 22 22 25 27 27 31 35 37 38 41 43 45 47 45 44 44 47 52 57 59 60 61 62 60 59 61 63 63 65 65 66 68 70 72 74 76 78 80
11 15 17 17 18 22 23 25 22 22 27 21 26 30 30 29 36 41 41 46 50 52 54 55 55 56 57 57 60 61 63 62 64 67 68 68 69 70 71 74 75 78 80 81 80 81 85 88 89
16 17 19 21 23 25 26 24 26 31 28 28 27 32 38 35 43 44 45 48 50 54 57 60 61 64 67 67 66 65 66 67 68 69 74 79 80 80 82 85 87 88 89 89 89 90 91 93 96
20 20 21 17 20 22 24 25 24 28 30 30 34 31 32 42 43 45 48 49 52 56 59 60 63 66 68 70 70 71 74 76 79 82 83 86 88 89 91 94 96 97 98 99 100 101 102 103 105
21 18 19 22 23 23 25 27 28 29 32 34 38 41 43 41 41 42 45 49 52 57 60 63 65 66 69 71 75 77 80 82 84 88 92 95 97 98 99 101 104 106 109 109 109 109 106 104 104
22 21 23 25 26 28 29 31 32 32 30 32 42 43 41 43 45 46 50 53 57 60 61 63 67 70 73 78 82 85 87 90 94 97 99 101 103 105 107 110 113 113 112 110 106 104 103 99 98
21 25 27 26 28 35 39 41 41 41 37 44 39 36 41 45 48 51 55 57 61 66 69 72 75 77 81 84 87 93 96 99 102 106 109 112 111 112 114 112 110 108 107 105 102 97 95 94 92
23 26 27 27 32 36 45 54 56 49 49 43 38 44 49 52 55 58 61 64 70 73 77 80 84 87 91 93 94 98 101 104 107 112 114 117 117 115 110 106 103 102 101 96 94 91 89 87 87
29 28 29 32 37 41 45 54 51 47 41 47 53 55 57 60 62 64 69 73 79 82 85 88 92 95 96 96 100 103 108 112 116 119 121 121 116 112 109 105 101 95 92 90 88 85 82 80 79
35 35 37 41 47 45 35 39 43 45 47 53 57 60 61 63 67 72 78 84 86 88 89 91 95 96 98 106 110 114 115 118 119 122 119 117 114 109 102 95 92 90 88 87 86 83 83 82 80
39 41 42 40 37 36 36 42 46 50 55 57 59 62 65 70 75 80 84 86 87 88 91 99 102 106 111 116 118 120 119 118 120 115 111 111 106 100 93 91 90 86 84 83 82 78 76 75 74

GFSSGP_250_spd_018.txt.gz
Wind_Speed
74 65 70 74 69 73 78 80 82 86 90 94 96 98 95 100 102 109 109 109 107 108 114 114 113 117 126 126 121 119 117 110 114 110 108 109 103 101 89 83 80 78 76 74 74 75 75 73 69
72 75 79 76 78 80 81 89 93 96 99 101 102 99 100 104 112 111 111 114 114 119 119 118 122 121 115 121 115 115 117 112 113 107 98 92 88 76 77 72 67 65 63 59 58 61 55 61 58
83 84 79 82 81 87 93 93 93 95 97 100 101 103 108 110 111 113 115 124 122 120 127 129 125 114 117 111 116 114 116 98 87 84 78 75 70 66 61 58 55 52 55 54 56 56 59 60 61
85 82 90 89 89 93 91 93 94 100 103 105 107 109 105 109 118 124 118 124 133 132 128 129 117 114 115 107 103 82 81 72 69 71 63 63 62 59 59 57 61 59 63 61 62 58 54 52 55
89 93 92 92 92 94 93 101 102 99 103 105 108 115 114 119 128 128 129 135 134 130 127 117 109 102 86 77 67 64 59 54 55 53 53 53 54 52 50 50 47 47 47 51 54 55 58 56 55
97 97 96 95 99 95 100 104 99 104 113 106 111 117 126 128 127 132 132 121 113 109 109 92 78 66 65 58 51 47 43 39 38 39 39 41 42 41 40 37 35 35 35 37 38 42 45 47 50
98 101 101 101 103 103 108 108 113 114 107 114 118 124 120 129 123 118 110 101 96 87 72 62 55 54 50 45 40 37 36 31 30 30 30 29 29 30 30 30 29 28 27 29 30 31 35 37 37
105 98 103 102 107 104 109 112 115 117 117 121 127 125 115 112 108 104 89 78 63 55 49 42 40 35 30 25 22 20 21 21 18 16 17 15 13 12 14 17 21 25 27 28 29 30 32 32 33
108 114 105 110 108 109 113 114 117 121 118 119 110 98 95 88 79 76 58 46 40 30 22 16 12 11 9 8 8 7 10 13 6 7 11 9 8 12 10 10 12 11 13 20 25 28 30 32 32
106 110 108 104 105 111 111 114 120 114 106 95 94 83 69 59 49 46 34 25 13 7 7 6 10 9 12 14 14 13 14 17 18 20 19 18 20 21 22 21 22 19 15 13 10 14 23 28 31
107 111 103 102 101 103 109 106 101 91 85 71 61 52 47 37 25 18 7 3 7 8 10 13 15 17 18 17 15 14 14 16 19 21 20 22 21 23 23 24 28 25 26 24 20 18 14 12 17
88 94 84 93 87 92 72 68 62 59 53 48 34 33 26 12 5 8 10 13 15 17 19 23 25 27 25 24 23 22 20 21 24 26 28 27 26 28 27 27 28 29 27 26 24 24 22 23 21
82 80 72 76 80 71 56 45 35 30 25 23 15 8 1 6 9 10 11 12 16 18 19 22 25 26 24 26 28 27 24 25 27 30 31 30 31 30 32 32 33 31 31 30 28 25 24 23 23
74 65 52 39 34 33 38 29 21 11 9 6 5 3 1 1 3 6 9 12 14 15 17 20 21 21 23 25 26 29 29 28 28 28 29 29 28 30 30 33 35 34 34 36 34 34 33 30 27
42 33 25 23 21 17 11 12 10 2 4 4 4 6 5 6 6 8 14 14 17 19 20 20 22 26 30 29 28 28 28 29 30 32 33 34 34 34 35 37 39 39 40 39 38 39 39 39 37
20 19 10 8 5 6 6 7 6 6 6 5 5 7 11 13 15 14 16 18 18 21 23 21 23 27 31 30 31 30 33 36 37 40 44 43 43 44 45 45 42 42 42 43 44 43 43 45 45
11 7 3 6 7 8 10 11 10 12 10 11 11 11 13 16 19 22 27 25 20 24 28 29 33 36 40 41 40 40 43 46 48 49 50 48 48 49 51 50 52 52 51 52 52 52 53 54 54
7 5 6 8 10 12 12 12 14 16 16 17 19 19 20 21 23 30 35 38 40 40 41 44 46 45 46 48 48 49 50 51 54 55 54 55 54 56 57 57 57 59 60 61 63 64 63 63 63
6 8 8 10 13 15 15 16 18 18 21 23 25 27 30 30 33 36 37 37 43 45 48 47 48 48 49 51 52 54 57 58 59 60 60 62 63 65 65 66 68 69 69 70 71 71 72 74 75
12 9 9 12 16 17 18 20 22 22 28 28 29 30 31 34 38 42 44 43 46 48 48 49 49 51 54 55 57 56 57 58 61 65 66 66 68 68 69 71 74 77 79 81 81 81 81 82 84
12 12 13 15 19 23 24 25 26 30 35 33 33 33 35 39 42 43 46 49 49 48 50 52 54 57 58 59 59 62 64 64 66 70 73 76 78 79 80 82 84 87 90 91 93 93 92 93 93
15 17 18 21 24 23 21 23 22 25 30 32 32 33 37 42 46 48 53 54 51 52 53 55 58 60 63 65 67 67 69 72 76 78 80 83 85 88 92 95 97 98 100 100 98 99 98 98 100
19 22 22 23 21 18 17 20 21 24 26 27 31 36 43 45 48 55 50 49 49 52 55 58 60 62 66 70 73 75 76 80 83 87 89 92 94 96 97 102 104 106 108 107 108 107 105 104 103
19 18 21 22 18 18 19 22 26 27 27 26 30 36 43 46 53 49 46 48 52 57 60 63 67 69 73 79 82 83 85 87 89 90 93 96 97 101 105 108 107 107 107 107 108 104 99 93 93
24 22 21 20 21 21 23 26 31 34 35 37 42 45 48 49 45 47 52 54 57 58 61 65 69 75 79 81 83 85 88 93 97 98 99 103 105 108 112 112 113 106 107 105 101 95 90 88 85
25 24 22 21 24 27 30 36 38 40 38 40 38 37 38 43 48 52 55 59 63 65 68 72 77 79 81 82 84 90 97 101 103 107 110 112 114 115 113 110 107 104 102 98 96 90 86 79 75
26 26 25 26 27 31 40 48 45 44 41 38 42 44 49 53 56 57 60 65 69 71 75 77 81 83 87 90 94 99 105 108 112 115 119 118 118 116 111 107 104 98 94 93 90 83 78 75 73
27 29 28 30 31 35 43 54 52 39 41 47 49 54 53 55 60 63 68 72 75 79 82 85 86 86 93 97 101 105 111 115 116 117 118 119 116 114 110 102 96 93 87 86 82 78 76 75 74
29 30 31 34 37 38 33 49 45 48 53 55 54 55 59 62 65 71 76 80 83 84 86 87 89 96 102 104 109 112 117 120 120 120 118 115 114 111 104 100 94 92 88 86 83 80 78 76 76
31 32 33 34 36 37 37 45 49 48 48 50 55 57 63 68 71 75 80 82 83 85 88 93 100 103 106 111 117 121 123 127 124 120 119 116 112 105 102 97 93 90 87 86 84 81 78 77 77

GFSSGP_250_spd_021.txt.gz
Wind_Speed
73 72 76 70 70 70 72 72 77 76 77 79 83 84 89 84 91 96 99 101 101 105 110 113 112 117 125 123 127 123 125 124 115 111 110 107 105 98 88 87 78 77 77 78 75 71 71 68 66
78 73 72 73 75 76 76 74 74 79 85 86 85 88 89 98 101 101 101 105 108 109 112 112 114 120 124 126 123 119 114 109 107 101 104 99 88 75 69 69 68 69 58 58 61 59 57 55 54
82 81 80 80 75 77 78 80 81 84 87 87 93 97 98 99 100 105 104 104 106 113 116 122 123 124 119 115 114 111 108 95 87 79 73 70 67 65 55 51 46 51 55 58 57 57 56 57 54
79 83 83 82 82 81 82 86 87 89 90 93 95 101 102 101 106 111 113 123 120 126 126 124 121 113 110 110 99 90 85 70 64 62 59 56 52 48 45 43 46 47 51 49 52 57 58 58 58
84 85 85 84 86 85 87 90 91 93 97 102 104 106 108 110 110 118 119 116 117 118 115 111 111 104 89 86 75 69 60 54 47 43 40 39 34 32 32 33 33 33 34 34 35 36 41 44 47
93 87 88 89 90 92 95 97 96 101 105 107 106 111 109 111 112 116 121 123 108 106 110 100 93 76 63 61 54 50 45 39 35 32 30 28 27 26 27 26 24 25 27 29 28 28 30 33 35
92 91 87 89 92 95 97 99 100 99 107 110 117 110 114 113 119 114 114 106 101 87 81 70 59 48 44 41 36 33 28 25 23 23 21 19 16 17 19 16 15 17 21 25 26 26 27 28 28
98 97 96 96 101 99 102 101 101 119 101 103 104 102 104 105 107 111 97 84 71 63 62 51 43 38 33 31 26 21 21 20 15 16 14 15 12 12 11 12 12 12 14 16 20 24 26 25 26
97 95 97 97 103 110 104 106 111 113 112 110 118 103 98 100 94 86 64 56 50 40 35 29 25 23 23 22 19 18 17 17 18 22 21 22 23 24 22 20 21 23 23 20 16 16 20 26 27
96 98 107 101 97 98 103 108 104 101 99 96 100 92 83 80 70 60 52 35 24 20 13 16 20 24 24 21 22 23 21 22 22 22 23 25 26 26 26 26 26 28 29 25 21 17 15 17 17
98 103 101 101 98 100 101 91 87 88 90 91 88 78 65 54 42 36 26 13 10 11 16 18 21 19 17 19 22 22 21 22 23 25 26 26 26 27 26 27 26 26 27 27 27 26 21 19 17
96 102 98 101 97 87 85 87 85 80 74 72 62 50 33 29 19 15 14 14 14 16 15 13 14 16 20 24 25 25 24 23 23 23 24 25 26 26 27 27 27 27 29 30 30 29 27 25 26
80 85 95 79 75 73 79 81 73 62 52 48 33 20 15 12 9 10 9 9 10 9 14 21 24 26 29 32 32 28 26 26 26 26 27 29 32 33 33 32 31 31 32 33 33 33 32 32 33
76 72 79 73 75 71 58 48 41 41 30 18 13 14 12 11 12 11 10 7 13 17 21 22 22 24 27 32 33 33 34 33 32 33 36 39 39 40 39 38 39 38 39 39 36 36 37 37 36
69 74 58 45 41 37 32 27 22 17 13 12 10 10 10 11 12 14 16 15 18 24 23 25 27 27 31 34 33 35 38 40 41 43 44 43 44 46 46 46 45 44 43 44 45 45 44 43 43
45 37 32 29 24 20 19 14 12 12 12 12 11 15 16 17 19 22 25 26 28 28 26 22 26 33 35 36 39 40 42 45 47 48 49 49 49 48 50 51 51 52 54 54 55 54 54 53 52
24 19 16 16 12 12 10 8 10 12 16 17 16 16 22 24 26 26 28 32 34 36 37 37 37 38 41 43 41 44 46 48 50 49 49 49 50 51 53 55 56 57 58 59 60 61 61 62 62
13 11 11 8 9 9 9 12 14 18 19 21 22 24 26 29 34 37 36 38 40 38 39 44 43 43 43 44 44 47 48 50 50 52 55 57 58 58 58 60 62 63 64 66 66 67 69 71 72
9 9 9 8 10 10 14 17 19 21 23 25 23 29 35 37 36 38 37 40 41 43 44 46 47 48 48 47 48 50 51 55 57 58 62 63 63 64 64 65 68 69 70 71 73 74 76 77 80
8 8 8 10 10 10 13 19 22 23 24 26 30 33 32 35 38 39 41 44 46 49 47 46 47 48 49 52 55 57 60 62 64 65 64 66 67 71 72 75 78 81 81 83 86 87 87 86 88
10 12 12 14 15 16 17 20 21 21 23 26 28 30 34 37 39 42 44 45 48 50 46 47 50 53 56 59 61 63 66 67 67 68 69 72 73 76 79 83 86 88 90 90 93 96 95 95 95
15 17 17 18 19 21 20 18 20 21 22 23 25 31 36 41 44 44 46 51 53 54 52 56 57 59 61 64 67 70 71 71 73 74 75 79 83 86 89 92 94 96 99 100 101 102 102 102 102
19 20 21 22 19 19 17 17 18 18 20 25 30 36 42 43 46 50 50 49 49 51 56 58 60 63 67 70 74 74 75 77 77 79 84 90 92 92 96 100 101 101 105 105 102 102 102 102 101
21 20 19 18 19 18 17 17 19 24 25 28 39 41 43 43 38 39 42 47 52 54 56 59 64 67 71 73 77 80 82 82 83 88 92 93 96 99 103 106 107 107 111 105 100 99 99 99 99
23 21 19 20 21 20 20 22 26 29 33 37 40 41 36 37 41 44 47 48 50 55 59 64 69 73 76 79 81 83 85 88 91 97 99 102 105 108 111 112 113 116 116 108 101 99 97 98 97
26 25 22 21 19 22 24 27 31 35 39 40 39 39 42 45 46 47 50 55 59 63 67 70 72 75 78 81 83 87 92 96 101 106 111 115 117 117 119 119 119 118 112 103 98 95 95 92 90
30 29 26 23 23 27 31 31 37 37 35 38 42 44 46 45 48 54 56 61 65 69 73 74 78 83 85 88 91 95 100 104 108 113 120 124 124 124 123 122 119 113 104 97 92 88 86 85 83
28 28 27 26 26 29 37 41 32 35 39 43 44 45 46 51 55 59 63 66 69 71 75 80 86 91 93 95 98 102 109 114 117 122 131 129 123 122 120 118 112 106 98 91 86 85 83 82 81
18 24 25 27 30 30 33 49 40 42 44 44 45 47 51 56 60 63 66 70 74 78 82 84 88 92 95 99 106 114 120 125 127 132 133 126 121 117 114 111 103 97 94 90 85 84 84 83 81
16 19 22 20 24 30 32 42 42 43 44 48 51 53 57 60 65 69 72 77 80 83 84 88 95 99 101 110 115 123 130 133 131 131 127 122 116 113 106 99 97 96 94 92 89 84 81 78 77

GFSSGP_250_spd_024.txt.gz
Wind_Speed
74 72 73 74 79 77 78 78 72 71 74 77 79 79 79 79 84 85 88 91 95 97 103 109 112 111 112 118 121 121 112 113 111 112 106 106 98 91 87 83 81 79 76 73 71 70 69 65 69
76 74 75 74 79 80 82 83 77 78 79 79 80 84 85 84 92 90 94 96 99 102 109 114 116 114 117 119 115 113 108 105 103 96 95 87 81 75 68 67 64 57 55 54 54 55 52 52 57
80 76 77 77 78 82 81 80 83 81 86 85 86 85 86 89 94 95 98 105 110 114 116 116 113 111 116 114 109 107 98 95 89 80 80 72 62 62 54 50 49 44 48 48 48 48 51 52 55
79 78 79 81 81 80 85 85 88 87 88 86 88 91 90 93 98 101 106 105 106 111 110 111 110 111 107 106 103 91 77 68 65 57 56 53 46 44 41 38 38 42 44 43 43 44 40 41 45
85 81 79 82 82 84 85 87 88 88 87 90 91 94 98 100 104 106 107 106 106 109 105 103 102 98 89 79 75 65 52 41 37 33 29 27 27 28 29 28 28 27 27 30 32 33 35 34 35
82 80 83 86 88 86 86 89 92 95 96 96 96 98 101 105 104 105 108 107 104 102 94 94 89 79 76 61 49 33 24 20 18 17 20 21 24 22 22 21 22 23 23 25 27 29 30 28 27
87 88 87 91 89 89 88 93 96 97 100 103 104 105 106 100 103 106 96 93 96 95 83 80 68 53 45 26 24 21 21 22 22 21 20 17 18 22 18 20 20 22 21 22 24 24 25 28 30
91 90 90 90 89 91 94 97 101 99 100 104 98 98 104 94 96 87 88 90 86 78 70 53 39 23 21 17 17 18 19 18 19 18 19 20 22 22 21 20 20 18 18 17 16 15 16 22 22
94 96 93 94 91 92 98 100 101 101 101 101 103 97 85 87 84 84 81 72 63 51 38 22 16 13 13 13 18 20 20 21 19 18 19 19 21 21 22 22 21 21 20 22 21 20 20 17 16
100 101 98 95 96 96 99 95 89 94 95 94 95 78 80 76 76 69 61 56 41 24 17 9 9 12 14 18 20 19 18 18 20 21 22 20 20 21 23 25 26 26 25 23 22 21 22 23 23
101 103 105 104 98 99 90 89 93 87 86 79 73 73 72 68 59 47 43 23 20 12 9 7 8 9 12 16 18 20 22 23 23 23 23 24 25 26 30 32 32 32 32 31 32 31 30 28 25
91 95 95 100 97 96 97 85 79 78 77 73 65 58 53 43 33 28 22 15 14 12 7 7 9 12 15 20 25 29 28 27 28 29 30 31 35 35 34 34 35 35 36 36 36 36 36 34 33
74 82 80 78 83 76 78 74 68 68 65 64 49 40 30 21 18 17 16 16 16 12 11 16 17 19 20 24 29 32 34 34 34 35 35 36 37 38 39 40 39 38 38 39 40 40 40 41 41
65 73 72 69 65 61 68 64 63 53 44 31 23 20 19 13 15 17 16 15 17 18 21 22 29 29 32 34 36 37 39 39 38 38 40 41 41 41 40 40 40 40 40 40 40 42 44 45 45
54 52 54 56 56 59 58 47 36 29 24 18 16 13 14 15 19 20 23 23 23 27 29 31 34 31 36 38 39 38 40 40 41 41 42 43 43 42 43 46 48 50 52 52 52 52 52 51 51
42 41 32 35 38 38 31 29 21 15 17 15 14 15 18 19 23 27 29 29 31 34 37 33 32 33 37 39 40 40 41 42 43 45 47 48 46 49 52 53 54 54 54 56 57 58 58 58 59
24 24 24 24 23 21 20 16 16 16 16 15 16 19 23 26 30 28 31 33 32 29 32 33 36 41 43 44 44 44 43 43 47 50 50 52 55 55 57 59 60 61 61 62 62 62 62 63 65
19 18 18 19 19 16 15 14 14 17 19 20 21 23 28 30 33 38 35 32 32 34 35 37 40 42 41 40 42 45 48 50 52 53 56 58 60 63 65 66 67 67 66 66 66 69 71 72 73
17 18 17 14 13 11 14 16 17 19 23 23 26 27 31 34 36 34 35 37 38 39 40 42 43 42 41 44 47 49 52 54 56 59 62 65 68 68 69 69 67 68 71 76 79 79 79 79 82
17 13 12 13 10 10 14 15 18 21 23 24 26 25 27 26 30 33 37 40 42 45 47 46 42 44 48 51 53 54 56 60 64 66 68 70 71 73 75 75 76 79 83 84 85 88 91 92 93
16 13 12 13 13 13 16 19 20 20 19 21 24 24 24 30 35 41 44 47 49 47 40 43 48 51 54 55 57 61 64 68 70 72 73 75 76 76 77 80 83 87 92 93 94 99 104 104 104
18 16 17 18 20 18 20 20 18 18 19 18 19 23 27 34 41 44 46 42 40 44 47 50 52 53 56 59 62 66 67 70 74 76 79 81 85 88 90 93 96 98 98 99 100 105 108 107 105
21 22 22 22 23 21 23 21 21 21 20 20 25 27 34 40 43 42 37 42 44 48 50 50 54 57 60 63 66 69 70 73 77 81 83 81 81 83 96 99 104 107 108 108 110 111 107 106 103
23 23 24 24 24 23 23 22 23 24 25 28 30 34 41 41 39 39 44 46 47 48 51 56 59 62 65 67 71 74 77 79 82 84 84 88 94 99 106 108 113 122 123 116 113 109 106 105 101
28 26 26 26 26 25 24 23 25 28 30 32 34 39 40 40 43 45 46 45 48 53 56 62 66 68 72 75 78 79 81 84 86 89 94 97 101 107 114 118 121 130 127 118 113 110 107 102 100
26 28 30 29 29 28 27 26 29 31 31 35 36 38 41 45 45 45 46 50 55 59 62 66 70 74 77 79 79 84 89 92 96 98 102 107 112 115 122 123 127 133 123 115 108 103 100 96 92
19 22 26 31 29 27 27 29 30 33 34 35 39 41 45 45 47 48 50 55 60 64 67 70 74 77 81 84 88 92 95 98 102 105 108 115 120 126 128 130 131 124 115 107 101 96 92 89 86
11 15 19 24 26 26 29 32 32 31 32 37 41 44 44 46 50 54 57 60 65 67 70 75 78 80 84 88 92 96 99 103 107 111 115 123 128 130 131 132 123 114 107 101 96 93 91 88 86
12 13 15 18 22 24 29 36 30 29 33 38 42 45 47 51 55 58 61 65 67 71 75 78 82 85 90 95 99 102 106 110 113 120 125 132 134 132 131 125 114 107 103 99 97 93 90 86 81
19 20 21 21 23 27 29 34 36 37 43 44 47 51 54 57 59 62 64 66 69 75 81 87 91 94 101 103 105 108 112 117 123 129 136 135 133 129 123 114 109 105 102 97 92 87 83 79 76

GFSSGP_250_spd_027.txt.gz
Wind_Speed
81 79 76 77 78 76 72 69 73 73 76 79 80 81 82 85 87 89 88 94 93 93 97 101 101 103 106 111 113 113 113 112 113 111 109 105 108 108 104 92 87 86 80 74 74 71 68 66 65
79 84 83 78 83 83 78 76 75 78 76 78 82 85 84 83 82 87 90 95 97 96 100 102 107 110 115 114 110 109 107 106 110 110 106 102 94 91 77 73 71 66 60 57 58 55 56 52 52
80 79 85 85 82 83 79 83 80 77 79 79 83 87 85 88 90 94 95 98 99 102 105 107 111 113 113 106 107 103 105 103 100 101 93 81 75 66 56 50 45 42 41 38 40 41 44 45 46
76 77 79 81 87 83 83 79 78 80 80 82 84 88 87 88 92 98 99 101 103 105 109 112 108 104 105 104 99 99 99 98 82 69 61 53 38 29 24 25 24 23 23 24 25 28 31 33 37
77 75 77 81 80 84 82 84 85 81 82 84 85 88 89 92 96 101 104 105 106 111 108 103 98 99 97 95 95 90 78 62 45 38 25 20 16 14 15 15 17 18 20 19 21 22 22 23 25
81 82 81 81 81 85 84 85 88 88 88 86 90 92 92 98 103 106 107 109 110 106 101 93 94 92 89 86 78 64 46 29 21 20 19 20 21 22 23 23 24 24 24 25 28 29 27 26 25
88 89 87 83 86 85 85 85 88 91 92 95 95 96 99 102 107 111 110 100 100 94 87 90 87 82 77 67 47 27 19 17 17 17 18 18 20 20 18 20 20 22 21 20 22 24 24 26 29
90 91 92 91 88 87 87 88 91 92 97 95 94 100 102 103 99 95 93 95 86 84 88 77 73 60 46 24 17 14 14 17 20 20 20 19 20 21 20 20 22 24 25 24 22 22 22 23 24
92 92 93 93 90 92 93 94 92 92 95 99 96 98 99 98 93 94 89 82 83 75 68 56 48 33 17 14 15 15 17 18 21 22 21 21 21 21 23 24 25 25 24 23 24 24 24 24 26
91 93 90 91 95 94 92 94 97 98 98 101 107 108 97 93 88 80 81 74 67 56 39 26 20 14 15 16 17 19 20 22 23 24 24 24 25 26 27 28 28 28 28 28 27 27 28 28 27
92 95 93 94 93 94 96 98 101 104 105 101 101 92 87 79 77 69 70 60 42 25 22 17 13 14 16 18 20 24 27 27 27 28 28 28 28 30 31 33 34 33 33 31 31 30 29 27 27
87 89 93 94 93 94 93 92 96 94 91 91 80 75 75 69 70 60 46 33 25 20 18 18 16 18 23 23 25 29 32 31 31 32 32 33 34 35 35 37 37 36 35 36 36 36 36 36 36
84 87 92 97 93 93 91 86 84 78 77 77 70 63 63 60 43 36 24 20 21 19 18 20 23 27 29 31 32 34 36 36 36 36 37 38 38 39 41 42 41 40 42 43 43 44 46 45 44
82 88 85 80 87 85 86 84 74 67 67 64 60 57 41 30 19 19 21 21 22 23 23 27 32 35 36 33 33 37 40 39 37 39 40 41 41 42 44 45 47 49 49 50 51 52 52 51 50
64 68 68 75 71 66 60 60 64 66 57 47 36 31 21 21 21 22 23 25 25 28 30 32 34 30 32 34 37 41 42 41 42 41 40 43 45 46 47 49 51 53 55 57 58 59 57 57 58
50 53 57 58 59 61 54 45 48 44 37 29 25 21 20 22 23 25 28 28 29 39 39 33 34 37 39 39 41 42 39 39 41 44 46 47 49 50 51 54 56 58 59 61 62 62 62 62 62
36 34 32 28 31 35 35 33 34 31 26 25 21 21 22 23 26 29 33 33 38 34 32 33 35 39 42 43 45 44 42 46 47 48 48 51 52 56 58 60 62 63 64 65 64 64 64 64 67
18 18 18 20 24 25 24 25 24 23 21 22 23 24 26 27 29 32 35 36 32 34 36 37 40 44 45 44 44 44 48 50 50 51 53 56 58 60 60 62 64 68 69 70 70 70 70 73 74
18 18 19 20 20 21 22 20 19 20 21 24 27 28 29 32 33 32 30 32 37 43 44 45 43 41 38 42 47 49 50 52 56 57 59 63 65 66 68 69 70 73 74 71 70 73 77 79 85
18 18 18 18 18 20 20 19 19 19 22 26 29 30 31 30 31 29 33 38 42 45 43 40 41 45 48 49 51 53 56 60 62 66 69 70 71 73 74 73 74 75 76 75 85 83 87 90 95
19 20 21 21 20 23 22 19 21 23 27 27 26 27 28 26 29 32 38 42 46 44 41 46 47 50 51 53 55 58 63 67 70 72 74 76 76 77 78 82 83 84 85 85 88 92 96 98 101
22 24 26 26 25 22 25 25 29 28 27 26 26 27 27 30 33 36 42 45 45 44 47 50 51 51 54 57 61 65 69 71 73 75 78 79 79 83 84 86 89 92 94 96 96 98 102 108 108
26 27 27 27 27 28 30 33 21 30 28 28 29 29 32 36 38 42 45 45 46 50 52 53 52 55 59 64 67 70 71 73 75 77 78 82 86 90 95 98 101 101 103 105 107 109 114 119 120
29 30 30 31 34 34 31 34 24 28 31 31 31 33 36 38 41 44 46 48 51 53 53 54 57 60 64 69 71 72 75 76 78 82 86 90 94 97 99 100 104 107 109 113 117 121 123 126 123
25 29 32 33 33 36 33 35 30 31 33 31 32 34 38 42 44 44 47 51 51 53 56 60 63 66 67 69 71 75 79 82 87 91 94 97 101 104 107 110 112 116 120 125 128 129 130 126 122
21 23 27 31 34 37 36 36 33 34 32 33 36 39 41 42 44 47 49 50 54 58 61 65 68 69 72 74 80 84 89 93 96 98 102 106 108 111 115 118 120 125 131 134 135 134 131 127 117
14 18 20 20 24 29 35 37 32 34 36 36 38 37 40 44 48 50 54 58 62 64 66 69 74 76 80 84 87 92 98 102 105 107 110 115 118 121 125 129 131 136 140 139 135 131 123 112 105
12 12 14 16 18 22 26 33 29 35 33 34 36 40 43 50 54 58 62 63 65 67 71 74 77 82 87 91 93 97 101 105 107 111 116 121 124 128 132 137 141 142 136 133 126 117 110 107 104
17 18 19 20 22 22 26 34 29 30 33 37 40 46 51 55 58 60 65 68 71 72 75 79 82 86 90 94 98 101 107 110 113 119 121 126 131 138 141 141 137 129 124 119 112 109 106 102 95
23 23 25 27 29 29 29 35 34 37 37 41 47 49 54 56 60 64 68 72 74 76 79 84 90 94 98 101 104 108 114 119 122 127 132 137 141 142 137 130 123 117 112 110 107 104 98 91 85

GFSSGP_250_spd_030.txt.gz
Wind_Speed
78 74 74 77 77 74 76 75 72 74 74 74 73 74 72 76 78 81 86 87 86 84 88 92 92 96 104 106 107 110 112 114 116 113 109 106 103 102 105 101 90 81 79 77 69 68 63 64 65
80 80 80 76 78 81 83 75 72 74 78 78 80 79 78 84 83 86 87 88 85 88 92 93 97 103 109 111 114 114 115 116 110 102 103 101 103 98 90 80 73 65 61 56 51 51 51 48 48
77 80 80 74 77 80 84 80 77 79 80 81 79 80 82 84 83 84 88 90 91 93 97 99 104 109 114 117 118 117 119 104 95 97 95 92 84 71 57 50 39 29 27 24 27 28 27 30 33
75 76 77 81 78 81 84 81 80 82 82 86 85 83 84 86 92 91 90 90 95 97 101 107 110 113 117 119 111 103 98 97 94 90 78 57 40 30 27 17 11 10 12 11 10 13 15 17 16
87 80 75 82 78 76 80 79 80 79 79 83 85 82 87 91 86 92 95 98 100 103 106 107 111 113 108 102 97 95 91 85 76 61 45 30 23 19 18 16 17 19 21 24 24 25 22 22 19
87 85 84 84 77 80 77 77 79 77 79 82 82 82 87 90 92 95 97 102 104 104 103 102 101 105 99 92 91 86 79 62 52 36 24 19 17 17 17 19 20 22 24 24 24 23 25 26 27
88 91 86 87 87 89 85 84 84 85 80 81 85 87 89 94 96 98 101 102 102 105 106 110 105 95 88 84 77 62 52 38 24 20 17 16 16 16 18 21 24 25 25 25 24 24 24 25 25
82 88 76 80 81 86 84 91 86 86 88 91 91 93 94 96 97 97 95 98 105 107 105 97 87 77 77 60 52 41 26 23 19 18 19 19 19 21 22 25 26 25 25 25 25 24 24 24 25
75 95 95 91 92 92 91 91 92 93 93 95 97 96 94 94 95 97 102 104 103 101 90 82 77 67 52 41 28 22 23 22 20 19 22 24 25 26 28 27 28 28 28 28 28 26 25 25 25
75 78 87 88 90 91 93 94 96 95 95 95 94 89 89 92 100 101 99 95 91 81 74 68 64 38 32 28 24 23 25 25 24 27 28 28 29 29 30 31 30 30 30 31 30 29 28 28 27
90 86 84 92 93 91 88 84 87 91 90 89 92 92 89 93 95 94 85 80 75 70 62 48 37 30 25 25 28 29 31 29 32 32 35 35 34 34 33 36 34 34 35 32 34 35 36 34 35
87 88 89 92 91 85 89 88 87 88 87 86 86 87 89 89 92 69 66 68 66 49 37 27 24 26 29 32 34 36 38 37 36 41 41 39 38 38 39 39 37 39 39 40 39 39 41 43 43
80 82 82 84 83 84 85 83 83 82 84 90 87 93 88 76 72 66 61 53 44 34 30 25 28 31 34 39 41 41 41 40 40 41 42 43 44 44 41 42 42 43 44 45 45 45 46 47 49
76 77 76 76 76 79 81 82 82 80 80 82 85 78 70 66 59 56 48 40 34 30 27 27 32 36 39 40 37 37 39 39 42 42 42 42 43 43 45 46 46 47 47 48 50 50 51 51 52
68 70 72 75 74 76 74 74 72 82 76 72 62 60 57 38 42 39 37 33 32 30 29 34 35 40 41 41 41 43 44 43 44 43 41 44 48 48 49 48 50 52 55 56 54 54 54 54 56
54 57 56 58 58 62 66 69 73 72 61 55 48 39 39 36 39 28 32 32 34 34 35 36 38 38 43 39 43 44 45 46 43 42 44 50 52 50 55 56 58 59 58 58 60 60 59 61 62
42 43 45 49 54 59 60 54 53 44 38 34 34 35 34 31 27 27 32 34 34 36 33 35 38 41 46 44 47 42 43 44 47 50 50 53 56 59 61 62 62 62 63 64 65 65 63 64 66
38 37 43 46 48 47 42 36 33 31 32 30 30 29 29 29 29 31 32 35 34 35 35 41 41 42 41 39 43 47 49 51 51 53 54 59 61 63 64 65 67 68 67 66 67 69 71 74 75
30 32 33 34 36 34 31 28 28 29 28 27 26 28 31 29 33 31 33 33 34 36 40 45 44 45 45 49 49 51 52 52 55 58 58 63 63 65 65 65 67 69 70 72 75 76 77 80 86
23 23 24 26 29 29 30 27 26 26 26 26 25 29 31 29 30 30 32 33 35 39 44 45 46 48 52 53 53 55 57 61 63 64 63 66 66 68 71 72 75 76 78 82 84 85 86 87 91
23 22 23 25 28 28 28 27 27 27 27 26 27 31 32 31 31 31 34 37 41 45 47 48 50 53 56 56 57 60 62 64 67 70 71 68 70 75 79 80 84 87 89 91 93 94 97 96 96
21 23 25 25 26 26 30 30 25 28 30 29 34 32 31 32 34 37 40 43 46 49 51 52 54 56 59 63 64 63 64 69 72 74 76 77 84 87 90 92 94 95 98 99 101 104 107 110 107
24 25 27 28 29 29 32 35 25 28 33 38 34 34 35 35 35 38 41 44 48 51 53 56 58 59 60 67 68 69 72 75 77 79 83 87 90 93 97 100 102 104 108 110 109 113 115 117 117
24 27 29 31 33 34 36 38 35 27 32 35 40 38 38 39 37 39 43 45 49 53 56 60 62 66 67 67 71 74 77 79 82 85 89 92 96 100 104 108 111 114 117 119 121 124 125 125 127
19 21 24 28 32 36 38 40 37 40 35 28 36 41 39 38 42 44 45 47 49 53 59 65 68 70 71 74 76 78 81 84 88 93 96 100 104 108 111 115 118 121 124 127 129 130 133 132 129
9 12 16 18 21 24 33 36 32 38 36 31 31 34 39 42 45 45 46 50 56 60 62 65 70 74 77 79 81 84 87 91 96 100 105 109 113 117 119 123 125 126 129 130 132 132 129 127 123
11 11 13 14 16 19 23 24 26 29 36 37 36 37 40 44 45 48 51 55 59 62 64 68 72 75 79 82 84 88 95 100 105 110 115 119 123 127 128 130 132 133 130 131 129 129 124 118 115
15 17 19 22 24 27 30 29 27 26 30 34 36 38 42 46 49 52 56 57 61 65 69 72 75 77 81 86 91 95 99 103 109 117 123 127 129 131 133 133 131 132 128 121 118 117 115 112 110
20 22 24 25 25 27 30 39 31 34 32 36 38 41 45 49 52 55 59 61 66 70 74 78 82 83 86 90 94 100 106 114 121 126 129 129 130 132 131 123 121 116 111 109 110 111 110 107 103
21 22 22 25 31 28 30 39 39 40 40 42 46 47 49 53 54 55 58 64 70 74 77 80 83 87 92 98 104 110 116 122 129 131 132 133 131 126 122 119 113 111 109 108 108 108 108 105 100

GFSSGP_250_spd_033.txt.gz
Wind_Speed
76 78 79 77 78 79 73 73 74 75 73 75 72 74 75 76 75 75 78 81 83 86 88 90 90 93 95 97 101 104 105 108 113 111 112 114 111 103 96 105 93 85 70 60 57 50 44 43 45
73 77 80 84 85 85 76 67 65 69 74 74 70 68 75 75 78 77 80 85 85 87 89 91 94 95 99 101 107 111 111 112 110 111 113 104 96 95 93 84 68 57 47 41 35 30 26 25 25
74 81 80 85 85 84 80 78 75 76 78 75 75 77 77 81 82 80 79 86 85 88 90 91 94 95 101 107 110 110 110 112 113 112 100 97 88 81 66 49 33 25 22 16 16 14 12 12 9
76 80 80 83 79 87 87 81 80 81 82 78 73 77 77 83 84 83 82 87 89 90 90 93 95 100 106 107 109 109 110 111 104 90 90 88 69 53 40 24 16 14 14 16 15 14 11 12 13
94 80 81 80 79 81 78 79 83 86 82 69 68 78 75 78 78 81 82 85 87 89 94 95 101 103 103 101 104 108 108 93 87 86 75 61 38 30 21 17 17 17 18 18 18 19 19 16 14
94 92 82 81 85 75 72 77 76 74 77 77 75 76 78 80 81 82 88 88 88 91 96 101 100 96 97 102 104 97 88 85 77 63 44 36 25 20 18 20 21 22 22 23 22 21 21 21 20
93 93 87 88 84 74 73 82 80 74 71 73 75 82 86 87 87 86 88 91 97 102 101 100 100 98 99 101 85 81 77 65 54 38 32 28 25 21 24 24 26 27 27 27 27 27 25 24 21
96 93 79 79 69 74 68 82 79 80 87 82 76 85 91 95 93 95 96 99 97 97 96 97 100 100 98 81 74 69 56 43 34 31 29 25 27 26 27 28 29 29 29 30 28 28 27 26 25
94 84 88 81 76 80 86 83 81 91 78 81 93 90 88 92 94 96 98 95 89 91 98 98 102 86 75 63 60 48 39 34 32 32 34 30 32 29 30 32 33 33 33 33 31 31 30 29 29
92 87 76 76 76 80 78 84 82 81 84 79 86 93 96 97 90 89 88 89 92 94 95 97 84 78 61 53 41 39 36 35 36 35 40 40 41 39 39 38 37 36 38 37 35 34 33 34 34
83 82 76 76 75 78 82 81 77 82 87 92 93 94 90 89 86 87 88 93 95 95 94 78 59 52 43 39 36 37 38 39 45 46 45 47 47 45 45 45 45 43 41 39 40 40 38 38 37
77 80 79 79 72 74 75 77 77 92 99 97 96 100 91 90 90 92 90 92 89 83 75 63 51 41 40 36 37 41 43 46 51 48 44 43 46 46 45 46 44 43 43 44 45 45 45 45 46
75 77 80 79 76 79 79 80 83 84 88 87 88 88 88 89 89 85 84 74 70 59 51 45 38 37 39 40 43 45 47 46 42 44 48 48 49 48 44 42 43 46 48 47 47 48 50 50 50
75 78 79 82 86 89 82 81 80 82 85 84 83 86 88 83 71 70 69 54 48 44 37 40 37 38 38 45 45 45 45 42 42 46 48 50 51 45 43 47 49 48 49 52 53 54 55 53 51
77 77 82 81 84 82 81 85 83 81 82 82 81 75 76 75 76 62 48 42 40 36 37 34 37 40 42 44 46 46 49 46 46 48 47 44 47 49 49 49 50 53 55 58 58 58 58 58 57
71 73 78 78 83 82 84 80 81 78 77 75 73 69 68 69 41 36 44 40 36 36 33 33 33 29 42 41 51 52 45 43 44 44 46 50 52 53 54 56 57 58 61 61 60 60 61 61 61
80 78 80 83 80 79 77 73 68 63 58 58 57 52 49 31 31 34 36 39 39 38 34 28 26 28 30 34 53 48 46 53 52 50 50 51 53 57 61 63 63 66 66 63 63 65 66 66 66
51 53 53 57 58 58 55 53 51 48 44 44 38 34 30 34 33 32 37 39 39 36 29 27 28 33 34 41 50 54 54 57 58 57 58 58 59 62 65 67 67 69 66 64 72 74 74 76 76
39 38 36 40 41 43 40 36 41 34 36 35 33 32 32 33 36 35 35 35 33 35 32 35 38 41 47 51 54 56 58 59 61 62 62 62 64 65 67 70 70 71 72 76 78 79 81 83 88
30 29 32 34 35 34 35 31 36 32 33 33 34 34 34 34 35 34 30 30 34 39 41 43 47 51 52 55 56 59 63 64 63 64 63 66 68 70 71 73 75 77 79 82 87 90 90 92 97
23 26 26 28 30 29 31 29 31 35 30 31 34 36 36 35 37 31 29 31 35 40 44 47 52 54 56 56 61 65 65 66 68 71 72 73 73 74 76 78 81 84 87 91 95 98 101 102 105
24 20 23 23 27 26 30 29 27 34 34 32 37 39 35 38 42 39 38 37 39 43 48 50 53 57 59 60 63 65 67 71 73 75 77 78 81 83 85 88 92 94 97 101 106 108 111 113 113
22 21 21 22 23 28 31 33 27 25 34 35 41 34 31 38 43 42 42 44 46 48 51 55 57 55 56 64 67 69 73 76 77 78 80 83 87 91 94 98 103 107 110 113 116 116 119 119 118
17 19 21 23 25 28 35 35 33 30 30 32 41 43 40 40 39 40 42 45 49 53 57 59 59 61 62 61 65 72 77 81 82 84 86 90 94 97 103 107 111 116 121 124 125 125 124 119 118
11 14 17 20 21 25 27 32 27 23 23 29 34 36 39 41 41 39 42 45 51 55 56 58 63 66 67 70 74 77 79 82 85 88 91 96 101 105 110 114 119 128 130 130 131 132 129 126 121
4 6 7 9 11 16 19 21 25 27 23 20 25 31 33 38 42 41 43 47 50 53 56 59 64 66 70 74 79 84 87 91 93 96 100 104 109 112 118 125 130 134 133 133 132 128 123 117 112
7 10 13 16 20 22 18 22 24 29 30 28 29 30 32 38 43 42 45 49 54 57 58 60 63 70 77 81 85 90 95 96 100 104 110 114 119 122 128 133 134 134 128 124 119 115 112 111 110
13 15 18 19 21 27 29 27 27 29 34 35 35 36 39 44 49 48 50 54 58 60 61 64 68 74 81 87 91 95 100 103 109 114 119 124 128 131 134 132 129 122 118 114 111 109 109 108 106
16 18 20 23 23 24 31 38 32 34 37 40 43 44 46 47 50 51 56 59 59 61 62 67 74 79 84 91 95 100 104 108 116 122 127 131 133 135 132 124 119 115 113 111 108 105 103 102 100
18 20 22 25 30 29 33 40 41 39 44 45 46 48 48 49 52 54 58 60 62 65 69 73 79 85 89 94 99 103 107 113 120 127 130 131 133 128 119 118 117 114 110 106 103 100 97 94 90

GFSSGP_250_spd_036.txt.gz
Wind_Speed
85 85 83 85 89 85 78 77 78 77 74 74 70 69 73 75 76 78 74 73 73 74 77 80 85 87 91 92 93 96 96 97 98 102 106 108 106 107 109 98 98 101 84 69 60 51 42 38 33
80 83 82 88 89 81 81 79 77 76 74 75 73 66 69 68 69 76 74 74 78 81 85 87 90 89 89 93 93 95 95 99 106 108 107 106 105 106 95 93 87 69 54 43 37 31 27 23 20
87 83 86 86 86 78 79 81 79 75 76 78 79 82 82 78 78 82 82 83 83 87 86 89 87 88 89 91 95 98 103 109 106 108 105 105 101 91 86 76 61 43 35 25 20 17 17 16 15
88 84 84 78 76 80 83 80 74 76 76 74 75 80 83 79 80 80 79 80 82 81 84 85 87 88 92 94 97 103 106 102 105 108 106 101 91 78 67 52 41 30 26 24 21 19 17 19 15
92 93 85 73 72 74 80 78 74 77 76 79 80 84 85 83 82 83 83 81 82 83 86 91 90 95 97 100 104 103 105 103 106 102 92 76 70 57 47 36 33 31 26 25 24 24 25 24 22
100 88 87 84 79 73 74 74 76 76 75 77 84 85 80 80 77 76 79 80 82 88 92 92 95 98 99 103 98 97 100 101 98 87 73 62 53 41 34 30 29 30 30 29 29 29 29 26 26
98 97 89 87 83 81 76 72 70 71 72 77 85 82 79 76 77 76 79 84 89 90 92 94 97 98 99 96 97 98 96 89 78 63 53 45 38 34 34 34 34 34 35 34 34 34 34 32 31
100 95 94 91 91 75 80 84 77 74 77 75 75 75 79 83 85 87 90 87 86 92 91 97 96 89 94 95 98 89 78 65 60 51 45 41 36 38 36 37 34 35 38 38 38 39 39 35 34
97 94 95 93 92 81 78 83 82 78 76 80 80 83 86 92 91 88 90 87 83 89 93 91 94 94 96 93 81 71 59 51 45 44 42 44 43 45 44 48 45 46 46 44 41 42 41 38 38
57 79 93 94 94 92 88 80 80 82 81 72 74 81 77 81 83 79 82 86 93 92 92 94 92 93 84 74 65 56 49 46 42 43 45 48 50 53 50 47 44 43 45 46 45 44 43 41 41
61 71 83 80 89 89 88 90 86 77 78 86 83 83 78 80 84 87 89 89 91 94 95 93 89 79 65 60 53 52 45 42 44 47 50 52 51 49 46 47 46 47 45 43 42 42 44 44 42
56 57 67 72 74 80 79 81 76 79 86 80 80 79 76 81 88 86 88 86 92 90 88 74 72 62 58 49 50 46 43 45 50 56 55 52 47 49 49 49 49 48 47 44 45 46 46 46 48
65 64 63 68 75 74 74 79 82 80 74 76 80 78 76 75 77 80 81 84 87 77 71 57 58 48 49 46 43 42 45 47 47 50 52 51 51 49 49 49 45 44 47 49 48 48 51 53 54
65 64 65 64 69 72 74 80 82 80 80 75 73 75 81 81 83 83 84 83 81 71 66 62 48 46 46 44 42 42 37 41 42 46 49 47 46 46 46 47 49 50 49 50 52 54 56 57 57
66 64 66 61 64 71 74 76 76 80 77 80 83 82 83 88 87 84 82 84 58 49 52 49 49 45 37 42 40 43 42 45 41 46 46 50 56 53 52 52 53 55 55 57 58 59 58 59 61
67 71 67 70 69 69 72 79 79 78 82 81 83 84 88 87 91 84 73 56 49 46 44 43 47 38 37 43 42 48 49 47 50 51 52 57 58 60 60 58 58 59 61 63 64 65 66 65 63
64 69 64 71 70 72 69 75 82 77 79 82 82 84 84 83 72 59 51 51 48 46 44 41 41 41 38 42 46 49 53 51 55 56 55 58 59 63 63 63 63 64 66 67 67 68 67 68 69
61 60 75 70 64 70 74 72 74 76 81 80 78 74 66 58 56 48 44 43 43 42 40 39 33 31 33 40 48 52 56 58 61 60 61 62 62 62 63 66 67 69 70 71 72 73 73 74 74
44 50 53 54 58 59 56 52 54 55 51 50 48 47 48 47 45 40 39 40 40 40 39 32 35 36 41 49 53 58 62 62 63 61 61 63 64 65 67 70 72 73 74 74 77 80 82 83 81
33 34 36 36 39 40 37 40 43 41 39 40 39 41 43 42 38 39 40 40 42 40 42 38 39 43 47 52 57 61 65 66 63 62 66 66 68 71 74 77 80 81 80 83 84 86 88 90 92
27 29 34 36 35 33 32 33 33 34 29 33 39 43 43 38 37 39 41 42 43 42 43 46 47 49 53 56 59 64 68 67 67 68 70 74 77 81 83 84 84 85 86 89 91 93 97 101 104
27 27 28 28 28 25 29 26 28 28 30 35 41 44 45 39 41 43 41 39 39 42 46 48 51 54 56 60 64 66 66 68 71 73 77 79 84 87 91 93 94 95 97 99 102 105 110 112 114
23 23 24 23 25 30 24 28 26 27 34 39 41 42 45 46 46 46 45 46 46 46 47 49 53 56 61 65 66 66 68 72 75 78 84 89 94 97 100 102 104 106 109 110 115 118 122 124 125
19 21 23 23 27 27 24 21 22 22 29 30 34 38 43 44 44 46 49 52 52 51 52 53 53 56 60 62 65 68 69 74 77 82 88 93 96 101 104 107 110 113 117 121 124 127 127 128 128
12 13 13 13 13 8 8 9 11 11 12 15 20 23 26 28 32 37 43 46 48 50 54 55 56 58 61 65 68 69 72 76 81 86 91 96 101 105 108 112 116 122 127 129 130 127 123 124 124
2 1 3 6 8 9 13 19 21 19 21 24 27 29 31 34 35 38 43 44 46 50 53 56 58 63 67 69 72 74 77 82 89 95 101 104 106 110 114 118 123 129 131 128 126 126 126 124 121
4 6 10 13 15 17 18 20 21 23 26 28 30 33 36 38 41 43 48 51 52 55 56 58 62 66 69 73 76 79 84 89 96 100 104 109 113 117 121 125 129 126 124 123 122 120 119 117 117
8 11 13 17 20 23 23 23 26 29 31 32 35 38 41 45 46 49 51 53 55 56 58 61 63 66 70 74 79 85 88 94 100 107 112 117 121 124 127 125 120 118 119 117 115 114 114 110 105
11 14 18 21 22 26 31 30 31 34 37 36 37 39 41 43 46 48 49 52 54 56 59 61 64 70 74 77 82 89 94 100 106 113 117 122 126 127 122 122 119 120 118 115 114 108 104 100 95
15 17 20 24 27 28 32 35 37 39 40 41 42 42 43 44 45 46 49 52 55 56 58 63 68 72 76 82 88 95 101 107 112 116 122 126 126 123 122 121 123 123 117 113 108 103 97 91 87

GFSSGP_250_spd_039.txt.gz
Wind_Speed
95 92 93 91 86 87 82 81 82 80 77 78 78 79 79 79 79 76 76 73 73 76 77 77 77 80 84 89 90 94 95 95 95 94 98 101 104 104 104 104 104 106 99 88 75 66 56 52 44
96 96 95 88 88 87 83 83 80 83 78 78 78 79 78 79 77 78 78 77 79 79 81 84 87 89 92 92 94 92 94 95 96 99 103 105 103 102 102 105 101 93 81 75 59 46 41 37 32
98 96 94 88 84 84 83 83 82 83 80 82 82 83 82 84 82 82 78 79 83 86 88 87 89 90 92 91 92 93 93 96 99 101 107 100 102 102 107 100 86 72 67 51 45 41 32 30 26
99 97 94 90 86 81 77 83 85 85 82 82 81 84 83 89 82 86 84 85 85 87 87 84 85 88 94 90 90 93 99 101 101 105 103 99 102 105 95 86 66 61 48 41 36 35 33 30 27
97 99 96 91 82 79 76 78 81 80 77 76 74 74 82 84 82 80 80 82 83 83 86 90 90 84 87 93 96 97 99 98 102 101 101 105 106 94 75 63 58 46 39 37 37 37 36 35 33
87 96 96 91 86 86 78 71 73 74 76 82 82 80 81 80 77 75 82 83 84 84 87 86 85 89 93 93 92 94 95 99 100 101 100 103 85 69 57 52 46 39 39 40 40 40 41 40 39
83 86 94 88 89 87 90 77 74 76 78 76 77 76 76 79 80 80 81 81 81 85 88 87 88 93 87 90 94 94 98 103 104 102 94 75 61 58 52 44 42 39 41 46 47 46 45 44 42
77 81 84 94 94 86 91 88 80 71 72 76 77 79 81 82 80 78 81 84 88 87 84 86 84 87 87 92 96 99 101 99 91 78 69 58 54 50 49 47 44 46 49 50 49 48 47 46 44
71 75 75 81 93 92 97 96 85 81 83 77 75 76 75 75 81 83 88 85 75 78 82 84 89 87 93 96 96 97 94 90 73 63 58 56 54 50 50 49 50 50 46 45 45 46 45 44 44
60 61 66 70 72 85 96 89 82 78 76 74 78 79 81 81 82 81 78 76 82 80 81 84 88 93 93 93 90 89 83 67 59 55 51 52 51 52 51 48 49 48 46 47 46 47 47 43 41
36 51 50 57 62 64 74 89 89 86 84 80 83 80 79 75 85 83 78 84 79 80 85 84 86 85 89 92 88 81 71 62 56 51 51 54 54 52 46 45 45 45 47 47 46 44 43 44 46
40 38 42 52 55 56 63 69 82 74 72 73 77 67 70 69 72 76 79 79 81 82 89 86 85 92 91 85 84 68 59 57 52 51 51 53 50 46 44 41 40 42 46 45 46 48 48 48 47
50 51 49 45 46 50 54 57 61 59 59 64 66 69 68 73 74 76 81 82 84 85 85 84 89 88 86 82 68 61 56 54 57 55 53 47 50 48 49 45 47 53 52 53 51 51 52 52 54
55 51 60 57 53 54 64 64 64 69 65 66 64 69 71 76 78 79 82 83 82 89 88 84 81 73 60 60 54 57 55 54 54 55 50 52 50 51 55 56 53 53 54 53 52 53 54 55 57
49 49 45 52 59 60 62 61 63 60 65 67 72 76 75 73 76 81 84 86 86 85 82 72 68 64 57 54 55 55 56 54 54 54 52 54 56 57 59 57 56 56 57 56 57 56 55 57 59
60 58 53 58 60 58 63 64 66 64 62 65 69 72 74 77 82 86 85 84 85 73 71 62 61 54 52 47 51 56 57 59 56 54 53 56 59 64 63 60 59 60 60 62 62 60 61 63 65
62 63 65 62 64 64 61 63 66 70 67 68 71 73 77 78 81 77 80 74 66 57 54 47 44 46 35 42 53 62 65 58 55 52 56 62 65 67 67 66 65 66 66 65 65 67 68 70 72
57 65 65 65 62 57 65 70 68 66 71 73 75 72 75 73 73 65 63 55 53 53 51 43 38 39 41 54 57 61 56 58 55 59 65 67 68 69 70 69 69 69 70 71 73 74 76 76 76
41 51 59 54 57 56 63 57 62 69 67 58 57 56 52 49 47 46 46 45 47 49 48 31 37 43 47 54 59 57 61 64 66 67 68 70 71 73 73 71 74 74 75 77 79 81 83 85 87
36 37 38 41 44 45 50 52 49 43 41 43 45 47 47 44 41 39 42 45 46 44 48 50 52 56 58 60 62 63 64 67 69 72 73 74 76 74 74 76 77 79 81 85 88 90 91 93 94
32 34 31 30 28 28 30 34 36 36 37 40 41 44 43 38 36 38 41 45 48 50 53 54 54 57 58 58 60 65 68 70 71 73 74 75 76 78 79 82 83 85 88 91 95 98 101 103 103
25 26 27 28 28 27 29 30 31 32 33 36 42 44 39 37 40 42 44 47 50 53 53 55 55 54 55 57 61 64 65 66 67 70 73 76 79 82 85 87 89 91 96 100 103 108 112 112 112
24 25 27 28 28 24 26 26 28 30 33 36 39 43 44 45 46 45 46 48 48 51 50 46 50 52 56 58 60 63 66 69 72 75 80 83 86 89 91 94 97 102 106 110 115 118 119 120 122
21 22 24 24 25 22 21 20 23 24 27 27 27 29 32 32 33 36 38 42 43 44 44 44 50 54 57 60 63 66 69 72 76 80 83 85 89 92 95 100 105 109 114 117 121 124 126 127 126
14 14 12 11 10 10 8 9 11 13 18 22 26 29 32 36 40 41 42 46 48 49 49 50 55 58 62 65 67 69 72 76 78 80 83 88 93 96 101 106 110 115 120 122 125 128 129 128 125
8 6 5 4 3 5 8 12 15 17 20 24 28 32 36 40 45 47 49 51 54 55 56 58 60 62 64 66 69 72 75 77 80 85 90 94 99 103 107 112 117 120 121 122 122 123 122 122 123
6 4 4 7 9 11 14 18 21 22 24 27 32 34 37 39 42 45 49 53 55 57 58 59 61 63 65 67 69 71 74 79 85 89 95 101 105 110 114 116 117 120 120 119 116 117 118 119 117
5 7 9 12 14 17 20 22 24 27 30 32 34 36 38 41 44 47 48 49 51 54 57 59 61 62 63 65 69 73 77 82 89 96 101 106 111 114 118 119 120 118 117 115 113 115 117 115 111
9 12 14 17 20 21 22 25 29 32 34 35 38 40 43 45 46 47 49 51 53 54 56 59 61 64 66 68 73 79 86 91 96 102 106 112 117 121 122 123 124 125 119 117 119 117 112 108 103
14 15 18 20 22 25 27 30 34 36 38 40 42 43 43 44 46 48 51 53 55 57 58 60 62 64 68 74 81 87 92 98 103 108 115 120 124 126 129 129 128 124 119 115 111 108 103 99 94

GFSSGP_250_spd_042.txt.gz
Wind_Speed
96 99 99 93 93 90 87 88 88 81 80 79 80 81 84 82 82 82 83 81 80 78 80 81 81 82 84 86 84 89 90 91 93 92 91 94 96 102 102 96 100 102 104 108 94 77 76 58 46
93 95 95 94 90 88 90 88 83 80 82 81 81 85 84 83 84 86 85 83 80 81 83 82 85 84 87 91 88 90 89 90 91 91 93 95 100 104 98 98 104 101 104 88 78 71 56 40 39
91 91 91 92 90 89 92 87 81 79 80 81 81 80 80 81 83 83 85 84 82 81 82 84 83 86 90 91 88 90 89 93 92 93 99 100 100 98 97 103 102 106 90 74 68 54 42 38 36
88 90 90 91 88 90 91 90 86 81 77 77 79 79 77 76 77 83 83 82 83 84 84 82 85 88 90 87 88 88 92 94 95 98 96 96 95 98 98 97 100 91 75 66 56 46 42 39 36
82 85 88 87 83 88 90 87 86 84 79 77 79 82 82 84 85 86 85 83 85 83 84 85 88 85 83 88 87 89 93 89 92 88 94 93 98 101 98 98 89 73 65 55 50 46 45 42 43
78 78 84 85 83 84 91 90 89 83 79 82 78 78 79 83 85 82 83 87 87 86 84 85 86 85 87 87 90 86 84 88 92 91 98 96 98 96 99 82 69 63 53 49 46 47 50 49 44
71 73 78 81 79 80 88 90 87 83 79 79 79 78 78 79 76 78 81 82 82 83 83 84 84 86 87 89 82 84 88 90 92 97 95 97 94 92 81 74 63 56 50 50 48 46 47 44 40
68 66 75 77 77 74 76 88 92 89 82 82 72 72 75 76 82 84 85 86 82 81 82 86 86 86 90 82 84 86 88 89 94 93 94 95 88 77 70 60 57 52 51 45 43 42 42 43 42
61 62 64 68 68 68 69 73 92 93 86 79 76 73 72 72 74 74 77 76 83 81 83 83 83 82 81 83 87 89 87 91 88 91 87 84 69 65 63 57 51 51 47 46 43 42 43 43 43
50 53 55 59 64 65 70 70 79 88 90 80 82 80 78 76 78 79 84 85 83 87 84 82 82 80 83 86 86 89 90 91 86 77 71 72 62 64 59 57 53 47 43 39 36 40 44 44 44
44 47 41 40 49 62 66 70 71 72 80 86 80 82 79 74 76 73 77 76 79 77 80 85 80 82 81 85 86 92 89 82 70 65 63 61 62 63 61 57 56 47 47 43 43 48 48 47 45
38 43 49 47 49 52 54 56 60 65 66 72 70 67 69 74 70 73 83 80 73 72 74 78 82 82 83 88 91 88 76 67 62 60 61 60 63 61 61 55 52 50 51 50 51 52 50 51 49
33 30 32 30 34 44 43 47 48 52 54 56 55 56 54 64 67 69 70 69 69 69 76 80 81 85 84 85 78 70 62 60 60 63 64 61 61 59 59 54 50 51 52 55 58 55 53 55 55
38 40 33 32 29 35 46 46 45 43 46 50 50 53 53 58 64 65 70 78 81 74 76 80 85 85 84 74 74 63 62 59 60 62 62 61 61 60 63 59 55 55 56 60 62 60 57 57 58
44 37 35 35 39 40 42 41 41 43 45 48 50 55 56 65 70 73 76 75 76 78 78 83 88 80 69 62 58 56 58 62 64 63 63 64 61 60 62 59 58 60 63 65 65 64 62 62 63
40 45 38 46 44 45 48 49 50 50 53 58 61 64 63 70 71 72 74 78 76 79 78 79 74 62 57 52 51 54 52 58 65 70 65 64 65 62 58 60 63 67 69 68 68 69 67 67 68
44 44 42 43 46 50 47 48 52 57 62 61 61 66 66 69 74 77 74 78 77 70 68 63 47 38 44 45 44 45 55 60 67 68 69 71 67 65 64 69 73 73 73 73 73 74 71 73 73
34 44 52 51 49 52 56 55 56 58 61 63 65 68 69 71 70 65 60 57 54 52 51 49 38 37 32 43 42 55 65 70 70 72 72 74 73 75 75 74 75 77 77 78 79 78 79 80 80
33 34 37 43 52 55 55 60 63 60 64 61 62 60 60 55 49 49 47 46 46 47 47 43 30 39 44 64 58 57 64 67 72 76 78 76 75 76 76 77 77 77 79 81 80 83 85 86 85
33 36 39 37 42 45 48 52 55 54 50 46 46 45 43 42 44 42 43 43 43 39 34 43 44 48 54 57 60 65 70 72 74 74 73 74 75 76 77 78 79 80 81 83 86 88 89 91 93
27 28 31 33 35 39 40 41 42 39 37 37 35 35 36 36 35 34 39 42 44 47 51 55 57 59 60 63 65 68 72 74 74 72 72 73 75 77 79 81 82 84 87 87 89 92 95 95 98
23 23 25 27 29 30 31 33 35 34 34 35 36 38 38 36 36 38 44 47 49 51 53 54 56 58 60 62 63 66 68 67 67 69 71 74 78 82 83 85 85 86 89 93 97 100 102 103 104
21 22 22 22 23 23 25 26 30 31 33 33 34 35 36 35 29 30 32 34 37 41 44 46 47 48 51 55 59 62 65 68 71 74 76 77 79 82 85 85 87 92 96 100 104 108 111 112 114
18 19 20 20 21 23 24 25 30 29 29 29 28 25 27 30 31 34 36 38 42 45 47 49 51 54 56 58 61 64 67 70 72 74 76 77 80 81 85 90 95 100 105 108 112 115 120 121 123
20 20 20 20 22 20 20 20 20 19 18 21 24 27 31 33 37 39 42 46 48 50 53 55 57 59 61 61 62 65 68 70 72 74 76 79 84 89 94 98 103 107 112 115 118 120 122 123 124
18 15 12 10 9 8 8 10 14 17 20 23 27 31 35 38 41 43 46 48 50 53 55 56 58 60 62 62 64 67 69 71 74 77 80 83 89 95 100 105 109 112 115 119 121 122 120 119 120
9 8 9 7 7 8 10 13 16 21 24 28 31 34 38 41 43 45 48 50 51 52 54 57 59 61 64 65 68 70 72 75 77 79 84 89 96 101 107 111 113 118 120 119 119 118 117 118 120
7 8 7 7 9 11 15 17 20 22 25 29 33 37 40 43 47 49 51 52 55 58 60 61 62 64 65 66 67 70 72 75 78 83 90 97 102 105 108 112 116 121 120 119 120 120 116 115 114
8 7 9 11 12 15 19 20 23 25 29 33 35 39 43 46 50 53 53 54 56 58 60 60 61 62 62 64 66 69 72 78 85 92 100 104 106 109 115 117 116 118 117 118 117 114 111 108 103
9 11 13 16 18 20 22 27 29 31 33 34 36 40 43 45 47 49 51 53 54 56 57 58 59 61 62 65 68 74 80 87 94 100 103 105 109 115 121 120 120 119 114 112 108 102 99 95 91

GFSSGP_250_spd_045.txt.gz
Wind_Speed
96 93 93 90 90 93 94 91 88 88 89 88 86 82 83 84 83 84 83 82 82 83 82 82 78 79 82 81 81 81 85 88 87 86 88 86 85 88 91 86 97 93 87 93 94 91 90 79 72
97 95 94 89 90 92 95 92 90 87 87 91 89 86 85 80 81 84 85 84 85 85 84 82 82 81 82 83 83 84 86 84 87 89 89 88 86 90 89 93 89 87 90 95 93 89 74 67 57
91 91 90 91 89 90 93 92 88 87 86 89 89 87 84 81 82 79 82 82 83 80 83 84 84 85 86 86 86 86 85 88 90 91 89 87 90 90 94 88 86 93 92 91 85 78 63 60 46
89 85 86 86 89 86 89 88 90 87 84 83 85 83 80 78 76 75 80 86 85 84 84 83 84 82 83 88 89 89 90 91 90 88 89 90 88 90 90 91 98 89 89 79 79 67 64 51 46
76 79 78 77 85 84 86 84 85 88 85 86 85 82 82 77 71 71 72 76 79 81 82 83 81 86 89 89 91 90 89 90 89 92 86 92 89 89 90 93 87 87 79 80 68 62 55 49 43
69 71 67 69 76 82 84 82 79 83 87 86 86 83 81 82 82 76 77 79 80 80 79 81 86 89 91 89 91 91 92 87 87 88 96 87 90 92 88 84 91 81 79 71 61 55 49 40 37
59 59 59 62 69 73 77 79 78 77 83 88 89 84 81 79 75 75 74 77 79 84 85 83 81 86 86 86 90 89 87 86 88 94 89 90 95 87 86 88 86 75 71 65 58 50 43 37 34
54 56 54 59 62 68 71 73 79 79 81 87 90 89 85 78 75 80 82 82 78 75 75 80 83 82 83 85 87 88 87 87 87 83 89 82 83 86 89 82 75 69 66 58 55 47 38 31 30
49 49 48 55 61 66 68 71 72 75 75 76 81 84 87 83 75 75 71 67 69 73 76 76 79 84 81 83 85 86 82 85 82 87 85 87 85 84 73 73 69 61 59 56 49 41 40 38 38
38 43 45 50 54 55 62 61 64 69 70 67 69 74 71 75 70 65 63 67 72 73 73 79 79 82 74 73 71 81 80 78 82 86 81 79 76 71 75 67 63 61 57 55 48 42 42 44 41
33 33 34 41 45 44 45 59 59 63 65 64 63 64 62 69 73 69 70 70 71 75 75 81 78 74 79 83 79 79 82 84 79 81 72 63 69 69 66 63 62 61 59 54 48 46 44 44 46
27 29 32 35 36 42 42 44 54 55 57 53 55 58 65 66 71 72 70 70 73 69 72 67 66 78 75 73 76 79 82 79 80 69 63 69 68 64 63 61 60 60 58 54 51 50 49 51 52
27 29 32 37 40 38 38 41 40 46 51 53 55 60 62 67 69 66 63 59 62 65 58 65 70 77 76 81 80 76 73 75 67 67 65 65 65 64 58 58 55 58 57 57 53 52 53 56 60
27 30 32 34 32 34 34 36 37 40 40 40 46 50 55 58 59 54 54 55 56 60 66 70 75 79 82 85 78 72 71 67 61 59 61 62 61 61 64 60 59 57 59 57 55 56 59 64 69
28 28 35 33 38 31 30 29 32 36 40 41 39 42 43 47 47 49 53 55 58 62 67 72 78 74 78 75 70 63 59 57 57 64 66 63 60 64 68 69 71 69 70 68 65 67 68 71 71
31 30 28 24 23 21 22 20 24 32 37 40 44 48 49 50 52 54 55 58 63 68 65 68 72 72 69 59 55 48 51 59 59 62 60 55 63 68 72 76 77 78 80 77 74 74 72 72 73
29 30 29 33 33 30 30 34 37 40 41 42 45 48 50 55 56 59 63 64 69 69 69 63 58 54 48 43 43 44 45 46 53 55 58 56 67 74 79 77 82 83 82 80 79 78 77 76 77
23 31 41 39 38 37 40 42 41 43 46 49 52 54 55 57 59 63 64 67 62 56 55 58 49 43 36 38 41 50 53 54 60 59 65 69 76 81 84 87 85 87 86 84 81 80 79 79 80
20 21 28 31 40 43 42 45 45 48 52 57 54 58 59 60 58 53 50 51 54 51 48 45 43 28 29 52 57 62 61 65 66 73 73 78 81 84 87 87 88 86 81 79 80 82 83 85 85
24 25 23 23 30 40 44 47 47 49 47 45 48 50 56 49 52 48 44 45 43 43 45 47 48 40 44 54 61 63 64 63 70 75 80 83 84 84 82 79 79 81 82 83 83 85 87 89 90
27 25 26 29 30 32 33 35 35 36 43 48 40 43 45 43 43 40 40 41 43 42 43 43 42 44 48 52 54 55 57 61 64 68 71 74 75 76 79 81 81 82 83 85 86 87 87 87 90
26 26 26 26 28 29 30 32 33 37 40 37 36 35 34 36 36 34 31 34 34 35 38 41 42 44 46 51 54 57 60 63 67 69 72 73 75 77 78 79 80 82 83 84 85 89 93 97 101
22 24 25 24 25 28 30 31 32 30 29 29 30 30 31 29 26 26 30 34 37 39 42 44 46 49 51 54 56 59 60 61 63 65 68 70 72 74 76 79 80 81 83 87 93 99 104 107 110
22 20 21 23 25 26 26 27 26 25 25 25 24 21 20 24 27 30 34 37 41 43 46 48 51 53 56 59 60 62 63 64 65 68 70 71 72 74 75 76 80 86 92 97 103 107 108 111 113
18 20 22 23 21 21 23 22 21 19 15 14 17 21 23 26 30 34 38 42 45 47 50 52 54 56 58 60 61 62 63 65 67 68 67 68 71 75 79 84 90 96 101 105 105 106 107 111 116
13 14 15 16 16 13 9 6 7 10 14 18 19 23 26 30 34 38 41 44 48 52 55 57 58 59 61 62 63 64 65 66 67 66 68 72 77 82 88 94 99 103 107 107 109 109 114 114 116
14 14 14 12 8 6 7 9 12 14 17 20 24 27 30 33 36 39 42 46 49 51 54 56 58 59 60 62 63 63 63 64 67 70 74 79 84 90 94 101 104 106 107 110 111 112 115 115 115
14 14 12 9 8 9 10 12 14 17 20 23 27 29 31 35 38 40 43 45 49 53 54 56 57 57 58 59 60 62 64 66 71 75 80 86 91 95 99 102 105 109 113 111 112 114 116 111 107
12 11 9 8 8 10 12 14 17 20 23 25 28 31 34 38 41 43 46 52 56 57 55 55 55 57 58 58 58 60 64 69 74 80 86 92 96 99 101 104 108 109 109 112 114 112 109 104 98
12 9 8 8 10 13 16 18 20 23 24 26 30 33 37 42 44 45 50 55 57 57 55 55 56 56 56 58 60 66 72 78 83 89 94 101 100 101 105 107 108 113 116 116 112 107 100 95 90

GFSSGP_250_spd_048.txt.gz
Wind_Speed
93 94 93 91 87 88 89 87 86 88 89 86 85 82 84 82 84 85 83 80 81 83 84 83 83 82 83 86 80 79 78 79 80 81 85 83 87 87 88 88 88 88 86 88 92 90 87 82 84
93 93 93 92 91 89 90 86 87 88 87 86 83 82 85 85 86 86 84 84 85 83 84 85 84 81 80 77 81 85 84 84 86 85 87 90 89 88 85 90 87 87 91 85 86 87 79 83 81
92 92 93 91 90 91 89 87 87 87 87 83 83 82 82 85 87 85 85 87 86 85 84 79 78 78 78 77 79 81 87 88 88 88 89 89 88 91 93 91 87 90 86 83 87 77 78 74 72
86 90 90 85 88 86 88 87 88 84 85 82 82 86 82 86 84 85 86 87 90 90 88 87 87 88 88 85 89 82 85 87 86 90 88 90 89 92 86 90 87 85 81 83 78 79 76 64 62
78 82 83 82 84 82 83 82 80 82 83 81 83 85 86 88 85 80 80 83 87 90 87 85 88 83 83 87 83 88 87 87 90 87 92 88 90 94 90 87 86 82 82 80 79 74 61 60 50
70 74 74 77 79 76 74 77 74 78 81 82 83 83 87 87 84 81 79 79 78 79 80 80 78 78 75 82 85 82 83 81 86 85 84 92 90 85 85 81 75 78 81 75 71 60 56 54 46
62 64 60 64 67 64 67 71 73 74 78 82 82 80 82 86 88 82 81 78 76 73 73 72 72 78 85 78 81 77 80 79 84 85 87 83 78 80 75 73 79 82 75 74 63 56 53 51 41
53 52 53 55 59 60 63 64 67 69 74 78 80 79 78 79 79 88 82 78 80 82 82 79 81 77 75 77 76 74 75 78 88 85 86 77 75 74 80 80 74 75 70 64 58 51 49 48 41
47 48 50 51 54 55 58 59 65 67 70 75 77 76 78 76 80 83 87 81 74 76 79 77 72 70 66 67 71 74 78 81 75 72 75 76 77 77 75 74 75 72 68 60 54 48 47 47 40
39 42 42 44 51 55 56 57 62 64 66 70 73 73 75 76 76 74 77 77 79 73 66 67 60 63 66 72 75 75 75 70 71 73 80 78 76 79 74 73 66 67 66 52 47 46 45 42 42
30 32 34 38 42 47 50 53 57 59 60 66 67 65 65 66 66 67 66 62 61 60 59 59 63 65 68 65 65 65 67 67 78 81 80 80 80 70 69 59 58 62 60 49 47 45 47 45 44
25 27 28 33 37 40 40 40 46 53 55 56 56 56 58 62 62 60 58 55 57 59 60 60 62 61 65 69 66 70 73 79 81 80 78 77 77 72 70 62 59 63 55 52 51 49 51 49 49
25 26 28 31 31 35 36 38 36 43 47 47 48 47 48 52 51 53 57 61 65 66 70 68 68 67 66 68 73 75 76 80 82 81 80 79 73 66 65 67 69 59 61 59 56 59 56 58 59
26 26 26 29 32 32 31 35 33 34 36 35 37 46 47 46 49 54 56 59 65 69 70 69 61 62 67 68 70 74 77 78 80 74 71 66 64 64 66 71 69 65 68 67 69 72 70 69 69
27 25 26 26 27 33 31 35 34 35 31 30 32 35 36 38 41 43 43 43 48 52 55 57 62 68 70 69 73 74 76 72 64 61 62 61 65 65 70 69 73 71 70 74 77 80 84 84 78
25 25 30 29 30 30 33 32 26 30 30 33 35 35 33 37 37 41 42 46 51 56 60 63 64 65 70 71 68 62 54 50 56 56 58 59 58 64 67 67 68 69 71 77 85 89 91 91 85
23 24 25 31 32 31 33 33 31 31 28 29 30 30 32 34 38 44 50 51 53 57 60 65 68 66 65 63 61 55 46 48 59 62 57 65 62 64 73 74 76 80 84 87 89 94 96 91 83
17 26 24 26 30 25 22 21 22 18 29 37 30 35 40 45 49 51 53 57 58 63 64 63 63 63 60 49 32 38 50 50 56 61 60 67 73 78 82 84 88 90 91 95 94 96 85 85 86
14 24 28 30 30 27 25 28 33 36 33 34 40 46 48 49 52 56 57 60 66 61 58 54 49 47 43 41 39 51 58 62 63 69 74 78 80 85 82 84 92 93 90 85 86 88 89 90 89
26 27 25 29 37 38 38 40 38 39 40 46 49 49 48 50 47 48 49 51 50 51 47 47 47 45 41 40 40 50 54 63 72 70 73 75 75 77 77 78 80 81 82 83 84 84 86 87 85
23 24 26 27 27 35 38 41 47 49 48 46 48 52 50 50 49 42 43 43 43 44 42 39 37 38 40 41 44 47 52 56 60 64 67 70 73 75 76 77 79 80 82 82 84 84 84 84 86
26 26 26 27 27 30 31 32 33 35 35 36 36 38 40 38 35 36 35 36 34 33 35 36 40 43 46 48 51 54 57 60 64 66 69 70 73 75 76 78 79 79 79 81 82 83 87 90 94
25 27 28 28 29 29 30 31 30 29 31 32 32 33 33 31 29 26 24 27 31 35 38 41 44 48 50 53 56 58 61 63 65 67 69 71 73 75 75 75 73 74 77 82 87 91 95 99 102
23 24 25 25 26 28 27 28 26 27 28 29 27 25 21 19 21 24 27 31 35 38 42 45 48 51 54 57 60 62 64 66 67 68 69 69 69 69 69 72 75 79 83 87 92 96 101 103 106
19 19 23 26 26 24 24 24 23 22 20 16 13 13 16 19 23 27 30 34 38 40 42 44 47 51 54 57 59 61 62 64 64 66 65 64 63 66 71 76 81 86 91 95 99 99 103 105 108
20 22 22 21 19 20 21 17 13 9 9 12 13 15 18 22 26 30 33 35 38 41 43 48 53 57 58 58 59 60 61 62 63 63 61 63 67 70 80 84 86 95 95 97 100 102 104 106 109
24 21 19 19 18 16 12 10 9 9 11 13 15 18 21 25 28 30 35 39 40 42 47 51 55 58 59 60 61 62 61 60 60 62 64 70 76 79 88 91 97 98 98 99 100 103 107 111 114
18 15 14 13 13 13 11 8 9 12 14 16 19 21 21 24 27 33 36 39 42 45 49 53 55 56 57 57 58 59 59 58 61 64 72 77 81 87 93 99 99 99 99 99 103 106 108 110 109
15 12 13 13 11 10 10 11 14 16 18 20 20 20 24 27 32 33 36 42 46 49 53 56 59 60 61 60 59 59 61 63 67 72 77 82 88 94 99 99 100 99 100 103 108 108 107 105 102
18 17 16 13 12 13 14 15 18 20 22 22 23 26 30 33 37 38 45 47 50 55 57 60 61 63 65 66 66 66 68 70 73 79 82 89 95 101 101 103 100 102 103 105 107 106 103 100 96

GFSSGP_250_spd_051.txt.gz
Wind_Speed
94 95 95 95 95 93 92 89 89 81 80 82 85 91 88 84 75 74 77 77 81 83 84 84 85 85 83 81 80 80 74 77 82 81 81 84 82 84 85 83 85 89 88 88 90 91 88 88 83
92 92 92 95 94 92 92 88 90 81 85 77 83 87 88 81 80 80 80 75 74 74 77 82 88 85 84 83 77 79 76 81 81 84 85 87 85 86 85 88 90 90 91 89 95 87 85 81 78
84 88 90 90 88 90 94 96 86 82 81 77 81 85 86 87 80 76 76 79 75 76 73 74 81 84 80 80 82 78 83 87 86 88 86 89 88 88 89 93 89 90 90 93 83 79 78 73 74
77 81 87 85 87 91 92 94 86 85 80 77 80 83 83 80 79 78 72 66 70 72 69 67 71 76 73 79 83 86 84 86 86 89 89 87 87 90 93 88 85 90 88 77 78 71 70 72 77
65 72 75 83 83 88 84 90 82 81 78 76 75 78 78 77 77 76 75 73 79 71 79 85 87 84 84 84 86 80 81 80 90 83 81 87 85 89 85 84 87 78 76 69 68 74 74 77 69
57 63 63 71 81 82 82 73 76 78 82 77 74 78 78 75 74 67 70 69 61 75 79 79 83 84 79 81 78 77 86 81 77 84 82 81 78 81 81 84 70 65 67 73 76 75 76 70 60
51 53 57 63 70 68 69 55 50 65 78 74 72 72 77 73 74 68 69 74 75 84 80 82 82 76 74 72 65 75 76 79 71 77 69 75 80 84 83 72 70 71 73 73 70 72 72 61 54
48 50 52 56 57 55 57 50 64 61 68 70 73 72 73 73 74 71 66 52 66 46 56 62 58 61 62 64 66 66 61 71 72 71 76 75 75 74 66 74 74 76 75 75 70 71 66 53 48
48 49 50 51 48 46 48 58 68 68 68 68 70 66 66 69 68 64 58 65 58 67 63 63 72 76 75 73 72 68 66 64 68 72 76 70 69 71 76 81 78 77 73 71 70 67 57 48 43
43 44 47 41 31 20 40 52 59 61 62 63 66 68 67 66 67 69 75 73 64 65 68 68 73 76 77 70 67 66 62 63 72 72 73 74 78 76 82 78 75 68 68 66 60 55 55 48 43
33 36 36 35 37 40 54 55 51 53 49 55 61 62 55 60 60 63 70 68 71 74 75 74 74 72 73 62 63 64 64 65 69 74 80 80 80 76 71 62 61 60 67 64 64 58 56 54 52
24 25 29 30 37 49 45 43 43 47 53 54 54 56 53 54 55 58 62 67 68 69 70 71 70 59 58 58 54 61 66 71 72 74 79 82 66 47 51 54 60 63 68 64 60 57 55 58 55
25 26 30 26 33 33 31 31 39 41 46 47 45 43 44 44 45 50 55 59 62 68 66 62 63 63 63 65 65 64 69 73 73 77 72 65 57 57 54 56 68 71 67 67 65 66 68 60 59
24 29 28 29 30 30 29 31 33 33 28 26 29 32 37 38 39 42 44 49 53 55 61 63 66 70 72 71 73 72 73 70 74 77 76 70 69 67 66 70 70 74 72 72 71 75 68 64 62
28 28 27 29 30 30 34 35 31 28 30 24 23 21 22 26 30 37 44 47 49 55 60 62 65 61 60 64 64 66 67 70 73 69 66 60 67 67 70 72 72 74 75 71 69 68 67 67 83
31 26 25 26 25 24 25 28 26 24 22 28 30 26 24 27 31 35 40 42 39 46 52 52 52 56 62 66 67 67 70 62 56 57 61 61 63 65 68 69 73 74 69 65 66 70 77 89 96
25 25 24 23 25 23 24 26 24 25 24 29 30 29 29 33 36 39 35 39 45 46 49 51 53 57 59 61 67 69 70 65 57 62 60 55 56 63 67 67 67 75 79 79 85 88 94 90 88
23 21 21 21 24 21 24 26 27 29 30 31 32 32 29 31 32 35 38 44 51 51 56 60 61 64 66 72 70 65 61 58 58 62 61 66 66 70 74 77 81 84 88 93 96 98 94 88 85
17 17 19 19 20 24 26 22 21 23 27 20 28 29 33 35 32 47 51 50 52 55 60 63 65 67 63 58 55 53 53 54 59 62 64 68 76 82 84 83 85 91 85 87 90 88 87 87 87
16 18 26 23 22 25 29 23 21 27 33 35 35 37 43 46 46 48 51 52 54 59 62 60 56 53 51 49 45 44 45 49 53 55 59 66 75 76 76 77 77 80 82 80 82 85 86 85 81
21 26 30 29 28 29 29 35 35 37 41 40 40 40 42 43 46 53 56 58 62 58 53 47 45 41 39 41 44 46 50 53 57 60 63 67 70 73 76 78 80 81 82 82 78 73 73 78 81
27 30 26 29 34 36 38 41 44 43 41 45 49 48 52 55 56 48 48 48 44 42 37 35 36 38 41 44 47 51 55 58 62 65 68 70 74 75 77 77 77 76 73 70 70 75 81 84 88
24 22 29 35 35 35 34 33 34 35 37 37 39 39 40 41 40 40 38 34 32 31 32 35 38 42 44 48 51 55 59 63 65 68 69 70 71 71 72 71 68 64 68 73 78 82 89 93 98
25 26 28 29 32 32 31 32 33 33 34 34 34 35 36 35 32 27 27 26 27 31 34 38 40 43 46 50 54 57 60 61 63 65 66 67 66 66 65 64 66 69 74 80 84 90 97 100 103
28 29 29 29 29 29 29 29 26 30 30 31 31 30 25 20 21 21 22 25 29 32 37 40 42 44 48 51 54 56 58 59 59 61 63 63 64 64 64 68 70 76 79 85 92 98 100 102 104
30 27 24 23 24 23 25 26 26 26 27 24 18 17 17 17 18 21 23 25 30 35 36 39 41 44 46 50 53 56 57 59 62 63 63 65 68 70 71 73 77 81 86 92 99 103 103 102 101
22 21 20 21 23 25 24 23 22 18 16 15 15 15 17 19 19 21 25 27 32 32 38 42 42 44 46 51 54 58 62 64 66 67 68 68 69 72 74 76 80 88 93 100 104 104 103 103 104
22 23 23 23 22 21 18 18 17 17 16 15 16 18 20 20 21 25 28 33 35 38 44 45 46 49 54 58 62 65 69 71 73 74 73 74 76 75 77 80 87 93 99 105 108 106 104 106 108
23 24 24 22 19 17 17 17 17 16 16 18 20 22 23 24 28 32 34 37 39 43 48 51 55 58 61 65 69 72 76 77 79 77 77 78 80 81 82 87 94 99 105 111 109 107 107 109 112
23 23 22 20 18 18 18 17 17 19 20 23 24 27 28 30 34 37 40 43 47 50 55 59 63 66 69 72 76 77 81 84 86 81 81 84 85 85 88 93 101 106 112 112 109 110 110 110 106

GFSSGP_250_spd_054.txt.gz
Wind_Speed
87 88 95 97 96 96 94 92 95 92 86 84 81 79 75 73 75 79 79 75 79 81 81 81 78 80 80 82 81 83 84 81 80 83 81 79 73 76 82 84 85 87 93 88 90 93 90 89 87
77 81 85 90 92 90 90 97 97 87 88 82 77 66 67 72 81 76 82 85 78 76 74 77 79 80 82 79 80 84 84 82 80 80 77 76 82 85 82 89 87 87 91 90 89 87 89 91 87
71 73 72 77 81 84 89 94 92 85 78 75 74 68 71 71 72 78 76 72 73 68 70 73 76 78 79 75 72 72 74 72 70 74 76 81 82 89 86 91 88 88 90 93 86 83 82 83 70
64 64 67 67 73 76 83 88 78 67 67 77 68 71 71 70 64 63 71 72 68 66 73 74 78 75 63 67 67 68 73 71 77 79 79 85 80 87 88 87 85 80 92 79 78 83 78 67 64
60 57 57 60 64 70 78 75 67 66 79 78 65 61 78 77 70 71 70 66 63 59 62 65 67 60 56 61 67 73 78 75 80 80 74 76 81 73 85 81 77 82 78 80 81 73 65 65 72
58 56 54 55 59 65 69 68 45 46 65 79 80 78 73 73 72 73 65 67 61 48 53 66 68 71 67 67 76 75 74 75 72 74 67 69 73 72 73 78 78 80 74 76 71 69 69 70 69
54 51 48 53 56 56 60 50 48 61 52 61 66 74 70 64 62 67 58 54 61 65 70 65 46 52 56 67 67 68 63 68 66 67 66 71 71 74 79 76 81 75 75 70 70 72 70 64 63
47 47 47 50 50 54 39 28 34 45 41 59 60 60 60 56 50 61 60 56 62 59 59 57 59 65 69 71 66 58 63 56 66 68 65 71 73 75 78 76 78 83 74 71 75 70 62 65 62
44 45 46 45 44 42 29 28 26 38 43 52 57 58 52 48 44 51 60 55 45 52 60 59 60 68 55 61 59 57 59 67 71 68 75 76 78 84 78 80 80 75 72 80 75 65 63 59 66
39 42 45 45 42 32 24 25 42 43 25 36 42 42 36 44 46 34 50 52 55 65 67 69 60 58 65 64 62 66 69 71 74 73 73 79 83 76 81 79 74 79 79 74 68 66 65 66 66
35 38 43 40 36 30 39 36 35 39 52 42 44 55 53 51 51 36 42 46 47 60 75 70 71 75 76 69 66 69 75 77 72 73 78 77 78 79 82 75 74 66 63 64 67 71 71 59 61
27 32 34 27 33 35 47 46 50 48 60 61 64 67 60 57 51 35 44 44 63 60 55 58 60 66 70 75 79 77 74 74 72 68 72 75 76 76 75 74 67 64 66 68 72 71 71 68 62
25 25 24 25 27 39 52 49 59 60 54 51 49 54 53 41 32 35 41 57 62 70 72 70 75 76 72 74 75 70 74 71 68 68 70 73 76 74 72 74 76 75 79 78 78 77 71 68 64
26 23 23 22 27 35 48 51 52 49 46 39 36 28 23 29 31 30 41 56 57 60 62 63 65 68 78 81 80 81 74 76 78 77 79 78 78 81 82 83 85 86 87 82 79 75 69 69 68
26 26 23 25 26 29 38 45 46 42 32 27 27 18 16 21 29 40 42 41 41 45 45 46 51 53 61 65 69 72 77 71 68 75 78 79 81 85 86 88 89 85 82 79 76 68 70 74 73
22 23 21 26 30 30 30 28 29 27 26 24 24 16 18 20 23 28 28 38 39 42 47 51 53 52 56 60 62 61 62 70 68 74 76 78 84 84 82 79 79 79 77 77 77 77 78 78 82
30 29 24 26 28 28 28 22 26 27 19 15 17 18 19 21 29 31 32 35 35 41 45 47 49 58 58 60 59 63 69 72 72 76 75 74 71 71 71 74 78 77 77 78 82 87 90 89 91
28 25 21 22 22 22 19 16 20 23 17 17 22 24 24 31 33 33 37 40 44 46 39 41 43 55 58 59 63 66 70 72 70 72 70 67 67 64 66 72 76 79 80 81 85 89 93 88 84
23 20 18 19 23 24 19 13 18 19 16 25 30 30 32 35 36 34 29 28 35 40 53 60 59 55 58 61 65 66 64 62 61 60 58 59 62 65 69 71 74 78 81 80 82 81 81 82 79
22 16 13 18 20 21 21 21 23 24 27 30 28 30 24 25 29 34 37 42 45 52 58 55 57 58 60 65 66 61 59 55 53 56 59 61 64 68 69 73 74 74 77 77 76 76 74 71 66
20 18 21 23 21 23 24 23 24 23 21 25 25 31 38 38 42 44 48 49 48 48 52 56 61 64 61 56 54 48 49 51 52 55 59 62 63 63 64 66 67 69 70 71 71 69 67 66 70
17 20 17 26 26 25 24 26 29 31 34 40 41 44 40 43 48 46 49 51 53 55 60 56 52 51 46 43 45 46 47 50 53 56 57 58 61 62 64 66 68 69 69 69 70 71 72 72 74
22 22 16 26 28 28 30 31 29 30 35 37 40 43 47 46 49 52 48 48 46 47 46 43 40 39 40 41 43 46 47 48 50 52 53 56 58 60 64 67 68 68 70 72 75 77 80 80 81
18 14 17 24 30 33 36 29 36 37 33 36 37 40 40 39 39 39 40 41 42 37 35 34 34 35 37 40 41 42 46 47 52 57 61 64 67 68 71 68 66 67 69 72 74 75 80 84 84
23 21 24 28 30 31 33 34 29 34 32 35 36 36 35 35 37 39 36 31 30 32 31 31 33 34 38 40 42 45 51 52 56 59 66 69 73 75 77 75 72 72 75 76 77 78 79 87 92
30 28 30 29 29 28 34 35 31 33 33 32 35 35 36 35 31 27 26 28 28 28 30 32 35 40 44 43 48 53 57 60 64 68 72 75 78 82 82 80 77 78 80 80 79 81 87 93 101
28 30 31 32 33 29 31 27 29 29 32 33 32 29 26 24 25 25 26 26 27 30 35 38 39 43 48 52 55 61 63 66 71 74 77 83 85 87 88 84 81 82 84 85 87 90 97 101 108
35 32 32 31 31 29 27 28 29 31 29 26 24 24 25 25 25 25 27 30 29 36 41 45 46 49 53 57 60 63 67 71 75 79 84 87 88 93 92 89 87 88 90 91 94 99 104 107 112
29 29 28 27 28 28 29 28 27 23 23 24 24 25 25 25 28 29 31 35 39 40 46 50 52 55 60 63 65 70 75 79 82 85 88 91 93 97 94 90 91 93 94 96 102 105 108 111 109
30 30 28 28 28 27 28 25 26 23 24 25 25 27 27 29 32 35 38 41 46 48 50 55 58 63 66 71 74 79 82 86 88 91 93 95 99 97 92 92 94 96 101 103 107 112 113 110 110

GFSSGP_250_spd_057.txt.gz
Wind_Speed
84 84 87 87 88 87 88 93 104 99 91 88 87 82 76 78 70 57 64 68 70 73 70 65 68 67 72 74 77 78 79 79 80 80 84 83 83 87 80 82 77 79 82 86 82 87 87 88 89
80 82 81 79 79 78 86 93 94 93 91 88 84 83 72 71 69 59 68 69 69 74 73 73 78 76 65 69 73 74 75 76 78 79 82 81 82 75 74 75 77 80 80 81 89 88 86 88 77
74 75 76 72 73 71 80 80 83 87 87 87 81 78 72 71 66 67 63 70 69 70 71 74 80 75 71 78 81 78 78 79 81 82 81 71 69 74 77 77 79 77 81 79 89 80 87 76 76
66 68 68 68 66 66 78 76 73 79 79 71 71 72 76 70 59 61 61 50 52 57 67 69 73 77 79 75 78 73 74 73 74 69 68 68 76 76 77 66 76 75 78 78 74 80 79 77 83
59 61 59 57 62 74 73 68 58 62 55 57 68 76 73 62 61 57 47 50 47 53 51 54 61 68 71 72 69 68 63 60 62 63 66 69 69 69 69 65 69 76 70 75 78 79 76 83 80
53 54 53 58 61 64 61 49 52 43 51 54 58 70 68 66 61 59 42 28 36 38 48 52 57 65 65 66 63 59 62 64 64 64 64 61 59 61 65 65 75 70 76 77 89 81 89 87 78
47 50 52 55 58 58 45 39 40 39 43 50 58 59 55 55 52 54 49 55 47 54 57 63 43 51 60 55 57 59 58 57 59 56 62 62 68 63 64 75 69 75 83 84 83 89 89 77 74
43 46 49 53 58 45 35 33 32 33 44 46 52 59 62 53 48 50 54 54 59 62 61 43 63 67 53 58 53 53 57 64 66 54 58 62 62 69 70 69 77 84 84 87 92 88 81 80 75
41 45 52 49 39 37 31 36 36 41 47 49 46 36 42 53 57 61 59 51 59 65 44 52 63 57 63 46 55 56 64 62 62 67 61 63 65 72 77 83 83 84 89 89 82 84 83 79 78
39 43 39 39 35 29 31 34 31 38 36 39 21 23 18 32 44 50 50 47 51 56 58 62 60 58 49 48 55 62 58 59 60 67 70 72 73 75 82 80 82 80 83 81 80 82 79 81 78
38 38 36 34 31 32 34 31 37 37 31 31 23 25 27 25 33 40 45 44 47 51 59 52 55 54 58 57 58 62 68 68 68 75 81 78 79 81 75 78 80 85 85 83 78 79 83 80 80
32 29 28 29 32 29 30 30 41 43 34 36 24 24 20 24 33 32 36 32 27 38 50 57 60 63 66 69 70 69 72 73 79 80 81 70 75 78 82 84 80 82 83 81 84 85 86 86 80
24 21 20 25 27 22 27 41 47 42 31 32 36 30 22 25 31 30 33 37 45 44 48 56 70 74 70 68 69 72 75 73 78 80 83 83 83 88 88 80 77 79 83 85 86 85 87 82 79
17 19 19 23 21 25 34 45 51 48 45 26 40 44 32 26 25 21 33 37 40 47 46 54 58 63 64 68 70 77 74 79 78 77 82 89 84 79 80 80 78 81 85 85 87 86 82 77 77
22 24 22 23 24 27 40 46 46 42 45 43 32 56 46 41 42 34 32 39 34 27 41 46 53 60 66 70 72 73 68 67 71 69 68 73 72 73 78 81 82 85 88 88 84 82 78 75 76
25 28 24 21 24 29 38 49 42 42 48 52 46 45 48 40 38 43 43 37 42 45 51 52 46 43 46 51 55 58 62 60 66 69 69 71 76 78 81 81 82 80 76 75 76 78 79 81 81
22 25 24 19 24 21 28 41 43 46 43 47 51 49 34 31 31 32 43 54 47 49 43 40 45 46 52 56 54 57 60 67 69 66 71 74 75 78 80 79 73 71 70 73 74 78 80 81 81
24 23 20 16 18 17 15 18 26 33 33 31 28 28 29 26 23 24 28 34 38 43 39 38 41 52 55 52 53 58 62 65 69 70 73 74 75 67 67 67 70 70 71 71 73 73 73 73 73
21 23 20 16 18 17 16 17 17 25 22 25 27 28 33 26 22 25 31 36 40 41 39 43 51 52 53 54 56 59 60 63 65 65 66 63 63 61 62 64 64 65 64 64 67 70 71 71 68
24 18 16 18 20 20 21 21 22 22 24 25 26 22 28 32 31 34 36 36 44 42 40 43 46 55 62 62 64 61 61 61 63 61 59 59 59 57 56 55 55 59 62 65 67 69 70 72 72
15 16 17 17 19 23 23 20 20 24 23 26 28 30 25 25 25 31 33 32 38 45 50 48 51 54 56 58 58 59 58 57 55 54 54 52 49 49 51 56 60 64 66 70 72 73 74 74 75
11 15 16 22 22 24 26 25 24 21 22 25 25 23 26 26 29 36 36 39 43 45 50 54 51 53 53 56 55 53 50 49 50 49 46 48 50 53 57 61 64 69 73 76 78 80 80 78 75
15 16 18 23 27 27 28 29 30 27 26 27 34 40 41 44 41 46 44 45 46 49 50 51 51 51 50 50 48 46 46 44 43 42 47 51 54 58 61 66 71 76 79 82 84 86 84 79 78
17 18 16 18 22 30 28 26 32 31 29 32 34 32 35 37 39 43 44 45 43 43 43 46 46 46 44 43 45 44 43 45 45 48 53 56 58 60 63 70 74 77 82 85 88 89 82 77 79
20 17 16 17 18 23 21 25 24 30 28 35 37 36 35 34 35 37 39 41 41 42 41 40 39 39 41 41 41 44 48 50 53 57 61 64 68 71 75 78 83 86 89 94 93 85 81 79 82
22 22 21 21 20 22 26 25 29 32 30 33 38 36 33 34 36 38 39 40 36 35 36 36 35 39 44 45 46 49 54 56 59 63 64 68 75 80 83 86 89 92 96 97 89 86 86 90 92
23 27 26 24 28 27 30 30 28 32 31 33 33 33 33 36 37 34 31 33 34 35 37 38 37 42 49 51 52 56 60 63 67 72 75 78 81 83 87 90 92 96 97 92 89 92 95 98 103
25 28 25 26 30 32 34 29 28 32 32 31 32 35 36 34 29 29 31 32 34 37 40 41 42 46 52 57 60 63 65 68 72 77 80 82 84 88 91 93 97 98 92 91 93 99 104 105 105
33 34 34 31 30 31 31 28 30 35 33 32 33 32 28 29 30 31 32 33 35 37 42 48 49 51 53 56 60 64 67 71 75 79 80 84 86 92 94 98 99 93 92 96 100 105 107 108 110
31 31 27 24 27 28 33 31 32 35 33 32 29 26 29 32 34 35 34 35 36 39 43 46 48 53 57 59 62 66 70 75 78 79 84 87 92 94 99 99 92 93 96 102 106 109 110 113 113

GFSSGP_250_spd_060.txt.gz
Wind_Speed
62 63 70 75 78 83 84 87 89 91 92 91 90 90 88 85 83 76 70 69 69 68 68 70 72 73 75 76 74 71 72 67 65 70 76 74 78 80 79 77 81 81 85 88 83 81 81 85 79
52 55 63 66 72 79 81 85 86 87 84 87 90 90 90 85 77 70 69 68 67 67 63 68 73 75 78 79 78 76 72 70 73 73 66 73 80 83 81 83 81 79 80 81 77 81 83 74 76
45 50 54 58 67 74 82 84 84 82 77 76 82 86 86 86 80 80 75 64 65 66 66 69 70 71 72 75 81 74 76 76 78 76 79 84 82 78 77 76 77 78 75 78 79 73 77 81 78
44 48 50 54 66 75 75 75 70 70 65 66 67 73 78 79 74 72 72 64 62 61 61 65 69 72 71 73 71 73 73 78 79 79 76 72 69 71 76 69 69 71 69 64 62 68 75 81 67
38 43 48 59 65 63 65 63 62 58 57 54 53 61 67 70 73 68 63 59 57 56 55 53 58 52 52 68 62 62 67 71 67 63 59 63 65 65 68 71 66 69 69 74 81 79 76 71 82
36 41 49 57 53 54 50 49 46 52 55 46 54 60 54 62 63 58 44 44 40 46 46 38 55 53 50 47 46 48 54 55 60 54 60 64 65 63 59 64 62 70 77 71 70 72 77 84 84
33 39 45 46 47 48 42 37 39 43 42 45 52 52 53 56 54 49 38 31 41 43 48 59 50 50 55 53 50 53 55 54 53 55 60 62 62 64 68 64 72 70 69 69 74 78 84 88 84
35 42 47 46 43 32 30 29 35 37 33 43 52 50 50 51 49 47 47 39 43 35 45 52 47 53 51 54 48 55 53 49 51 57 54 62 58 61 60 68 72 66 71 75 80 83 81 81 82
36 40 43 32 30 28 28 33 40 39 36 43 44 46 43 45 39 34 37 48 49 37 57 48 52 56 57 57 54 47 58 59 58 55 62 67 64 66 69 68 70 73 77 77 79 87 85 91 84
33 36 31 30 24 26 30 33 39 39 41 43 42 32 38 27 31 37 41 42 47 57 64 60 57 59 47 43 57 55 55 63 63 60 63 66 65 65 71 75 78 83 87 81 87 87 81 77 82
31 22 23 24 24 27 33 35 36 33 36 40 41 31 44 39 31 25 36 44 57 54 62 64 56 59 57 52 59 55 55 60 58 61 62 65 69 72 73 80 82 85 80 85 79 79 81 80 77
25 23 23 21 21 29 32 30 29 30 35 37 46 42 37 40 31 29 25 38 46 56 66 70 74 61 59 54 51 62 64 67 65 70 71 71 73 76 79 82 84 77 79 82 84 79 80 81 81
16 18 18 21 28 30 28 26 33 33 31 26 37 37 29 27 25 27 25 22 26 32 35 50 41 48 57 57 53 57 63 68 69 64 73 76 81 81 87 87 80 79 77 80 79 80 78 79 80
13 15 19 21 25 23 23 28 36 36 28 35 30 25 26 22 27 30 31 27 29 28 38 40 39 46 54 64 63 71 71 75 80 80 83 82 85 82 75 73 76 78 77 78 81 79 79 80 78
20 27 24 23 22 21 22 35 44 41 40 34 27 29 36 33 31 25 24 23 30 32 32 42 52 55 48 56 62 65 71 75 74 77 76 77 71 73 71 73 77 77 79 82 83 84 80 77 78
23 22 25 23 22 22 25 37 49 47 46 42 35 29 41 45 41 36 31 32 32 44 47 35 41 44 51 56 58 61 65 68 60 63 65 64 69 73 75 76 76 80 83 80 78 76 73 72 70
21 25 24 23 21 21 26 36 40 41 49 46 40 32 33 35 36 40 39 36 34 36 42 43 42 47 56 63 63 56 54 54 61 60 65 71 71 76 77 77 78 75 73 70 69 69 66 62 64
20 21 21 20 17 20 23 37 39 43 51 54 45 42 38 40 35 37 40 48 49 44 44 44 43 52 50 51 46 52 57 59 62 62 66 68 68 68 69 69 68 64 63 62 61 60 61 63 67
12 10 16 18 12 17 23 26 32 42 45 49 53 48 44 40 35 38 41 43 49 47 41 42 44 46 52 56 56 57 58 59 61 69 72 69 70 68 66 62 63 62 60 58 58 62 66 71 72
14 14 13 10 13 13 16 18 20 27 35 48 52 50 41 41 39 39 42 42 36 39 40 44 46 50 50 50 49 54 61 62 63 62 62 64 63 60 58 58 58 58 58 61 64 67 71 75 78
11 10 10 13 12 14 18 25 25 29 32 30 36 38 41 39 44 43 40 37 34 37 37 39 41 44 50 53 53 54 56 56 55 55 57 58 56 57 58 57 59 62 64 67 69 72 75 79 83
11 14 15 15 20 25 26 28 24 24 25 21 22 27 27 28 28 35 39 37 37 38 42 44 48 51 53 51 51 51 55 54 53 56 57 54 55 56 58 62 64 67 70 73 75 77 80 84 89
12 16 18 18 24 28 30 30 29 28 21 20 19 19 22 25 27 31 37 40 40 40 39 40 38 50 50 51 51 51 50 52 53 53 55 56 57 59 63 67 71 73 75 77 79 84 87 89 92
12 15 20 21 24 28 29 33 33 32 32 27 28 28 28 29 32 34 41 45 48 43 41 41 46 45 46 48 48 48 50 52 53 54 55 57 60 63 66 69 72 76 76 78 83 87 89 92 93
18 17 19 20 20 21 29 32 32 31 32 38 37 36 35 37 41 44 45 41 35 34 44 44 44 44 45 46 47 50 51 53 56 57 60 62 65 67 71 76 74 73 78 81 85 89 93 93 84
18 20 16 16 15 14 15 21 23 25 28 32 37 36 37 38 40 42 39 35 38 39 40 39 39 43 46 48 49 52 54 57 60 63 65 69 71 73 73 74 77 81 83 86 91 94 92 87 87
19 20 17 19 19 19 18 18 23 24 28 29 30 33 35 36 35 35 38 37 36 34 35 40 42 44 46 48 51 53 55 59 62 65 69 70 70 73 75 79 84 87 90 94 97 98 94 91 93
21 25 22 22 26 25 22 24 29 30 29 30 29 31 31 32 34 36 37 35 34 34 37 40 41 43 46 49 51 53 57 60 63 67 71 73 74 77 81 85 89 91 94 98 101 99 94 96 99
26 32 35 29 30 30 28 26 29 29 27 27 28 30 32 34 34 32 32 36 38 40 41 41 43 45 48 52 56 60 63 66 68 73 74 75 79 82 85 89 92 95 99 102 105 100 98 100 106
28 32 32 33 29 26 25 24 26 25 28 31 31 34 33 31 31 29 34 37 39 40 42 44 46 49 53 56 59 61 64 67 72 72 74 77 81 85 88 91 94 99 102 105 102 100 103 107 110

GFSSGP_250_spd_063.txt.gz
Wind_Speed
49 55 60 63 66 70 75 85 90 90 92 92 95 92 87 86 84 80 78 75 77 77 78 76 73 71 72 72 72 74 75 76 78 77 76 75 75 73 76 75 77 75 76 80 83 80 80 78 82
44 50 53 58 59 66 74 81 85 88 87 91 88 89 89 84 84 83 80 79 73 76 72 70 69 68 67 69 69 73 77 77 79 79 78 76 78 79 77 79 81 80 83 83 78 76 78 82 80
42 43 47 55 58 62 68 71 74 77 78 79 82 85 87 85 85 85 80 75 73 71 67 66 64 67 68 68 69 71 76 77 76 78 75 76 77 79 79 81 80 82 78 77 77 73 71 66 68
39 40 47 53 53 56 59 61 63 69 69 69 69 69 73 73 73 77 77 74 73 66 61 58 61 56 60 64 69 70 72 75 73 70 71 71 70 68 73 75 77 75 77 70 70 68 66 65 69
35 39 44 45 43 47 49 48 50 54 56 55 52 57 61 64 68 65 63 66 63 61 58 53 54 53 57 61 59 63 64 61 58 65 63 64 58 62 64 71 69 71 71 70 69 68 65 65 66
32 37 39 38 40 41 42 40 36 38 42 47 46 52 53 55 56 58 54 48 50 46 43 46 50 55 51 42 50 51 56 51 50 51 60 59 58 58 59 62 61 65 67 69 68 73 73 69 70
30 36 37 34 36 37 30 26 29 31 39 39 43 48 53 52 48 46 42 36 39 39 45 38 48 45 45 54 53 48 51 51 41 49 54 55 52 54 59 64 62 65 66 68 69 68 67 73 76
25 32 32 29 27 24 23 28 33 39 42 41 47 48 51 52 49 45 42 40 41 43 41 42 50 56 51 55 55 52 51 51 45 49 59 57 58 60 58 57 63 69 70 72 70 78 77 80 76
25 29 25 25 25 23 27 33 36 38 39 40 42 49 47 46 44 44 42 38 39 45 41 36 44 51 58 56 60 60 53 54 48 54 52 58 63 63 67 65 67 67 74 71 74 77 82 84 87
19 25 25 25 26 26 31 31 36 38 34 37 36 39 35 35 35 35 40 36 38 42 33 36 47 53 61 59 50 46 58 59 59 63 65 63 51 57 66 65 63 69 71 73 76 84 87 86 81
14 19 23 25 26 29 32 33 35 38 40 37 40 35 29 24 23 30 35 35 42 37 40 44 45 54 50 47 50 49 52 52 52 58 61 64 66 64 62 66 71 79 82 82 83 81 84 81 82
14 17 19 24 25 24 26 26 30 33 35 34 37 33 31 32 34 33 37 39 50 49 43 60 55 61 49 59 51 51 58 60 56 62 53 61 61 71 75 73 74 76 77 84 90 88 88 82 82
16 16 18 18 19 23 26 26 30 30 29 29 27 26 27 29 36 34 31 40 47 58 48 57 67 65 55 56 58 56 59 62 65 70 67 69 72 74 71 72 83 89 89 82 78 80 81 86 79
15 15 19 24 24 26 26 27 28 32 27 25 30 37 34 36 40 27 33 37 34 52 63 65 64 63 55 56 52 58 58 58 60 64 68 71 75 80 81 84 81 78 78 76 80 81 84 83 80
17 20 23 22 22 22 23 24 29 31 30 33 39 36 38 36 34 26 22 27 31 27 26 30 41 67 49 44 46 53 52 62 65 69 68 73 73 75 75 78 83 71 76 79 79 82 79 75 75
11 11 18 18 18 19 22 26 29 37 34 33 35 32 31 33 37 30 33 30 35 29 33 33 35 40 42 48 48 52 59 61 52 59 66 62 62 61 67 69 70 73 73 75 74 74 73 73 72
13 13 16 17 19 18 21 27 37 44 44 41 38 36 39 36 36 31 37 30 28 35 32 36 38 43 51 53 57 56 51 57 63 65 65 66 68 72 74 71 72 76 76 73 73 75 73 69 67
14 15 18 16 8 9 12 26 39 46 48 41 41 40 34 37 39 44 42 42 42 40 38 44 48 50 57 57 53 53 55 57 60 65 66 69 71 69 71 73 74 72 68 70 72 70 68 68 69
12 14 15 12 10 9 12 14 36 47 49 47 41 38 35 30 36 40 38 36 34 40 39 43 50 59 57 59 59 58 57 61 61 64 63 62 66 69 70 69 69 66 68 68 67 67 69 72 74
12 12 11 17 12 9 14 19 27 37 49 48 46 42 41 41 36 35 36 45 43 45 47 50 53 54 52 50 52 54 58 55 53 56 62 65 62 64 65 65 66 67 66 65 67 69 74 77 80
8 7 9 11 11 11 14 22 24 25 37 49 51 49 48 45 44 45 44 42 39 42 43 48 47 44 46 48 47 50 49 52 57 60 59 58 59 62 62 64 68 68 67 68 70 73 77 80 78
9 8 9 14 15 16 17 17 19 24 29 39 44 53 46 48 48 43 42 44 46 45 46 40 42 43 47 50 54 52 52 53 56 57 57 57 59 62 64 69 70 69 69 72 76 79 80 78 80
8 12 13 17 15 17 19 20 22 27 24 29 36 43 40 36 35 34 38 39 35 38 39 38 43 48 46 46 46 48 49 50 51 54 55 58 62 65 69 72 74 74 75 77 76 76 77 80 84
9 11 12 17 18 16 21 23 26 31 31 28 30 34 33 27 27 30 28 30 33 34 39 46 47 50 52 48 47 47 47 49 52 55 58 63 65 69 71 71 72 73 75 75 75 79 81 84 87
13 13 13 14 17 15 22 26 30 34 33 33 33 35 38 38 35 33 37 40 39 44 48 45 44 47 45 48 46 44 46 50 55 58 62 65 64 64 66 70 72 74 72 76 79 82 84 86 88
16 15 14 16 16 15 18 22 25 35 37 37 36 36 40 43 44 42 44 45 45 44 45 46 45 47 49 44 42 45 50 53 57 58 59 61 66 68 71 73 73 72 76 79 82 84 87 90 93
15 17 18 14 14 17 16 17 20 22 26 34 36 35 37 41 44 42 39 40 41 38 40 45 47 45 40 42 46 50 53 56 57 59 62 65 66 70 70 70 72 76 79 82 85 88 91 94 101
20 22 19 15 14 16 19 22 25 26 25 28 31 33 34 35 36 37 36 36 35 39 42 41 38 41 45 49 51 53 54 55 58 61 64 68 69 65 69 73 77 80 83 88 92 95 97 101 106
24 25 25 24 23 24 24 28 30 30 29 28 29 29 29 31 33 36 37 36 36 36 35 37 41 46 49 51 50 52 54 57 59 63 65 66 69 73 77 80 82 86 91 95 98 100 103 107 111
25 25 26 29 27 24 24 24 24 25 23 24 26 28 31 35 36 39 39 35 33 35 38 41 44 47 48 49 52 55 58 60 63 67 71 71 74 78 83 85 88 93 97 100 100 103 109 111 106

GFSSGP_250_spd_066.txt.gz
Wind_Speed
48 50 49 52 52 57 66 74 73 89 85 85 90 75 80 84 85 86 83 82 79 76 77 75 75 74 72 73 73 73 74 73 73 75 75 75 75 78 78 78 78 80 81 81 80 81 80 80 82
45 44 48 49 51 57 64 66 67 72 78 81 79 88 82 80 86 81 81 84 76 75 75 75 75 73 71 71 71 73 75 73 73 74 74 75 76 76 75 76 78 79 79 81 82 80 78 77 72
44 42 44 45 50 53 56 59 58 63 73 71 79 82 79 74 77 72 73 74 73 73 75 74 72 70 69 70 69 70 69 71 74 73 74 73 74 75 75 77 75 76 78 77 78 75 74 69 68
43 38 37 37 42 49 52 52 53 57 63 66 64 73 75 76 74 72 73 74 67 70 72 69 67 62 67 68 66 67 64 67 71 70 74 75 74 75 77 79 77 77 71 73 68 65 65 67 65
41 34 31 28 38 44 46 46 46 46 51 53 57 63 65 68 72 65 72 72 65 61 57 48 52 51 58 58 53 63 66 63 66 67 69 68 71 73 73 64 61 61 63 55 60 57 64 65 66
36 31 27 26 35 38 38 38 36 38 41 45 44 48 49 55 60 63 64 61 57 49 43 49 49 54 56 59 54 54 56 62 65 65 58 55 54 59 61 56 58 59 55 58 62 68 64 64 69
29 26 24 26 29 30 31 32 33 33 31 34 39 43 45 48 49 49 49 42 40 36 37 39 44 45 49 54 57 55 48 43 46 46 48 50 42 46 54 59 61 62 62 64 64 66 67 64 69
23 23 22 23 26 27 29 31 32 34 34 35 40 47 48 51 51 50 42 32 37 35 39 44 47 49 40 44 52 56 51 49 50 50 48 53 57 59 56 51 55 53 60 65 68 67 74 76 71
19 17 16 21 25 27 29 30 32 33 34 37 41 46 48 49 49 44 40 36 41 45 41 45 42 39 35 51 47 45 49 55 53 54 56 58 58 57 60 62 64 65 71 74 67 65 67 69 75
15 11 11 20 22 24 27 29 31 33 35 37 42 44 47 49 41 32 34 38 40 44 40 43 40 48 37 52 56 58 58 57 55 55 55 57 58 59 61 63 60 65 70 70 67 69 74 77 83
14 10 12 19 23 26 27 27 27 32 33 35 36 38 35 32 31 32 32 33 41 43 42 42 43 40 45 46 51 58 60 63 62 60 55 55 57 63 61 62 68 68 69 71 76 78 81 82 83
13 12 11 17 23 26 26 24 24 29 32 31 30 28 24 25 26 30 34 18 36 43 38 33 38 47 45 52 52 51 57 54 51 58 55 52 61 58 66 64 65 73 81 75 80 84 85 87 86
12 11 13 15 19 22 25 25 26 29 38 35 32 27 21 22 31 28 30 34 40 36 41 42 43 43 54 52 51 55 51 48 52 52 57 58 59 63 61 70 72 76 78 81 75 80 81 80 77
9 11 18 18 17 21 22 23 26 29 32 33 29 26 26 27 32 31 30 34 33 41 47 54 55 54 58 60 60 59 50 48 47 49 49 55 62 64 65 69 75 77 77 81 76 75 78 82 79
6 7 11 13 12 16 21 23 24 25 26 27 26 23 26 22 19 30 29 31 36 43 48 52 54 59 61 54 56 57 50 53 41 44 52 55 60 66 70 69 68 71 69 70 78 83 80 80 82
3 2 3 6 9 14 18 20 24 24 29 26 31 32 27 34 30 26 31 31 35 32 40 54 56 49 54 56 56 50 51 60 61 61 62 66 71 72 74 76 77 76 78 85 83 79 79 79 77
0 2 3 3 5 8 9 13 21 30 32 32 34 28 29 34 33 32 30 30 34 40 49 45 49 46 47 45 53 54 57 48 55 66 69 72 70 69 68 71 71 74 75 74 75 76 76 75 73
4 2 3 6 2 6 12 13 22 31 34 34 32 35 29 34 34 38 36 27 32 32 34 33 37 40 48 43 41 44 45 57 68 67 65 62 65 68 71 72 70 71 74 73 74 73 71 72 74
6 4 7 6 4 3 6 11 23 36 35 35 32 38 38 36 30 30 33 32 27 29 33 37 36 37 39 44 48 46 53 60 63 65 65 67 70 70 69 68 69 72 69 70 70 70 72 74 77
1 2 6 8 6 5 6 11 21 33 38 39 36 38 37 34 30 33 33 31 32 35 36 33 38 41 41 47 54 58 64 61 63 63 62 64 64 66 68 67 66 67 66 67 70 71 74 78 79
4 4 5 7 10 12 10 13 15 27 42 45 45 39 35 33 32 25 27 33 36 35 40 42 44 44 47 50 54 59 60 63 56 57 58 61 60 60 63 61 62 63 66 71 73 78 79 77 77
9 10 8 7 9 11 11 13 19 24 36 41 46 45 39 37 36 34 33 32 37 43 44 43 43 46 50 49 52 53 54 52 54 55 55 57 57 58 58 58 63 67 71 74 74 72 74 78 77
10 9 11 11 11 9 9 12 15 22 23 29 42 50 49 46 45 44 43 46 46 44 44 48 45 44 46 43 44 50 54 56 49 53 59 59 57 56 59 62 66 71 71 72 75 76 76 75 77
15 13 10 11 11 9 8 12 16 18 19 22 24 31 40 44 46 44 45 47 50 54 43 43 43 40 42 44 49 56 59 54 55 57 55 55 56 60 63 66 69 70 73 74 74 73 73 77 80
16 14 13 10 9 11 14 14 18 19 24 26 27 27 29 33 35 32 31 31 30 35 39 42 43 43 50 50 53 53 52 53 57 54 54 58 61 64 68 71 71 73 73 72 70 73 77 81 83
18 12 15 15 12 11 13 18 16 21 24 26 32 31 32 30 32 35 38 37 38 42 44 48 49 50 45 43 42 44 53 54 50 54 58 62 66 69 70 71 72 72 67 71 76 79 82 84 90
17 16 12 15 15 17 16 17 15 15 17 21 28 34 39 39 41 43 42 44 48 49 53 49 40 41 43 45 48 51 50 50 54 57 61 65 67 68 71 71 72 71 76 78 81 81 85 90 95
18 16 16 16 18 19 21 24 24 20 22 24 26 28 32 37 38 38 40 41 42 44 46 45 43 45 47 48 50 48 48 52 56 60 61 64 67 69 70 71 74 78 82 83 83 88 91 96 102
20 19 17 18 17 22 25 29 31 30 30 29 32 33 35 38 39 40 41 39 39 39 41 42 46 47 46 44 45 48 51 54 57 61 64 66 67 68 71 77 81 83 85 85 90 93 98 103 107
21 27 19 17 21 21 27 34 32 31 30 31 31 31 32 33 34 36 38 38 38 37 36 42 43 40 40 44 47 51 53 56 60 62 65 64 69 72 76 79 82 85 87 91 95 98 104 108 109

GFSSGP_250_spd_069.txt.gz
Wind_Speed
74 69 62 54 50 51 51 53 55 63 72 73 77 77 80 79 84 83 84 80 80 78 76 76 76 77 76 75 72 72 72 73 73 74 73 74 74 74 76 76 77 77 76 76 77 79 79 79 80
72 66 59 53 48 47 47 45 46 56 64 64 66 68 77 77 75 82 83 83 82 78 77 76 76 75 74 74 73 72 72 73 74 75 74 74 74 75 78 78 76 78 76 76 78 78 79 77 77
70 60 55 50 44 42 40 40 42 52 54 59 63 62 70 73 77 77 77 77 81 77 77 77 74 74 73 73 72 71 72 73 72 74 74 75 74 74 77 77 77 78 77 75 73 72 74 77 74
67 57 50 44 41 33 33 37 44 51 53 61 61 55 57 65 73 75 72 72 70 70 75 73 71 69 71 73 73 71 68 71 74 70 71 72 73 74 74 76 76 75 73 72 69 61 69 62 63
62 52 46 39 35 24 31 34 40 48 48 51 42 45 43 43 54 58 65 68 63 64 62 60 58 53 59 64 63 65 69 69 69 71 70 71 71 71 69 71 71 69 66 66 66 64 57 50 57
57 47 42 35 25 20 25 30 38 45 52 52 53 49 47 48 51 50 55 59 65 57 52 50 41 36 36 40 51 60 60 64 62 65 63 65 64 64 64 68 66 61 56 56 55 59 57 60 65
51 43 35 28 16 19 22 29 36 41 44 42 49 41 46 47 49 45 49 50 50 40 35 36 38 40 45 49 45 48 51 56 61 60 59 52 53 52 48 49 54 56 56 59 62 62 62 61 65
46 39 33 21 14 18 24 28 33 40 42 44 45 45 46 47 52 52 44 48 41 35 36 36 37 40 44 44 51 54 50 51 49 55 55 42 45 47 47 54 53 53 58 60 58 58 59 60 65
42 37 31 15 15 18 24 29 34 38 41 42 44 43 47 49 50 47 47 32 32 37 38 35 32 37 40 32 40 43 41 44 45 50 49 51 55 59 58 59 57 53 55 61 62 65 64 68 71
37 32 24 13 18 21 26 30 34 36 36 35 37 37 40 47 48 47 31 36 36 43 46 43 39 37 30 41 51 49 41 46 47 49 49 53 57 61 58 61 63 63 57 58 63 63 67 65 72
30 28 18 13 19 23 28 30 32 35 37 39 37 33 38 37 35 35 30 37 41 39 47 49 48 49 44 52 52 39 42 50 54 53 60 63 61 63 66 66 61 60 64 62 62 65 73 75 76
23 21 14 14 19 21 22 25 26 30 31 32 33 33 32 27 30 30 34 31 34 43 41 47 46 47 49 49 44 39 42 44 52 53 55 59 46 44 55 55 54 61 59 63 70 68 71 73 76
22 14 10 13 16 18 19 22 24 26 28 30 30 28 22 25 26 27 28 30 25 31 45 48 52 43 53 50 45 42 50 52 53 50 51 52 54 54 52 50 55 64 66 71 73 76 78 79 80
16 8 5 6 10 13 18 22 24 23 23 24 24 20 24 21 27 29 32 38 36 29 33 46 47 51 50 53 51 54 56 56 57 61 60 59 59 50 52 57 57 61 65 69 75 77 80 78 73
7 6 4 4 6 9 16 21 22 18 21 24 25 24 24 26 33 32 34 44 41 39 32 39 40 47 47 49 49 52 57 59 56 48 46 51 55 53 61 68 72 71 76 76 83 77 81 76 78
10 10 8 1 4 6 10 14 15 17 21 24 29 25 25 28 29 34 33 40 41 41 38 41 42 46 50 52 49 47 53 65 58 57 62 59 57 61 60 63 69 75 79 78 80 80 75 74 72
5 10 11 7 6 0 6 12 16 19 22 23 28 30 29 26 32 31 32 34 33 34 39 42 44 51 53 54 57 57 58 55 56 56 57 60 63 67 76 74 76 81 78 77 78 76 74 74 75
4 7 8 3 3 3 3 8 16 20 22 26 28 31 31 31 35 25 24 25 33 36 35 40 45 52 54 56 57 59 50 53 58 57 55 56 60 64 66 68 75 74 74 73 73 75 74 72 69
10 8 5 6 2 2 6 10 14 24 27 28 29 31 30 16 29 32 32 31 33 29 36 38 37 41 43 48 50 48 45 43 54 52 55 58 62 66 68 67 68 68 70 71 72 72 70 66 67
10 8 7 7 5 5 3 6 11 19 30 32 31 31 31 34 20 33 33 36 33 34 33 37 36 36 37 42 41 44 42 45 46 53 59 64 70 69 71 69 66 64 68 69 67 65 65 67 71
8 7 12 9 5 7 6 6 7 16 26 34 29 31 32 36 28 29 29 35 34 35 34 33 35 35 35 34 39 41 48 54 55 59 66 67 66 62 64 64 63 68 66 66 64 66 69 72 75
21 12 9 8 6 8 11 10 12 14 20 36 32 33 31 37 33 33 28 26 28 31 31 32 34 36 39 43 48 50 56 57 60 62 62 58 59 60 60 63 65 65 64 63 66 70 73 77 80
21 18 11 10 10 11 11 12 10 12 15 24 39 37 38 36 36 34 33 33 34 39 40 36 42 43 45 50 50 51 51 55 47 47 53 58 61 59 62 64 63 63 64 66 71 75 78 78 78
23 16 11 8 9 7 10 11 12 12 12 19 20 34 37 43 42 44 40 39 41 43 45 47 46 42 44 44 45 46 44 49 53 54 57 57 56 60 64 63 63 65 68 73 74 76 77 75 76
27 18 11 9 9 7 10 12 11 12 13 14 15 16 16 20 32 41 47 44 45 43 44 45 46 42 37 40 44 46 50 49 52 52 54 55 60 63 62 64 67 70 73 75 76 74 75 76 81
30 22 13 10 13 11 12 16 12 17 20 20 21 22 23 21 23 25 26 34 39 38 42 42 44 42 43 46 49 51 51 49 53 53 53 57 60 62 65 67 70 74 76 76 76 75 78 82 84
32 22 20 15 14 17 17 18 16 15 18 19 19 21 24 27 30 32 33 34 36 39 44 46 48 48 49 51 53 48 48 52 54 55 54 56 60 65 66 69 73 76 78 77 76 80 84 86 87
32 26 20 22 17 19 20 23 22 17 20 22 22 24 25 26 27 30 34 37 40 42 44 44 46 47 46 43 44 47 51 55 55 53 53 58 63 67 69 71 75 75 76 77 81 84 86 89 92
30 24 20 23 22 21 19 24 24 23 23 26 30 31 31 33 35 35 37 40 43 44 44 44 44 41 41 42 45 48 51 51 48 53 57 61 66 69 72 73 74 75 77 81 84 87 90 94 98
27 26 25 18 22 20 25 29 25 24 27 30 32 34 36 38 40 41 42 42 41 39 37 40 41 39 42 47 48 48 50 49 51 54 59 63 69 72 73 74 77 80 84 86 89 91 95 98 102

GFSSGP_250_spd_072.txt.gz
Wind_Speed
68 71 73 71 67 61 56 50 49 50 48 56 56 62 67 72 77 71 85 84 85 83 83 82 83 81 80 79 77 76 74 72 71 70 71 71 73 75 76 76 77 76 76 76 77 78 79 79 81
70 75 75 69 64 57 49 44 43 42 47 50 58 59 63 61 74 79 77 78 80 82 83 83 83 81 79 77 77 76 74 74 73 73 74 74 75 78 78 78 78 79 77 77 78 80 81 81 80
73 78 75 68 60 51 43 40 38 38 46 47 50 51 44 58 67 73 77 79 75 78 80 84 81 78 78 78 76 75 73 73 74 73 74 76 77 78 78 78 78 79 78 78 78 78 80 80 80
77 79 75 65 56 44 40 38 32 36 43 49 51 45 54 54 69 65 67 74 74 77 78 79 76 76 74 74 72 73 71 71 72 73 73 76 76 77 79 80 78 76 76 78 79 78 73 72 69
81 78 70 60 51 41 39 32 28 34 43 52 48 34 16 32 55 59 58 64 65 73 75 75 73 69 72 69 69 68 70 70 72 71 73 72 72 73 71 73 73 76 75 73 71 70 62 58 66
81 71 64 54 44 38 33 24 25 35 46 53 52 40 35 39 43 53 51 49 45 52 60 57 53 51 53 62 66 66 64 67 69 68 72 72 75 72 72 72 71 67 64 65 63 61 60 63 62
73 63 56 46 36 36 23 20 25 36 47 54 48 53 50 54 41 45 40 41 45 37 43 44 41 40 33 36 43 49 56 59 60 60 62 64 64 63 64 63 59 61 54 56 55 59 55 57 58
65 56 45 37 31 29 16 20 25 32 44 52 54 58 59 56 40 45 40 44 46 42 36 33 36 38 40 41 37 39 42 45 46 47 50 48 43 45 45 47 49 47 49 52 53 52 53 58 61
59 46 38 31 30 21 18 23 25 30 42 47 49 49 56 58 51 48 45 35 37 37 35 35 35 40 38 35 42 42 42 43 41 45 40 38 43 44 46 49 49 54 57 58 56 58 64 66 58
48 39 35 28 24 18 20 22 25 34 39 43 48 51 54 54 47 46 42 39 43 43 43 39 38 44 40 39 43 36 30 30 38 43 41 45 47 46 48 51 57 59 61 60 63 67 58 63 68
43 36 32 27 16 18 19 23 29 32 39 44 49 48 46 45 48 43 39 31 35 45 52 48 47 42 42 42 37 33 36 50 39 41 48 50 53 53 55 58 60 60 65 61 60 61 59 62 66
40 32 27 18 14 19 19 21 24 28 33 38 39 36 37 40 34 39 35 33 35 39 39 52 49 46 49 44 45 41 46 50 50 38 43 45 48 50 51 54 56 58 53 56 57 55 62 67 74
38 28 19 9 9 15 18 20 24 27 30 33 34 33 33 27 24 24 27 34 34 38 38 46 49 50 48 40 41 42 45 48 49 45 45 53 56 56 55 53 52 52 56 59 61 67 69 73 74
33 21 11 4 4 10 14 16 21 23 27 26 26 23 26 24 26 27 29 32 34 35 36 44 40 44 45 46 42 50 44 44 44 52 50 59 58 58 57 61 63 64 60 59 67 69 74 75 78
26 14 10 3 1 4 9 13 17 18 20 23 25 22 21 25 28 29 29 30 36 41 40 52 41 47 44 47 49 47 52 55 49 54 53 56 59 61 46 49 57 57 57 64 67 69 72 78 80
20 12 9 6 3 1 5 8 15 18 20 22 23 21 27 26 28 30 31 32 36 41 48 49 53 52 46 51 52 51 54 60 59 54 60 63 64 65 68 67 70 67 69 66 68 72 69 73 78
22 10 4 5 1 5 6 10 15 19 22 23 26 27 26 29 28 32 31 39 42 42 48 51 41 46 49 51 59 57 58 58 60 54 59 63 68 68 73 72 69 64 68 69 70 74 75 74 76
23 13 10 7 5 2 4 9 14 17 20 23 29 30 29 30 30 30 29 43 47 44 42 38 39 46 47 50 51 52 56 60 59 59 60 63 62 63 64 63 61 63 65 67 68 72 74 72 72
27 16 12 6 5 3 2 5 7 18 21 25 30 31 29 30 31 34 35 39 45 47 43 35 36 50 49 48 50 54 56 62 61 61 67 66 65 57 55 61 63 65 71 73 74 76 75 71 76
26 22 13 12 8 4 3 4 6 13 22 27 29 32 30 28 30 35 30 27 33 41 40 39 38 41 45 49 51 56 62 59 56 58 58 58 54 55 56 63 68 75 73 70 70 69 72 72 73
32 20 18 9 6 5 7 5 8 10 19 31 30 30 32 30 26 23 29 34 32 32 39 41 41 42 43 44 46 46 46 47 47 47 50 53 56 58 66 71 70 70 66 69 70 71 72 71 71
36 24 17 10 6 5 6 9 11 10 11 30 27 28 31 30 33 23 25 30 38 38 37 34 42 44 41 47 48 45 43 45 46 51 56 58 60 63 65 63 63 64 67 71 69 72 72 73 73
34 29 19 11 5 8 7 7 6 7 9 16 34 28 30 35 35 30 32 28 28 37 42 38 41 41 39 35 38 42 44 52 55 59 62 63 61 60 60 63 67 64 68 65 72 72 72 74 78
35 32 21 16 6 7 8 7 6 8 10 12 20 37 33 29 33 36 36 36 33 35 35 36 37 42 40 43 46 48 50 52 56 56 58 61 57 59 62 62 63 64 67 71 72 72 75 77 80
32 31 26 18 14 10 10 9 9 9 9 9 11 17 24 35 40 37 41 39 41 39 41 44 43 46 49 51 55 54 51 49 48 53 55 62 61 61 60 60 65 67 69 70 72 76 78 81 82
28 31 28 17 18 17 16 15 10 11 13 13 12 14 16 17 20 22 27 37 37 41 43 44 45 45 43 43 46 49 50 52 56 58 63 60 60 59 59 64 70 69 69 71 77 80 81 81 83
25 28 25 23 19 21 20 22 19 14 17 15 14 16 20 24 28 31 31 32 32 32 35 39 41 44 46 47 52 56 57 58 59 60 59 58 58 62 67 69 70 70 72 76 79 81 83 83 84
23 28 24 22 21 22 23 24 22 18 18 20 20 20 19 21 25 27 29 32 37 40 41 41 43 46 48 49 50 52 54 55 56 56 59 60 61 65 66 68 69 73 76 79 79 81 83 86 87
22 25 26 22 21 22 25 23 21 22 19 22 24 25 27 27 28 31 33 34 37 38 39 41 44 46 49 50 49 50 50 50 54 58 61 62 62 64 64 68 72 75 78 82 84 84 86 88 92
22 23 28 23 19 19 24 30 27 26 22 25 29 31 32 33 33 33 35 37 39 39 39 41 41 42 44 46 47 49 49 52 56 63 65 63 59 61 65 71 76 79 77 80 84 88 92 94 96

GFSSGP_250_spd_075.txt.gz
Wind_Speed
76 75 71 68 71 68 67 64 56 58 55 45 47 43 36 23 6 31 62 69 82 87 89 88 88 87 87 85 84 82 79 76 77 76 74 73 73 72 74 73 74 75 74 74 76 76 76 78 79
74 72 68 69 70 66 65 59 51 51 46 48 41 35 35 16 33 34 80 80 76 85 86 87 87 87 87 86 84 81 79 77 77 78 76 76 76 77 76 78 79 77 77 77 78 78 79 80 80
72 67 68 70 67 64 64 53 51 44 43 43 40 36 50 58 52 87 71 70 72 83 75 82 82 83 83 83 83 80 78 78 79 80 79 78 78 79 80 80 79 79 80 80 81 81 80 80 80
66 67 68 71 71 65 59 52 44 35 33 37 34 39 59 73 73 86 72 58 68 77 72 66 76 80 79 81 77 76 74 76 77 79 78 79 80 80 80 80 79 78 78 79 80 81 80 81 80
67 69 73 72 68 61 53 47 37 14 11 40 34 33 44 66 69 69 66 58 58 62 60 57 60 71 75 73 72 70 71 70 75 77 76 79 78 78 78 78 77 76 78 76 76 76 75 78 75
66 73 73 70 63 53 43 40 24 16 37 30 13 17 34 46 37 29 25 30 35 26 23 37 49 59 60 64 64 63 62 65 68 71 69 69 72 74 75 74 72 72 73 72 73 72 69 67 67
67 73 71 63 50 42 35 29 22 17 33 26 36 41 34 33 31 17 14 12 15 4 36 39 38 38 49 53 57 57 58 56 62 66 67 68 68 71 67 66 59 61 61 52 56 54 54 52 55
69 69 65 53 39 33 30 23 19 16 37 62 55 47 42 44 41 39 34 31 38 39 34 27 24 24 34 40 40 42 47 51 55 58 61 62 61 56 53 51 39 40 46 49 47 48 52 54 57
65 66 57 42 35 30 21 17 15 20 33 42 60 51 48 45 48 53 42 39 43 45 57 36 31 24 26 34 29 29 35 38 40 41 41 38 36 40 40 39 41 45 47 47 51 54 57 58 64
63 61 48 38 31 22 14 13 15 31 43 47 58 56 51 52 52 55 44 49 55 54 48 42 35 29 29 34 32 27 35 40 38 35 35 33 37 42 44 45 47 48 48 49 52 58 63 63 65
62 55 44 36 27 16 11 12 14 29 50 53 53 60 56 50 58 51 42 47 51 51 51 44 36 30 33 22 44 44 35 42 38 35 33 38 41 45 49 50 49 52 55 59 59 59 59 58 61
56 48 40 33 23 12 9 12 14 22 38 42 43 53 60 59 51 57 51 45 50 54 57 49 49 47 46 47 46 42 49 43 38 33 38 37 48 47 46 53 55 47 48 52 54 58 57 58 54
51 45 37 27 20 10 6 10 13 18 28 35 43 35 51 57 54 54 50 45 44 49 55 53 54 54 44 51 45 45 48 42 46 50 49 47 51 48 48 46 50 57 55 57 60 56 59 64 70
43 38 32 22 15 9 4 7 12 17 23 29 30 32 30 37 40 39 36 43 44 42 51 52 53 55 48 48 51 49 52 50 46 51 54 49 55 47 49 50 45 47 46 54 60 67 65 65 68
38 34 29 21 14 5 14 22 18 17 20 25 29 35 33 31 28 32 32 36 44 43 46 39 42 53 54 42 45 47 46 50 51 50 48 52 52 55 56 55 57 58 54 59 62 60 69 74 79
37 30 21 8 16 11 22 24 34 23 20 22 26 30 28 24 29 31 30 32 37 41 40 37 39 51 61 47 46 56 48 47 48 53 54 53 55 57 59 61 62 58 63 67 66 73 80 77 75
35 28 20 11 14 9 11 20 17 18 18 20 22 26 27 24 21 31 31 30 33 37 46 33 38 50 51 48 46 46 47 51 47 55 56 56 55 55 58 61 62 70 72 66 73 71 73 71 72
34 26 23 16 13 10 7 11 11 12 16 20 24 25 28 31 34 35 33 34 38 41 50 44 45 48 46 48 47 49 51 52 49 52 52 57 58 59 64 67 68 72 74 79 72 66 69 73 80
32 26 23 19 14 8 7 6 5 9 12 21 27 29 29 32 26 28 31 38 40 42 48 52 50 47 44 44 53 49 46 50 52 55 60 63 66 66 64 67 71 77 71 69 68 69 74 80 80
31 27 23 23 15 8 7 9 5 4 10 20 29 29 26 29 31 32 34 32 38 44 47 48 40 48 46 46 54 51 54 54 52 52 59 64 68 70 68 71 74 62 62 64 68 73 77 76 79
29 29 22 22 16 9 5 5 6 6 4 20 25 31 28 27 31 34 37 36 37 42 49 49 41 39 46 50 47 51 54 53 54 58 61 65 69 70 64 61 60 61 65 70 74 75 74 74 78
28 27 25 17 18 13 9 5 5 6 6 17 24 28 32 28 29 28 32 38 33 41 49 54 47 46 43 41 44 45 53 54 57 56 58 58 58 58 57 60 62 68 69 73 74 75 76 76 76
27 26 23 20 14 16 13 9 6 5 5 9 28 30 27 32 29 28 28 35 31 34 40 46 50 50 51 53 54 54 52 53 55 58 60 59 59 64 64 64 67 69 68 68 72 76 75 72 75
26 25 25 22 13 14 12 10 7 7 7 8 16 25 30 30 34 34 36 32 28 30 29 34 42 41 45 47 48 52 53 52 48 51 54 59 62 68 69 69 68 66 71 74 75 73 72 75 80
25 24 24 24 19 13 14 12 10 12 10 10 13 18 31 28 31 37 38 37 39 37 37 37 38 39 40 40 41 43 48 52 56 57 62 65 63 62 64 67 70 72 76 74 70 71 74 80 85
24 23 22 24 21 18 17 13 17 14 12 12 14 16 17 24 38 41 38 40 41 42 43 44 43 44 45 49 51 51 53 57 60 60 57 59 61 64 68 71 72 72 71 71 73 76 81 83 82
25 22 22 21 23 22 19 15 15 15 20 18 15 17 20 21 23 23 25 28 30 34 38 46 51 52 53 51 51 51 50 52 55 57 61 64 66 69 68 69 69 67 69 76 79 80 78 81 85
23 22 23 21 20 23 21 19 16 18 16 18 18 18 20 21 23 28 33 36 38 39 39 40 41 42 43 46 49 53 54 56 60 62 61 63 65 66 68 68 69 70 73 75 76 78 81 86 88
25 23 23 23 20 19 22 21 16 17 21 23 21 22 23 26 28 29 31 33 35 37 38 40 42 43 45 47 50 53 55 58 61 61 59 59 62 66 70 72 70 70 73 74 75 82 85 88 91
26 24 24 24 23 20 21 23 16 15 17 23 26 27 26 27 28 33 37 37 38 40 41 43 45 45 47 48 50 50 52 55 57 57 58 60 65 69 74 74 70 70 72 77 79 84 87 90 93

GFSSGP_250_spd_078.txt.gz
Wind_Speed
74 76 73 71 72 67 68 67 62 62 56 49 44 36 34 26 14 15 35 25 47 61 64 67 74 75 81 85 87 85 86 86 85 84 83 81 80 77 75 75 73 72 72 73 72 72 75 74 75
71 71 68 69 65 66 67 60 58 50 44 38 24 20 15 16 30 56 43 44 39 62 72 56 56 73 78 83 87 86 86 85 87 86 86 84 81 77 76 77 75 77 76 76 76 77 77 77 77
68 64 64 62 62 63 60 56 53 39 31 24 16 11 16 49 61 55 43 31 42 51 61 64 58 59 69 81 83 86 87 87 88 87 84 82 79 79 79 79 77 77 78 78 78 79 79 80 82
61 62 60 62 63 61 59 52 41 20 18 14 10 10 44 49 65 50 55 40 32 44 53 48 50 52 61 70 73 77 79 81 81 82 82 81 81 79 80 79 79 80 81 80 80 81 81 82 81
59 57 60 60 59 58 55 44 23 5 7 6 7 11 55 47 51 50 54 52 31 32 49 36 35 33 43 53 60 71 75 75 77 79 80 79 79 78 80 81 80 81 81 81 82 81 79 79 79
54 55 58 61 62 57 50 32 2 17 23 16 1 12 61 57 50 44 42 56 47 20 31 30 27 30 25 37 53 54 69 72 72 73 72 74 75 75 74 75 78 77 78 77 79 76 76 74 72
51 55 58 59 56 51 34 21 27 28 17 15 16 23 52 63 53 41 43 56 35 12 35 24 40 34 33 31 41 46 51 60 69 67 66 69 66 68 70 72 71 69 68 69 71 71 67 64 62
51 55 57 58 53 43 30 9 33 24 34 32 33 28 35 65 54 52 53 47 40 42 51 43 30 39 35 35 37 41 43 50 55 50 51 57 61 63 63 64 65 61 62 59 56 59 53 49 47
51 55 57 55 48 30 15 5 28 39 42 29 30 26 27 40 47 45 47 57 52 54 45 48 33 37 28 25 28 34 30 30 31 34 36 40 44 46 47 47 44 43 46 49 48 48 49 47 49
52 55 57 51 41 25 11 2 19 50 38 42 27 32 32 37 46 58 69 66 56 64 61 67 47 39 26 20 21 22 15 19 23 24 29 33 29 31 33 39 38 35 42 44 47 48 49 53 54
53 57 56 47 41 28 10 3 9 34 47 50 42 60 37 43 62 64 59 50 62 73 63 66 47 30 34 29 27 27 28 31 30 32 31 32 35 36 35 38 43 44 47 54 53 57 54 55 58
51 55 54 41 36 30 12 3 7 21 53 56 38 50 49 56 65 59 59 57 61 66 67 59 48 38 38 34 39 37 40 38 41 39 39 44 44 40 36 44 44 48 53 49 56 59 62 59 62
49 53 50 38 30 24 11 7 8 18 40 72 53 56 63 61 66 61 59 55 53 56 57 61 49 46 42 38 40 43 39 42 41 39 46 44 42 46 41 48 48 49 52 48 46 54 55 62 53
45 50 44 35 27 15 11 9 21 25 33 29 39 55 65 61 65 63 61 49 54 59 60 60 57 52 50 42 44 48 42 46 47 48 46 48 49 50 56 53 48 54 50 53 56 57 54 56 56
42 48 41 32 22 10 16 14 13 10 17 26 29 54 58 55 59 63 60 56 60 62 64 67 63 58 52 48 47 43 50 46 50 49 51 52 53 56 53 58 56 56 54 52 54 57 59 57 59
40 44 39 31 24 5 12 6 3 10 19 20 20 32 59 58 55 56 55 58 58 64 62 63 60 59 55 55 56 52 48 54 53 43 43 52 55 55 58 57 57 61 65 63 65 66 68 73 76
39 42 40 25 23 18 13 13 8 24 17 21 19 23 40 43 39 46 60 61 60 68 62 62 56 54 57 57 62 59 53 55 56 46 49 48 52 55 56 57 59 60 60 62 60 64 67 72 78
36 39 40 26 22 22 15 9 21 31 24 19 19 21 27 33 29 35 40 46 51 42 53 53 50 51 54 53 59 63 56 53 53 52 55 57 51 52 50 53 55 52 56 62 67 71 76 78 78
34 37 38 31 23 23 20 15 13 11 10 14 18 20 28 33 36 33 37 39 38 37 40 43 47 48 51 57 56 60 51 50 47 49 48 47 50 52 54 59 59 64 67 68 75 77 80 81 75
34 35 36 33 22 20 19 13 10 9 7 12 17 23 29 35 33 31 35 34 36 37 39 44 48 44 42 48 54 53 46 46 40 40 44 50 57 57 59 58 62 67 71 77 79 78 75 71 74
34 33 32 31 26 20 18 17 11 6 5 14 15 24 28 31 29 30 35 36 40 40 41 43 53 51 44 46 50 52 46 48 51 54 56 56 59 61 64 65 67 68 68 71 69 66 70 72 74
33 31 28 29 27 20 17 16 15 11 10 14 21 18 29 30 32 33 33 32 34 32 37 43 48 54 55 46 39 46 51 57 59 57 58 61 60 63 66 71 70 67 63 66 67 72 74 78 77
32 30 26 28 24 22 15 16 16 12 11 11 20 23 24 31 28 28 35 34 39 38 39 41 40 50 53 47 47 49 47 49 54 58 58 63 65 64 62 63 61 63 66 69 74 76 77 78 77
32 29 26 25 24 23 17 12 12 13 10 10 12 26 28 28 33 31 28 27 33 40 37 34 37 43 49 52 51 50 54 56 56 58 60 62 64 65 63 66 68 67 69 74 76 76 78 80 80
32 29 26 23 22 22 22 16 12 15 11 13 12 13 30 30 31 31 35 39 38 34 38 35 34 32 41 48 51 54 52 55 55 54 55 58 59 61 64 67 71 72 71 75 77 78 81 79 79
33 30 26 23 23 21 22 19 15 14 16 14 15 16 16 28 32 33 35 36 40 46 43 40 41 42 42 42 45 47 49 50 51 54 58 59 61 66 70 71 68 69 74 78 76 77 78 79 80
34 31 26 22 20 18 19 22 18 19 18 19 17 18 19 22 22 27 40 35 34 39 44 44 44 43 48 48 51 50 52 55 56 59 65 65 63 64 66 69 71 73 76 79 78 78 78 80 81
35 31 28 23 20 18 18 17 19 17 18 19 20 20 20 23 25 25 25 27 28 34 34 36 37 40 42 44 49 52 55 59 57 60 63 65 66 68 70 71 74 77 77 78 76 79 80 81 83
36 32 30 26 20 19 19 15 19 18 16 20 21 20 23 24 26 27 28 29 31 31 37 40 42 43 44 46 49 53 53 54 58 60 62 63 67 68 70 70 71 72 78 78 79 79 80 77 78
33 34 31 29 22 20 19 16 17 16 17 20 20 19 26 28 30 32 32 34 37 37 40 43 44 43 44 47 51 54 51 52 58 59 61 63 62 65 68 70 73 76 78 76 77 77 80 82 87

GFSSGP_250_spd_081.txt.gz
Wind_Speed
74 76 77 74 74 73 72 68 69 66 59 58 55 51 44 41 43 36 34 46 44 30 22 33 29 34 39 46 52 55 54 75 85 86 83 84 85 82 83 82 82 82 78 76 73 72 73 73 73
75 73 70 71 70 66 65 66 61 58 54 50 43 41 28 31 34 30 41 41 36 41 37 50 39 32 37 43 48 52 58 64 75 83 84 83 86 86 86 86 85 81 81 75 74 74 76 75 74
69 69 67 62 63 60 61 59 57 51 42 28 23 22 20 27 29 33 35 35 32 44 44 26 35 36 36 45 55 57 55 51 60 75 79 82 85 86 87 86 86 83 80 78 78 78 76 76 76
65 62 58 57 54 57 59 55 52 39 27 19 12 23 35 48 45 45 45 27 43 31 23 13 33 36 45 38 42 56 55 48 51 62 72 75 82 84 85 83 85 84 82 80 81 80 80 78 78
60 56 54 52 50 56 57 53 43 29 20 14 22 42 50 60 58 45 39 38 34 24 29 28 36 39 31 33 36 33 35 40 49 56 65 72 74 78 79 80 81 82 83 82 81 80 81 80 80
51 50 47 47 50 54 51 44 29 20 19 24 45 53 48 63 60 50 49 40 38 29 20 27 34 29 32 33 36 32 31 36 36 43 56 63 67 68 72 75 76 76 78 78 79 78 75 75 76
47 43 43 49 50 49 46 33 24 26 27 38 66 56 39 40 55 56 52 47 41 31 33 26 31 34 30 32 30 37 38 41 41 40 43 52 62 66 67 66 67 66 68 71 71 72 74 69 68
42 40 43 49 50 48 41 22 32 34 39 50 72 54 32 41 51 56 49 44 37 36 34 36 49 37 39 38 29 38 37 39 39 42 45 47 50 54 58 61 60 56 61 62 63 65 64 66 57
36 41 46 48 51 45 33 15 39 32 37 43 73 55 44 35 56 62 48 41 40 47 58 50 48 52 39 35 33 29 32 34 37 32 28 31 32 34 40 42 46 47 50 48 50 47 44 40 41
37 41 44 46 52 42 26 13 32 32 32 34 59 47 33 35 46 63 40 49 45 51 54 60 55 40 26 41 29 26 22 23 23 23 22 24 20 18 23 30 36 39 41 40 39 40 38 41 42
36 40 44 46 49 39 23 11 27 41 32 34 42 52 39 38 47 57 46 55 62 57 51 56 56 50 49 43 34 34 34 31 32 29 25 22 19 24 29 30 29 30 37 43 37 38 42 46 50
36 42 45 46 46 36 18 4 22 47 40 40 40 40 40 36 54 65 63 56 61 61 60 62 62 53 52 58 41 29 28 31 30 26 33 27 26 32 34 36 36 37 40 40 41 43 47 52 54
35 40 45 48 43 29 12 3 21 48 40 47 40 41 39 35 56 67 64 61 65 61 64 58 58 57 56 58 47 39 32 35 33 33 38 39 38 41 40 43 44 46 42 39 46 49 51 49 46
35 39 43 45 40 22 11 5 10 38 53 46 46 46 46 40 57 62 64 66 76 69 63 62 55 62 61 53 44 43 44 36 40 39 45 43 46 46 45 43 46 48 47 44 51 53 52 52 54
33 36 41 44 44 13 9 8 12 28 49 51 53 48 47 42 51 68 68 72 82 78 71 72 61 58 56 54 47 49 51 48 44 45 42 43 43 44 45 47 49 50 51 55 56 54 56 59 54
30 33 39 42 42 25 17 6 13 23 28 49 51 53 43 50 51 64 77 76 77 83 69 75 57 63 63 60 56 51 52 52 48 52 52 48 50 51 49 50 50 53 55 57 56 58 60 61 68
24 32 36 42 42 33 12 20 17 16 27 20 35 49 65 53 60 62 69 77 75 70 65 64 61 60 62 63 55 57 56 55 55 57 55 56 53 52 52 50 50 52 55 55 59 60 61 60 64
28 29 34 37 41 36 17 11 20 16 23 15 17 27 37 39 53 65 68 62 67 65 62 60 61 63 67 65 60 55 58 59 60 61 60 56 57 56 55 59 55 57 55 57 57 58 60 57 61
29 26 34 38 38 38 26 10 11 16 30 35 19 22 28 32 53 63 61 58 63 65 65 61 61 65 71 67 65 70 64 65 62 61 64 63 62 64 66 66 60 59 60 61 64 65 66 66 69
30 26 32 36 34 37 29 21 11 8 15 24 23 22 25 34 41 56 57 61 65 66 65 67 67 62 69 72 70 70 65 65 62 62 64 67 66 64 60 58 54 56 60 60 62 64 69 73 74
31 27 31 36 34 37 33 23 13 10 10 14 19 21 24 30 39 45 52 47 46 58 68 73 68 66 67 65 66 62 60 60 64 63 65 66 69 69 68 62 57 60 64 67 70 71 72 72 72
30 29 29 35 33 33 29 25 15 13 11 10 17 20 25 25 32 40 42 41 41 44 47 51 56 59 56 59 60 61 59 58 56 59 61 65 63 58 59 63 65 67 70 69 68 71 69 71 72
30 33 30 34 31 30 28 25 19 13 8 10 9 18 21 26 30 37 33 35 37 43 44 46 47 47 48 53 56 56 50 41 41 47 50 54 56 58 60 61 63 64 64 68 72 70 75 76 78
32 34 33 33 30 26 26 21 21 14 8 9 9 8 22 23 26 28 40 37 35 34 34 35 37 41 48 51 52 57 63 60 58 58 53 54 55 58 59 62 66 67 69 70 75 79 79 79 84
30 34 36 32 30 25 23 17 17 18 11 10 10 12 10 27 27 27 28 37 36 36 37 40 40 43 42 42 44 46 49 54 61 59 60 63 64 66 67 68 71 71 70 72 74 78 79 81 81
31 33 40 33 29 26 26 19 16 18 18 13 12 13 11 12 31 31 34 31 33 36 33 34 35 38 43 41 40 41 42 47 53 58 58 60 65 66 64 65 67 70 73 74 75 76 79 82 84
35 34 36 33 30 25 24 22 18 18 18 17 13 12 15 14 16 19 33 35 32 37 36 40 42 43 43 47 47 50 52 52 53 55 56 59 64 67 69 68 71 73 72 73 77 80 82 84 84
36 38 33 34 31 25 24 20 19 20 20 18 13 15 18 16 15 18 21 23 26 31 36 35 38 40 43 47 53 52 50 50 51 55 58 60 64 66 70 72 70 73 73 72 74 79 79 81 85
42 38 34 35 32 25 22 18 18 18 15 17 17 16 17 20 21 16 20 25 25 26 29 32 33 36 38 40 44 49 49 46 46 54 54 59 62 66 69 70 69 68 68 70 71 79 82 84 85
43 43 36 35 33 26 24 20 18 19 17 20 19 16 17 20 17 17 20 20 28 31 33 37 37 40 42 43 43 49 45 43 40 49 53 56 58 65 68 67 65 67 68 74 74 75 77 79 79

GFSSGP_250_spd_084.txt.gz
Wind_Speed
66 68 73 75 79 79 75 72 70 68 65 65 64 64 57 57 61 57 51 47 49 49 58 59 38 25 22 18 21 27 47 47 47 49 57 74 79 79 76 82 86 85 83 81 82 80 79 80 75
67 72 75 80 76 71 69 69 68 65 61 59 58 56 50 50 52 45 42 43 44 49 51 50 34 18 18 13 20 28 34 40 40 46 51 53 59 74 82 76 79 83 87 84 84 83 83 78 76
69 74 74 69 67 64 62 63 62 59 55 53 51 50 42 38 35 36 30 35 44 44 38 32 40 33 34 25 24 26 23 32 41 44 50 56 51 64 71 76 81 82 83 83 84 83 81 78 80
70 71 62 62 60 57 57 60 59 56 52 51 44 37 29 26 24 24 31 38 39 42 54 43 49 43 35 16 14 17 23 33 32 39 49 56 57 52 62 68 71 75 76 78 80 78 79 78 80
61 56 57 57 54 55 53 54 58 54 47 39 30 25 25 23 26 28 31 36 43 42 47 38 41 26 13 14 18 23 28 25 28 31 31 45 49 48 52 59 64 66 69 72 76 76 76 74 77
54 55 53 51 50 50 50 53 52 43 37 25 28 23 23 44 38 33 37 46 51 36 35 33 36 34 17 34 23 32 25 31 35 42 44 41 41 48 49 52 57 62 65 68 71 73 73 70 71
52 52 50 46 45 48 51 49 39 34 28 24 32 34 51 44 44 47 49 51 51 36 43 40 36 31 23 33 34 36 37 36 46 46 47 41 41 40 41 46 51 54 56 58 59 62 66 64 64
44 45 42 41 40 47 48 39 31 28 29 29 33 44 54 56 59 50 51 57 51 50 40 43 50 44 27 54 43 47 41 41 46 47 47 44 41 40 38 38 42 47 51 55 57 58 57 61 59
37 41 38 35 39 45 43 36 24 33 33 33 37 56 55 59 61 63 58 48 48 48 46 32 40 31 28 53 49 56 39 41 37 45 44 35 30 31 37 36 42 44 45 46 50 47 47 45 45
38 37 33 34 41 45 43 36 21 36 35 38 45 63 62 63 64 59 56 51 44 48 45 43 43 39 53 46 51 52 45 34 26 26 35 34 28 30 31 34 34 31 32 35 37 40 42 46 41
30 30 33 36 41 44 40 35 18 40 38 41 44 63 68 62 64 61 56 50 47 49 61 57 39 30 50 48 60 65 59 38 28 27 34 24 24 26 29 34 34 30 33 35 37 39 39 38 37
30 30 32 35 42 45 42 29 15 40 40 43 34 60 76 65 69 61 56 53 44 51 51 55 51 47 55 53 63 51 47 39 35 37 35 31 25 25 27 29 29 29 34 37 37 34 35 36 35
28 29 30 33 41 43 43 30 23 28 47 43 46 46 69 74 72 69 60 48 51 56 56 58 55 56 55 53 53 50 52 41 39 36 33 34 36 31 33 37 37 32 35 40 39 40 42 43 44
29 28 29 32 39 43 44 27 27 16 49 49 45 53 58 74 64 72 71 63 52 59 59 61 61 62 66 60 62 50 45 39 40 39 39 39 35 35 38 41 38 38 39 41 43 45 46 49 51
29 28 26 29 35 41 41 30 27 16 46 50 37 56 59 75 54 64 60 59 56 62 62 69 74 60 65 50 55 56 47 44 48 46 40 37 36 38 39 43 43 45 43 44 46 49 52 53 56
26 24 26 26 31 38 42 40 23 23 41 49 40 51 58 55 67 58 60 59 65 61 61 59 69 63 60 60 52 56 57 52 48 47 48 44 39 43 43 44 48 45 49 50 50 51 52 55 56
33 22 27 25 28 34 42 42 28 26 19 47 45 49 53 48 53 69 59 62 64 68 64 67 70 66 63 58 60 58 57 59 56 51 51 53 53 52 52 54 53 52 54 57 55 57 57 58 61
30 27 22 24 28 31 38 44 28 27 20 22 44 54 51 48 52 51 61 61 66 69 67 72 73 76 72 62 59 59 65 66 68 66 62 60 60 61 60 62 63 62 62 62 63 63 64 65 68
36 28 23 22 23 29 36 41 35 27 20 18 33 39 55 55 57 52 54 66 65 68 73 76 74 78 82 79 73 70 70 69 58 57 60 64 62 65 67 68 66 68 69 69 68 71 73 74 71
44 33 25 21 20 25 33 37 36 29 22 15 13 27 39 49 56 61 56 61 68 69 61 73 69 74 72 77 76 70 63 67 71 70 66 67 67 67 66 65 69 70 72 74 73 74 74 70 69
44 33 25 21 21 22 30 33 32 26 23 15 11 14 21 33 41 49 59 64 68 72 64 61 62 70 72 71 66 65 64 63 67 70 67 67 65 68 68 73 70 72 73 71 69 68 70 68 68
43 38 28 21 25 23 27 28 30 29 22 17 11 11 14 25 28 32 33 48 73 70 67 61 62 64 69 67 64 66 67 63 64 68 67 62 63 68 66 60 61 61 63 63 63 66 68 72 72
51 46 32 23 23 26 26 27 26 26 22 17 15 8 15 19 23 28 33 39 59 62 62 60 61 64 68 70 68 68 63 63 61 61 58 55 52 52 53 58 60 64 65 64 69 72 70 71 69
56 47 41 29 22 23 24 26 23 22 18 22 17 15 14 17 20 24 30 38 49 56 56 58 57 53 50 51 52 53 55 54 56 60 59 56 57 56 58 62 63 64 67 68 71 72 74 74 76
55 42 41 27 25 22 26 24 20 21 15 19 24 19 13 14 20 22 31 33 40 45 50 49 47 46 47 49 52 55 57 58 55 57 61 60 58 61 66 71 74 77 75 78 78 76 75 75 77
47 44 39 30 29 21 24 22 20 17 15 15 20 22 20 13 13 20 26 29 36 40 41 39 39 41 42 45 45 48 50 50 53 52 50 51 52 56 62 65 69 73 73 72 75 76 76 76 78
48 45 46 34 27 25 24 21 20 14 13 10 6 17 20 22 16 12 15 26 28 27 34 40 44 42 39 41 47 49 49 50 53 51 51 54 58 61 62 67 73 74 74 74 74 74 75 77 78
50 50 47 39 31 27 25 23 21 12 11 11 8 3 7 15 18 18 15 16 20 25 31 35 37 39 44 47 48 49 49 50 52 56 62 62 55 58 62 65 69 72 72 70 71 71 71 73 72
58 48 49 44 36 28 28 25 22 15 12 11 12 9 6 7 10 15 17 18 20 20 24 25 30 33 35 38 44 47 48 45 45 46 49 47 48 52 55 61 68 73 74 70 68 70 71 72 77
63 52 52 47 40 31 27 27 26 18 14 11 10 10 10 7 5 6 13 17 17 19 23 26 27 32 35 38 39 40 40 39 38 38 38 41 42 45 52 66 69 71 70 69 73 72 75 79 80

GFSSGP_250_spd_087.txt.gz
Wind_Speed
67 69 69 71 74 75 76 81 77 72 71 70 68 67 66 64 65 66 66 62 61 63 60 58 56 61 70 70 50 40 28 29 38 50 52 46 47 70 82 77 77 74 78 78 81 83 88 84 85
64 64 67 70 70 75 75 67 69 69 69 66 63 64 61 58 61 64 65 60 57 55 55 52 56 59 61 49 34 26 14 18 22 27 33 31 35 43 51 56 65 76 87 90 86 84 82 84 85
64 67 68 70 69 64 62 62 64 66 66 63 58 56 53 54 54 53 53 47 51 44 51 53 56 53 44 36 31 20 14 13 17 15 18 24 27 30 37 45 51 53 62 73 77 85 83 81 83
66 69 68 58 56 58 59 61 62 64 67 64 53 53 51 48 42 41 41 40 41 37 40 41 46 40 39 45 34 17 12 8 9 16 22 23 31 40 43 49 59 62 62 62 67 70 77 80 78
70 67 54 53 56 58 54 56 60 63 59 57 57 48 39 36 36 33 31 35 35 34 38 41 39 50 54 44 31 22 9 6 9 18 22 27 29 25 27 32 35 47 60 59 61 69 71 72 73
53 48 48 53 52 52 51 56 59 56 56 54 44 34 29 35 33 30 27 27 27 30 35 40 44 46 43 38 31 26 13 8 10 21 25 26 28 29 35 36 41 43 51 58 55 57 63 65 64
43 45 48 48 48 49 47 54 51 51 48 44 27 27 28 28 30 21 19 18 27 33 36 43 43 42 34 25 36 27 22 19 17 18 29 34 33 35 43 47 45 43 40 49 51 48 53 58 60
38 47 44 44 46 41 46 46 49 45 39 37 20 27 23 26 21 21 31 28 34 37 49 46 55 39 29 35 34 32 36 21 17 22 34 36 39 41 43 49 41 38 35 36 38 44 50 50 50
44 40 41 41 35 37 40 46 48 40 35 31 24 28 27 29 30 30 36 39 39 50 48 42 46 34 22 38 30 43 45 30 25 25 38 43 44 47 50 43 36 39 33 32 36 36 38 39 42
34 37 37 34 30 34 37 45 47 38 30 27 28 29 32 34 40 41 42 48 45 42 43 46 45 38 32 44 42 51 49 41 32 30 22 36 28 32 33 35 39 39 40 32 30 30 31 33 37
38 36 34 36 31 34 37 42 46 35 28 21 30 30 38 42 40 42 47 46 43 42 40 46 47 47 33 36 48 46 30 43 34 32 32 17 25 33 33 36 38 42 42 30 33 32 28 31 33
35 36 35 38 33 35 36 39 45 30 25 23 29 34 45 44 41 48 55 51 45 41 43 40 33 44 43 35 54 48 45 53 45 36 35 23 33 35 33 32 31 40 30 37 32 30 31 37 35
36 35 34 37 34 35 36 38 41 37 25 24 29 37 50 49 47 49 57 56 51 41 35 36 27 42 44 37 46 48 46 48 41 41 41 35 31 29 26 30 40 38 33 32 29 33 41 38 38
35 34 33 30 29 32 35 39 38 40 25 20 33 35 57 58 58 56 54 57 52 48 39 37 35 42 38 37 44 50 45 47 48 45 46 41 37 32 27 37 38 37 36 35 34 39 40 42 41
39 35 26 27 31 31 34 37 33 39 30 20 32 35 57 62 64 61 56 53 52 47 42 42 40 50 50 49 49 57 52 53 50 52 50 46 41 43 45 36 39 35 36 41 42 41 46 48 47
46 39 35 32 31 30 33 36 34 37 31 23 25 42 41 57 66 66 60 58 55 47 44 50 49 49 51 55 58 57 50 54 54 51 51 49 44 45 42 39 43 41 44 44 48 49 50 51 53
43 42 37 28 29 29 32 36 36 35 35 23 26 35 45 48 71 67 65 61 58 53 48 57 57 51 59 51 59 57 53 49 57 56 48 50 45 43 42 46 47 48 52 55 60 60 60 61 62
45 50 39 35 27 30 30 33 37 35 38 24 20 30 37 47 65 73 70 64 64 55 51 57 59 54 53 61 50 60 57 58 53 49 46 47 45 50 51 55 57 61 59 62 63 64 62 64 67
44 46 41 41 33 30 27 31 39 34 38 29 20 28 39 42 54 67 76 66 69 63 58 59 63 58 62 61 60 57 54 54 53 51 56 58 64 67 69 66 63 60 62 61 63 66 67 67 68
47 45 47 43 29 30 27 28 36 34 38 34 28 21 32 44 55 65 74 78 75 68 64 57 68 64 61 67 71 67 68 64 63 59 63 66 69 71 67 69 71 66 62 60 64 61 57 61 65
47 47 56 57 49 36 29 27 29 34 37 36 29 25 21 35 45 54 63 74 73 72 78 66 71 67 65 66 70 72 74 74 74 73 70 70 71 66 66 64 63 66 67 58 60 62 64 69 68
49 55 56 55 61 37 32 28 27 31 31 35 31 24 19 27 41 44 46 64 65 64 66 76 72 71 75 73 72 77 77 75 77 76 75 74 71 70 70 71 62 68 64 57 61 64 60 60 62
57 62 63 60 59 55 38 28 24 30 27 32 32 25 20 19 32 41 42 55 59 61 63 59 72 76 72 80 75 76 71 72 72 73 71 71 69 71 74 66 63 60 64 62 63 61 62 66 66
62 66 62 55 57 55 45 29 26 28 28 29 32 21 21 16 18 26 30 35 42 53 58 58 66 69 73 70 69 67 70 69 69 75 74 70 72 65 62 60 56 59 63 61 65 66 70 71 73
65 60 64 58 52 46 32 29 26 23 27 29 30 26 14 13 14 19 23 30 36 39 39 44 52 64 66 68 65 71 65 69 66 65 67 63 57 56 56 54 58 61 62 65 67 70 71 72 73
74 74 67 57 47 40 33 27 26 20 23 26 26 26 16 6 11 14 16 24 28 31 32 37 39 42 51 58 56 56 59 59 60 59 53 52 52 54 57 61 60 61 65 70 73 71 71 71 69
70 75 66 63 50 39 36 33 24 20 20 23 22 20 16 11 11 13 13 13 21 30 32 33 36 39 41 44 49 47 49 53 57 55 54 55 53 52 55 58 63 68 75 78 74 72 69 68 66
74 72 69 64 56 39 40 37 23 19 18 23 22 16 13 11 9 10 12 14 16 18 29 34 35 38 43 47 48 48 50 50 51 52 53 52 52 54 56 60 61 61 65 68 70 66 64 67 71
77 76 69 65 57 38 43 37 30 22 18 20 21 16 14 14 14 8 6 12 19 21 20 22 26 31 36 40 43 43 43 44 45 48 50 51 50 48 49 49 52 58 64 48 76 71 76 81 81
78 76 72 61 54 47 43 42 33 28 20 21 20 15 12 13 14 13 8 5 9 14 19 21 25 27 30 31 32 31 34 37 38 40 42 42 42 35 32 41 39 38 48 70 75 81 82 84 90

GFSSGP_250_spd_090.txt.gz
Wind_Speed
62 65 64 65 65 67 68 72 72 71 71 68 69 74 73 70 69 67 68 68 65 67 64 63 60 62 63 60 62 63 65 62 61 58 56 63 64 66 63 72 74 76 70 72 77 77 77 74 76
60 60 61 63 63 67 72 73 67 66 67 67 69 73 69 65 63 63 63 62 60 59 61 61 54 57 57 55 60 63 58 58 50 41 45 41 40 48 44 44 45 48 67 78 72 71 78 80 76
57 58 60 60 62 71 68 63 62 64 65 67 66 61 59 60 61 61 59 55 57 56 54 54 51 55 57 56 59 57 50 45 40 28 26 31 31 35 37 33 34 34 43 55 61 61 69 71 74
56 58 63 65 67 60 59 60 60 59 64 68 63 57 56 58 55 52 48 47 45 42 44 44 44 47 54 55 56 43 46 41 27 18 16 20 24 28 30 28 29 31 34 39 43 57 60 60 64
63 60 63 52 52 52 56 57 56 58 63 62 62 56 51 49 46 39 35 35 31 25 22 26 26 30 47 52 48 41 44 37 24 21 16 17 17 20 25 24 25 22 25 31 39 41 43 48 62
59 61 48 42 44 51 49 48 49 56 63 62 57 49 38 36 29 28 29 29 20 23 28 29 26 30 35 44 43 42 43 36 24 13 12 17 19 18 16 13 18 18 29 40 43 43 41 39 44
46 39 35 44 41 43 43 45 48 56 60 56 50 36 23 22 21 24 28 28 20 21 33 43 40 35 37 42 37 46 42 33 24 23 21 21 21 21 19 18 18 23 31 38 29 31 33 30 33
34 35 40 39 42 43 40 43 48 54 53 51 43 24 13 19 18 22 25 24 19 26 29 39 36 29 38 44 51 43 41 36 31 25 26 24 21 18 22 25 28 31 41 26 30 34 27 27 27
34 35 36 37 38 41 39 40 45 49 49 47 35 16 9 15 24 18 21 20 21 28 31 32 35 40 44 49 46 46 39 31 28 22 16 16 14 19 25 28 33 33 27 43 25 37 27 26 23
32 34 35 34 36 41 42 40 43 46 48 43 32 12 13 20 25 25 16 16 21 26 31 32 38 39 43 41 44 42 34 28 25 21 17 20 25 30 35 30 23 19 28 26 42 27 28 29 22
31 34 34 34 34 39 38 37 39 43 49 35 28 10 13 18 27 28 22 21 22 21 33 35 36 39 45 43 46 37 31 28 36 28 22 26 30 32 25 22 24 32 29 36 35 23 30 27 23
33 32 31 30 35 35 35 36 38 42 48 35 28 10 17 18 32 27 28 25 25 22 30 39 39 45 41 37 40 36 43 42 41 38 35 31 31 32 26 24 16 23 25 25 16 27 29 27 30
33 33 33 31 33 32 36 36 35 40 46 36 26 12 18 20 31 32 30 29 28 31 31 31 37 32 44 41 37 45 36 42 44 51 41 40 33 37 37 27 27 15 23 23 21 26 27 31 31
31 31 38 32 35 37 34 35 36 39 44 39 28 19 19 26 27 33 32 36 35 33 35 38 36 36 29 33 34 38 39 43 42 38 47 47 41 37 34 32 25 23 27 22 24 25 28 30 37
37 38 37 42 34 33 32 30 36 37 41 40 30 24 24 27 29 38 34 38 38 40 33 37 40 34 33 38 33 38 43 34 50 51 54 50 44 40 40 38 33 33 27 29 32 36 35 43 51
38 41 38 43 31 32 32 31 34 35 39 41 34 28 23 31 34 42 39 41 43 38 36 30 36 26 33 37 38 37 49 44 46 47 50 51 51 48 48 44 36 36 37 38 39 43 51 54 54
38 43 39 39 36 31 36 34 35 34 37 39 36 31 22 36 36 48 45 44 47 43 33 34 28 30 34 33 41 46 51 50 50 54 55 54 43 45 44 45 44 43 40 43 49 57 59 58 53
40 46 42 38 30 32 23 36 36 34 36 40 39 33 23 24 39 54 53 50 52 48 43 41 33 38 39 42 41 46 50 54 54 59 58 55 52 49 46 47 44 47 53 58 61 62 59 58 56
48 46 41 42 30 34 20 39 45 35 34 39 38 34 27 20 33 56 59 58 52 57 51 48 42 38 43 40 48 48 55 56 55 53 43 39 46 49 49 49 51 58 63 68 69 66 61 60 61
53 50 45 43 39 36 44 49 44 36 35 37 39 32 31 21 21 49 65 64 61 62 59 57 54 45 54 44 41 57 57 58 57 54 56 57 58 55 55 55 58 62 66 63 63 62 62 56 59
56 54 50 44 43 40 44 51 49 45 35 37 39 33 35 27 22 30 55 70 70 68 63 64 61 54 54 58 52 47 55 62 61 62 56 60 63 67 67 69 75 69 68 72 59 62 58 59 54
60 59 49 47 40 41 45 49 49 45 31 36 36 33 33 32 22 22 30 61 76 74 69 63 65 62 53 55 64 62 60 60 64 63 67 69 70 74 74 72 72 71 62 59 60 61 59 60 57
62 57 52 51 47 45 50 47 48 36 27 30 33 32 31 33 24 17 21 32 49 67 74 67 63 67 65 68 59 72 71 69 67 69 72 76 74 68 65 65 65 61 57 55 58 60 59 59 61
64 61 57 57 53 49 50 47 54 32 26 28 30 29 28 31 24 16 13 25 35 45 56 68 67 62 64 65 63 68 72 74 72 73 73 73 73 71 65 67 63 61 62 61 60 63 66 65 64
65 61 59 57 53 50 55 49 52 31 31 29 27 26 24 29 17 15 14 13 24 34 45 55 58 64 70 65 67 64 70 70 74 72 70 66 58 60 58 57 57 55 58 58 60 61 62 62 64
68 67 59 54 54 56 56 40 43 29 33 30 26 24 20 23 17 17 14 14 18 26 34 37 39 53 53 53 55 55 54 61 67 66 56 56 61 63 66 66 67 64 62 57 57 58 60 65 65
68 59 59 63 63 59 48 40 43 34 31 33 27 23 16 19 17 11 15 17 16 20 27 33 36 40 40 48 45 44 45 47 45 52 54 52 60 60 57 59 61 56 54 52 53 54 57 66 67
72 68 67 67 65 59 49 43 39 40 33 32 29 24 15 15 14 14 11 15 18 20 21 26 31 36 41 46 49 45 45 45 47 51 52 51 52 58 55 51 51 49 47 46 51 59 58 57 60
75 74 74 71 65 60 57 42 44 40 36 33 31 27 21 13 13 10 9 10 14 19 19 19 19 23 32 36 38 38 38 40 42 44 44 44 44 43 43 45 44 41 37 47 45 49 53 53 65
85 80 82 78 69 64 57 43 46 40 35 37 34 30 24 17 13 11 10 9 11 16 16 15 22 24 24 24 28 30 30 31 34 36 37 39 41 44 45 43 40 39 42 43 41 47 47 50 65

GFSSGP_250_spd_093.txt.gz
Wind_Speed
62 60 62 61 60 58 57 59 62 63 65 65 65 65 70 73 72 68 68 66 66 65 67 64 60 65 64 61 65 63 58 57 54 58 59 61 56 51 66 64 64 59 64 70 68 70 71 68 66
58 59 55 57 59 57 60 60 62 61 59 61 61 64 70 69 67 66 65 60 59 57 57 58 58 58 60 59 63 60 58 54 53 52 54 56 54 55 56 58 59 61 56 60 65 63 64 65 65
53 54 52 55 54 59 60 63 59 55 57 58 59 65 64 57 56 57 56 55 48 46 46 45 47 49 53 52 56 55 52 50 51 55 54 49 44 50 49 49 42 49 42 44 48 49 54 65 71
49 51 52 55 58 57 58 53 49 51 52 50 53 59 55 49 55 53 48 48 42 36 20 21 36 38 44 48 54 54 52 49 48 48 44 41 44 30 29 32 33 36 40 36 34 39 40 37 42
43 44 43 42 46 48 43 44 43 43 43 46 53 57 53 53 51 46 41 36 28 17 11 29 38 19 23 35 44 50 47 47 43 39 35 25 24 23 24 31 35 33 32 31 24 14 21 27 32
31 32 31 28 33 35 42 41 38 39 41 47 55 56 54 49 42 30 27 25 9 15 43 48 33 10 15 19 20 37 44 40 43 40 29 21 22 20 24 35 40 36 20 11 11 15 15 21 26
29 30 32 34 36 38 39 39 38 39 40 47 53 54 49 39 30 16 17 21 9 12 36 44 37 28 17 17 16 28 35 42 41 39 42 24 25 16 16 21 27 22 22 11 11 10 12 13 16
32 32 31 34 36 39 36 38 39 39 38 45 49 52 45 28 19 8 17 22 17 9 32 50 49 50 41 28 21 28 37 35 35 36 33 35 23 17 21 22 19 14 12 16 25 18 19 21 17
32 30 31 31 34 37 35 38 41 34 35 44 48 50 44 22 16 11 16 22 21 10 38 59 57 57 47 34 32 30 30 35 38 35 29 24 25 26 24 23 20 15 16 22 17 21 14 19 18
30 27 29 28 30 31 35 37 39 34 34 41 45 51 42 16 12 15 12 18 16 7 38 51 55 57 36 30 35 36 38 40 38 34 32 28 29 26 25 22 19 21 20 14 20 26 23 26 20
37 32 33 36 36 32 36 36 37 34 35 38 43 50 37 14 9 16 10 14 12 6 33 42 43 36 38 40 42 44 45 41 35 39 39 38 28 25 23 17 16 16 18 15 19 18 25 27 21
38 33 34 32 28 33 34 38 34 35 36 34 40 46 37 22 9 13 8 10 8 8 21 29 36 38 39 41 47 45 36 41 40 41 37 40 25 18 22 18 20 18 16 15 19 24 26 20 33
36 35 34 32 37 41 38 34 33 34 35 32 38 42 35 21 16 16 15 15 12 11 13 25 28 26 37 50 41 40 49 49 41 41 35 30 22 25 28 28 28 29 24 21 19 26 23 28 31
35 38 38 34 35 41 33 28 32 31 35 31 36 39 39 22 23 21 18 18 19 16 14 25 27 21 30 46 45 44 48 52 48 38 38 31 29 29 32 36 36 33 26 26 34 21 22 25 22
40 38 40 39 39 39 37 25 25 30 38 33 34 38 42 26 22 28 20 21 22 25 17 22 30 30 29 32 43 40 44 41 33 32 40 35 33 35 33 37 36 33 30 32 26 23 27 27 35
43 38 39 38 38 40 34 20 23 32 39 34 33 37 38 31 19 30 26 23 25 31 25 25 30 29 30 33 44 38 38 38 37 36 42 41 39 44 43 42 42 37 37 34 35 33 34 41 48
48 40 37 41 41 39 35 29 22 37 35 33 34 35 36 36 20 31 32 26 26 35 33 22 34 31 25 29 32 33 30 37 42 51 51 46 46 50 44 43 40 36 38 39 41 48 48 52 52
48 40 38 42 40 40 40 36 30 36 38 35 38 36 34 37 22 28 42 34 32 33 39 33 24 35 21 33 32 35 41 41 47 46 45 50 50 52 52 50 47 47 45 49 47 48 53 53 56
51 43 43 45 39 41 40 43 33 33 40 35 34 36 32 37 25 19 44 42 40 37 44 44 31 30 26 26 32 37 39 42 45 47 46 54 56 51 53 56 49 46 40 53 54 58 62 64 70
53 45 50 50 39 37 41 43 34 35 41 47 33 33 30 34 31 16 29 50 44 45 38 49 36 37 29 32 29 30 36 43 46 51 50 53 53 53 48 51 55 51 54 51 55 60 67 71 68
54 51 54 50 39 36 41 42 40 37 41 45 37 26 28 30 33 21 16 39 49 47 42 50 46 39 42 35 35 36 37 43 43 49 48 55 55 55 55 53 57 61 61 64 68 71 69 66 61
57 61 54 46 40 39 42 40 45 40 40 42 40 23 25 27 34 27 17 17 40 40 47 47 53 48 46 44 41 43 47 46 49 54 55 54 52 52 55 60 66 68 69 70 69 66 61 56 58
55 55 48 44 40 41 46 41 46 38 39 38 35 26 24 25 33 28 19 14 25 40 44 53 54 58 55 51 52 47 56 55 49 54 55 60 65 68 69 71 69 72 74 68 66 54 58 58 56
59 56 51 42 41 41 46 32 47 38 38 36 34 26 23 22 30 28 18 17 15 32 37 35 46 49 53 50 59 61 53 55 64 65 61 65 65 67 69 71 75 73 65 56 58 59 56 56 52
60 58 58 50 47 46 48 31 45 41 33 37 33 27 24 20 26 26 23 17 13 17 23 34 42 46 50 56 56 61 59 58 57 65 72 73 76 77 80 79 64 59 55 55 59 59 55 50 50
65 60 59 59 51 49 43 39 44 42 35 37 34 28 24 21 21 23 21 17 13 11 17 22 31 34 34 35 45 58 52 55 55 55 63 64 62 67 66 67 60 57 54 52 55 52 52 51 48
67 60 61 60 52 45 42 43 41 44 37 33 37 29 26 21 18 21 20 18 14 13 13 19 23 26 27 28 31 42 43 47 50 55 50 52 54 56 52 51 52 51 52 55 49 47 48 44 52
68 64 65 60 51 50 47 46 41 45 37 38 35 30 28 23 18 19 18 17 16 12 13 13 18 26 28 28 28 31 33 37 40 42 44 46 46 47 49 50 53 52 48 44 43 43 42 43 44
63 62 61 58 55 51 49 44 45 46 43 39 31 30 30 28 21 19 17 14 11 11 9 13 15 17 23 27 30 32 32 34 39 40 43 45 46 48 51 53 51 48 44 45 43 43 45 45 50
69 67 60 56 52 55 56 49 49 50 45 36 32 29 32 31 26 21 19 16 15 11 5 8 12 16 19 20 23 24 28 32 34 33 35 39 41 42 43 44 45 45 43 43 40 43 45 47 50

GFSSGP_250_spd_096.txt.gz
Wind_Speed
63 60 57 58 57 58 57 55 59 58 56 57 59 61 64 65 66 65 63 63 62 62 60 61 60 57 58 61 63 61 66 62 61 63 63 67 67 66 69 67 64 62 63 65 61 63 65 67 68
57 56 54 52 51 53 49 52 54 55 55 56 57 56 59 62 62 61 60 58 57 55 49 46 43 42 43 48 53 55 57 59 58 59 57 54 58 55 58 56 45 55 55 53 52 50 50 58 59
51 49 47 46 47 47 45 44 46 51 53 51 51 54 55 56 58 57 55 53 52 45 35 27 24 19 16 22 31 48 49 53 54 53 52 48 40 32 30 28 42 55 50 49 46 49 51 55 58
43 41 41 39 35 35 36 37 37 39 42 46 48 50 49 48 48 48 47 43 38 32 23 9 9 11 23 30 30 32 44 47 50 50 47 45 39 48 39 44 48 54 51 45 38 36 40 41 46
35 32 29 25 26 29 31 33 37 38 42 42 43 46 47 47 46 42 39 35 27 20 23 21 13 20 39 31 31 23 31 39 44 45 43 45 44 50 42 48 51 45 33 30 25 28 25 24 26
35 29 29 26 28 29 33 34 35 37 37 40 44 43 44 44 43 37 35 27 19 29 34 33 33 40 46 38 29 15 20 30 39 42 41 38 43 46 44 34 31 33 32 30 29 28 24 14 12
34 34 32 33 31 33 33 34 36 37 37 38 38 40 41 42 36 31 25 14 18 36 36 37 31 56 47 22 27 20 20 16 34 38 37 34 37 39 33 33 30 31 30 28 22 19 20 17 11
37 36 32 29 28 32 33 35 37 36 37 33 35 40 41 37 30 24 19 6 18 36 41 39 42 50 41 38 43 22 20 21 25 34 33 32 32 24 24 25 27 32 30 26 23 17 19 12 12
40 36 32 29 31 35 36 37 34 36 38 36 34 39 42 33 29 22 12 4 13 30 45 50 49 56 52 55 41 23 12 24 29 36 33 37 26 22 28 25 26 23 30 25 17 17 20 11 10
41 39 33 34 37 35 34 32 35 35 37 35 33 37 43 32 22 23 7 9 5 14 47 54 48 54 64 56 40 34 49 35 32 36 35 35 29 30 23 32 26 29 24 21 16 19 20 16 14
40 41 37 34 36 36 32 36 39 34 34 34 31 34 38 34 32 20 10 12 7 9 43 53 46 51 59 53 43 30 37 34 30 28 28 31 28 31 31 28 29 26 22 17 17 17 10 16 17
42 42 39 37 34 35 35 35 33 27 29 29 27 31 33 31 34 17 13 12 7 10 31 53 54 52 55 49 47 40 37 32 27 27 32 31 35 35 33 31 32 25 17 11 18 20 14 17 17
46 46 40 38 35 34 37 34 37 27 21 29 27 28 32 33 35 22 19 15 12 13 12 44 56 51 43 47 46 41 45 36 29 29 33 37 36 33 33 34 32 31 26 13 17 20 23 16 25
48 48 42 39 37 37 36 31 33 21 26 29 28 26 29 34 33 29 22 17 19 12 13 28 43 55 43 46 46 45 45 38 39 39 39 39 42 39 30 26 27 26 28 24 17 21 24 19 24
50 50 45 42 38 39 36 29 33 29 26 32 28 26 29 33 34 28 18 23 22 20 16 22 23 36 28 40 36 43 37 39 36 43 42 43 42 46 36 29 28 26 29 27 26 28 28 30 30
57 51 51 46 38 40 39 33 33 32 28 31 34 31 27 30 33 28 16 26 23 27 22 20 27 30 29 26 45 24 30 41 44 45 45 40 38 33 32 33 35 27 33 30 33 31 29 33 42
58 55 56 45 41 38 38 35 31 33 31 28 34 37 27 28 32 28 20 29 24 33 31 25 25 30 30 28 37 30 43 47 46 47 43 38 39 42 36 39 38 36 38 38 39 35 33 42 39
65 55 49 47 48 38 37 38 29 32 35 29 32 35 32 23 29 28 21 18 32 36 37 29 30 32 30 31 33 38 37 50 45 47 38 38 37 37 36 40 32 35 38 42 37 43 50 44 49
58 57 53 53 50 44 37 40 36 30 37 37 34 37 39 19 25 25 24 20 39 34 39 35 32 35 31 27 26 32 39 42 42 42 42 41 39 42 46 46 43 52 50 50 54 55 44 52 49
65 57 50 55 50 46 40 39 41 30 34 33 34 37 36 19 23 25 24 20 25 43 31 43 35 33 37 31 30 29 35 40 39 41 44 49 52 49 49 52 53 54 56 56 54 53 55 54 59
61 55 55 55 51 49 40 37 42 31 34 34 31 33 33 19 23 26 24 21 16 39 43 43 44 35 36 33 38 38 39 43 44 48 46 49 51 50 51 51 53 55 52 60 55 56 58 57 67
53 66 61 55 55 52 39 36 43 35 35 34 30 31 31 23 21 27 24 22 14 25 48 46 50 45 36 36 38 40 39 42 42 48 49 52 56 57 53 58 58 61 64 61 64 66 68 70 76
55 59 64 60 58 58 42 39 47 38 33 33 29 29 28 24 20 27 24 21 15 13 37 51 45 55 50 43 40 39 38 44 46 46 44 47 47 53 53 55 58 59 58 61 66 67 74 74 71
69 65 64 67 64 51 44 41 44 42 29 33 32 30 26 26 20 24 25 22 15 14 24 45 49 48 57 51 52 49 42 45 45 46 50 54 55 55 55 58 61 63 69 73 74 71 62 61 55
67 67 65 65 54 44 43 45 44 44 33 36 35 30 25 25 20 22 24 22 15 17 12 29 43 45 54 60 52 51 56 51 58 53 54 58 55 61 64 65 65 65 69 70 70 71 64 61 55
68 72 65 60 56 51 47 47 45 45 38 37 36 30 28 21 20 21 23 22 16 14 15 16 31 40 42 47 49 53 52 56 62 60 59 60 65 69 67 73 73 69 64 68 71 67 65 60 54
67 69 69 68 64 55 49 50 49 49 42 39 38 33 29 19 19 20 19 22 19 14 14 13 18 29 36 39 41 44 46 48 53 60 67 68 64 61 63 65 64 63 61 59 60 55 56 54 60
64 64 63 63 60 57 57 57 52 45 45 42 40 37 31 18 18 22 19 20 19 16 12 16 16 21 30 32 32 36 40 41 44 47 48 48 50 51 52 53 54 55 57 55 53 55 58 59 54
79 76 71 70 65 64 58 53 54 42 48 44 43 42 36 23 19 25 23 18 18 15 11 14 17 19 21 27 30 31 33 37 40 40 42 42 46 48 49 51 52 52 53 55 55 51 51 49 49
75 74 76 74 72 68 62 55 54 52 51 45 43 45 40 28 27 24 30 21 19 18 15 11 15 18 22 23 28 32 38 39 40 42 42 44 46 46 47 49 51 50 48 45 46 46 49 47 48

GFSSGP_250_spd_099.txt.gz
Wind_Speed
54 57 60 59 56 55 52 50 52 50 51 52 53 55 59 60 63 65 64 63 61 60 58 56 55 54 53 54 55 56 57 60 63 66 68 69 72 76 77 75 73 73 70 72 71 69 60 65 57
50 53 55 54 51 45 45 47 47 47 47 48 49 51 54 58 59 59 59 59 57 55 52 47 46 45 42 37 33 35 40 45 51 60 60 62 64 66 68 69 67 66 66 66 64 62 59 54 47
44 44 45 43 42 42 42 39 38 39 41 41 44 46 49 53 55 57 58 56 53 52 47 41 36 30 18 10 2 8 16 31 42 47 49 54 57 57 54 51 53 49 49 46 50 50 49 41 43
39 39 38 36 34 31 34 32 31 32 34 38 41 44 45 50 52 55 58 53 47 45 36 28 27 25 22 9 7 13 29 26 32 42 45 47 49 42 37 33 30 26 27 27 33 39 35 34 38
35 36 35 30 32 32 33 34 36 34 35 36 38 41 42 44 47 47 48 46 42 38 24 25 27 29 25 8 15 23 28 32 27 33 43 45 40 34 34 28 27 23 24 29 37 43 39 38 38
35 35 35 35 37 33 32 33 34 35 37 36 36 37 42 41 40 42 41 38 32 27 28 36 39 29 19 21 28 48 38 37 30 20 36 41 38 34 33 39 38 36 43 46 44 44 39 31 25
39 34 39 36 37 31 29 33 35 36 38 37 38 40 37 35 35 37 35 24 20 28 38 45 40 35 28 33 43 33 44 33 25 21 26 38 38 37 35 45 45 46 45 40 47 38 35 28 26
42 41 38 40 37 36 32 34 33 35 37 39 41 40 36 32 32 41 28 19 16 24 50 50 43 42 46 54 61 46 37 29 22 21 18 31 33 34 37 50 52 42 45 48 40 38 35 31 27
47 47 43 43 39 37 32 33 32 35 38 41 41 40 36 30 31 35 26 18 10 15 43 42 42 39 47 51 54 56 43 31 37 19 14 25 31 30 36 44 50 42 29 32 32 28 30 27 23
52 48 50 43 41 38 36 32 32 35 39 39 36 29 30 28 28 30 26 14 13 8 17 32 38 44 50 52 40 49 37 35 39 37 20 29 29 25 29 29 30 31 28 35 33 33 28 27 22
53 52 52 46 43 37 39 34 31 35 39 35 27 27 33 28 27 29 29 11 9 9 10 31 37 57 56 53 57 59 44 39 35 38 31 29 29 28 23 28 31 29 24 32 29 29 29 29 29
51 57 54 50 43 39 39 37 32 32 36 30 28 30 27 27 27 27 30 15 10 12 10 37 43 56 64 55 53 54 54 41 56 48 39 33 41 29 29 32 32 28 29 26 31 30 31 27 26
49 59 55 52 46 44 39 39 32 33 30 28 29 24 27 30 28 26 29 17 13 12 16 20 53 54 59 59 56 56 52 48 53 46 34 36 37 34 34 33 28 29 28 27 26 34 30 20 21
55 56 55 54 49 45 39 40 30 35 32 31 26 30 29 27 30 24 27 16 17 15 14 18 46 56 60 63 59 59 52 61 55 58 42 35 36 40 39 33 34 33 31 28 20 18 25 20 18
55 54 58 55 53 46 41 40 35 36 34 30 28 30 27 29 28 27 24 24 22 19 16 17 38 55 51 55 62 72 62 52 49 49 50 38 38 38 41 41 39 32 33 31 27 22 21 23 24
54 53 54 62 51 48 41 44 38 37 34 31 30 26 33 31 27 26 22 25 27 24 22 21 19 46 47 45 54 59 54 55 45 43 46 45 35 39 41 43 36 36 38 30 27 24 23 29 28
53 49 56 64 51 48 43 48 42 33 34 31 26 27 34 34 30 25 19 23 19 28 30 25 26 30 35 33 41 47 44 50 49 52 48 45 41 39 39 41 39 39 39 33 28 32 34 35 36
53 49 61 61 52 40 44 50 43 36 35 35 28 29 30 32 29 25 19 20 18 33 32 32 25 32 37 33 32 32 29 29 48 54 49 44 43 43 40 40 39 32 36 36 31 28 33 39 38
56 55 58 57 53 34 50 47 45 38 35 36 31 27 27 30 27 24 19 21 22 33 36 38 32 30 38 41 39 41 34 31 38 45 47 48 48 42 40 35 36 38 35 38 35 39 44 46 50
55 50 50 63 54 42 52 43 45 40 36 37 35 26 27 26 28 23 21 22 24 20 35 41 39 33 37 40 35 36 41 29 33 41 47 47 46 44 38 36 36 41 38 47 39 42 50 55 54
63 47 47 56 64 46 46 41 46 43 37 32 33 28 26 24 29 24 21 22 24 14 39 45 46 40 36 38 32 40 29 31 29 43 48 42 45 43 37 34 38 41 42 47 48 50 57 59 62
65 59 54 56 60 47 53 43 44 44 40 35 34 30 24 24 28 26 21 21 22 17 30 44 40 44 38 40 30 32 33 32 35 40 47 42 40 41 43 46 45 48 56 53 54 55 57 61 65
68 66 53 52 60 52 44 42 45 46 46 39 39 33 25 24 27 29 22 18 21 18 16 36 32 45 42 41 45 40 42 42 37 40 46 47 48 48 49 52 57 61 58 59 59 60 65 65 71
62 71 62 55 55 55 49 49 47 50 48 43 40 33 27 26 25 29 22 19 20 19 12 32 36 45 48 43 46 46 47 49 42 47 49 52 51 53 57 57 58 59 62 62 64 66 64 66 70
69 70 65 69 62 50 51 53 54 49 49 44 40 33 30 28 24 29 21 20 19 20 11 17 37 42 49 49 47 47 49 50 51 53 53 55 57 60 60 58 58 60 62 63 64 69 69 72 73
72 72 70 65 66 64 58 56 57 55 54 48 42 33 31 30 28 28 23 20 19 18 15 9 27 45 49 62 52 52 51 51 53 57 56 58 58 58 60 61 61 64 64 65 68 72 77 79 75
66 72 65 63 61 66 60 57 57 50 50 47 45 36 34 33 30 28 25 22 19 19 15 11 14 36 50 55 64 61 57 56 57 57 59 57 57 58 57 61 64 66 70 73 72 69 69 68 69
68 72 75 67 65 61 62 60 56 58 51 49 48 46 39 37 35 30 26 22 22 20 19 13 13 19 39 50 57 68 63 64 63 64 63 61 62 62 63 66 67 65 67 67 68 65 67 66 66
65 58 71 72 71 69 64 58 60 63 53 51 50 48 42 41 40 32 28 22 24 21 21 18 15 16 20 36 52 58 65 67 63 62 64 63 65 63 65 62 62 61 59 59 60 62 65 64 64
70 64 59 63 68 66 66 64 61 62 61 56 53 53 43 41 43 39 32 24 20 25 22 23 19 16 18 23 32 50 55 59 61 62 59 60 61 60 59 57 59 60 61 62 64 65 64 61 58

GFSSGP_250_spd_102.txt.gz
Wind_Speed
53 54 55 58 58 59 58 50 48 45 44 47 49 51 54 55 57 60 57 60 60 58 59 57 57 55 56 53 53 55 50 56 57 58 61 65 69 72 76 79 79 78 78 78 79 80 79 79 80
45 46 49 50 50 49 49 44 43 40 41 42 45 46 49 48 50 54 52 57 57 55 51 54 50 46 47 43 45 43 39 39 39 45 48 51 57 61 62 65 67 71 73 71 69 65 73 70 70
42 44 46 46 46 44 45 40 39 38 37 40 40 42 44 47 47 50 51 52 55 53 49 46 43 41 38 39 31 24 12 1 6 14 22 38 42 44 54 58 60 59 61 65 67 64 64 60 59
45 40 43 44 44 37 38 37 34 37 36 37 38 40 42 41 47 47 50 51 52 51 47 38 38 35 32 26 30 22 17 3 13 23 21 27 34 40 46 48 50 48 44 43 37 37 45 44 46
47 42 40 40 41 36 36 35 34 34 33 33 36 38 39 38 37 42 45 45 47 43 41 36 24 29 31 35 30 27 15 7 16 25 30 24 20 30 34 33 36 35 24 25 25 22 25 26 27
52 49 46 43 38 37 34 35 36 35 34 34 38 39 40 33 41 37 42 40 40 35 33 23 38 39 43 42 34 31 6 20 25 29 32 26 25 21 28 27 30 21 24 26 24 22 22 25 27
58 53 48 45 41 36 35 35 37 34 35 35 38 38 43 39 38 35 37 38 32 28 25 33 45 50 47 42 39 37 37 41 38 25 30 22 21 41 34 29 28 28 26 23 21 24 34 39 38
59 57 50 49 42 43 37 34 37 36 38 38 40 42 45 42 35 32 32 36 28 27 22 43 46 41 44 41 43 43 49 53 40 24 24 24 13 22 36 42 32 32 22 31 35 32 45 45 43
58 54 49 49 47 42 43 33 37 34 37 38 39 38 38 33 35 32 30 32 26 26 21 30 53 36 37 36 39 44 49 54 28 26 24 20 15 15 24 30 35 39 35 43 44 41 42 43 43
55 55 51 50 47 44 44 37 35 35 37 37 37 38 31 32 33 31 27 26 29 24 18 23 50 33 38 36 35 47 44 54 62 34 23 22 22 21 24 26 38 47 43 43 42 40 41 42 37
61 54 57 53 53 46 43 42 35 34 37 38 37 38 30 23 33 35 28 24 25 24 18 21 36 37 33 35 41 48 39 49 54 43 28 27 28 22 23 27 35 51 45 43 35 34 35 34 33
59 57 58 59 54 49 42 44 38 37 35 39 36 37 35 32 32 33 28 25 22 18 18 17 24 41 35 36 49 54 40 49 56 36 32 34 30 22 26 37 38 50 47 45 33 35 32 31 33
67 62 59 60 59 50 48 44 42 40 35 38 38 37 34 31 29 35 34 23 21 17 18 14 31 40 44 47 57 48 52 40 43 39 34 39 33 25 31 34 33 32 35 41 32 32 28 31 33
70 65 61 62 59 55 52 47 41 48 36 36 37 38 35 26 29 29 35 23 19 17 18 15 35 45 56 57 57 51 54 52 51 39 46 43 42 33 36 32 36 35 40 31 29 27 27 27 30
75 70 67 62 60 56 55 44 44 48 39 36 38 37 36 34 35 32 30 25 21 17 20 18 34 52 62 57 55 52 56 48 48 51 56 42 37 32 39 37 36 36 34 32 29 29 29 30 30
79 65 63 56 60 56 56 41 47 43 37 38 38 36 36 29 30 27 33 27 18 13 24 23 32 52 64 62 62 61 59 54 58 53 58 57 51 38 38 42 39 36 37 36 32 32 25 20 27
77 64 60 53 58 54 50 41 47 43 34 39 38 37 33 30 32 26 30 24 17 9 25 29 22 45 66 66 66 62 64 60 63 59 51 48 51 48 48 46 42 39 40 37 35 31 29 27 26
70 66 57 51 54 55 48 40 46 45 35 40 39 38 32 32 28 25 27 28 16 12 22 34 33 27 64 72 67 66 61 67 63 64 66 51 48 51 51 48 43 46 40 34 28 29 34 30 29
67 61 51 51 55 59 52 42 45 45 36 38 38 37 32 32 26 24 26 28 18 14 11 35 42 31 29 66 68 66 65 66 65 64 63 60 53 51 53 48 42 41 44 37 34 33 35 36 34
61 57 49 53 58 63 52 45 49 47 35 40 39 33 32 33 29 26 27 27 23 18 13 34 43 38 33 32 50 65 61 59 52 53 66 62 63 55 52 46 43 37 41 42 38 41 41 42 39
59 53 52 55 60 63 58 45 44 44 37 41 33 34 35 34 29 26 25 26 27 20 14 20 42 41 41 30 41 42 40 43 39 40 38 42 58 59 54 47 46 40 37 36 40 42 45 47 45
55 56 57 60 66 62 57 46 42 48 39 38 35 37 38 37 33 27 23 26 28 21 14 16 38 45 47 38 44 44 42 39 40 37 39 42 43 51 50 44 42 41 38 38 39 41 49 52 52
54 58 59 58 66 68 54 47 44 47 44 41 38 39 39 38 37 28 25 25 26 23 17 13 32 49 50 47 40 48 40 35 46 37 36 46 47 47 48 47 46 42 41 38 43 52 59 59 58
56 58 60 60 66 64 50 51 42 41 47 43 40 40 41 42 38 30 27 24 24 25 18 13 20 48 48 50 45 46 45 43 43 45 41 39 49 50 47 49 46 44 47 48 55 61 63 62 66
54 60 60 61 64 52 53 54 46 47 50 47 44 42 42 45 38 32 28 24 23 27 19 14 14 40 46 54 52 47 46 42 45 47 45 45 49 52 51 52 49 51 55 59 62 66 66 67 67
53 62 60 63 66 57 57 48 48 52 53 51 49 45 44 47 41 34 32 26 25 25 22 16 14 23 46 53 54 51 49 49 51 47 50 45 47 53 56 54 56 58 60 62 64 66 68 69 69
56 59 63 64 69 67 57 48 46 54 54 52 55 52 44 43 42 31 31 28 26 20 25 19 14 17 39 51 52 55 51 53 53 52 52 51 51 52 53 55 56 59 61 65 68 70 71 69 70
57 64 67 66 68 74 66 59 54 52 53 48 51 49 46 42 42 38 33 35 30 17 22 24 18 13 20 47 53 56 57 56 55 56 56 55 54 55 57 58 61 64 66 69 71 73 75 74 76
61 62 70 70 67 68 73 65 61 63 60 56 58 54 48 44 43 41 37 36 36 19 18 23 21 18 15 24 52 58 61 61 61 61 60 62 62 62 63 65 66 67 66 66 68 72 74 79 84
59 65 75 72 68 68 70 63 56 64 63 62 64 54 51 48 46 42 41 40 39 31 20 20 20 22 20 18 26 48 60 66 63 62 62 64 67 68 69 71 70 71 73 74 76 79 81 80 79

GFSSGP_250_spd_105.txt.gz
Wind_Speed
49 48 50 49 53 57 55 51 55 51 49 47 45 41 41 41 42 47 51 51 50 52 56 58 59 58 58 61 59 58 59 61 62 59 61 61 63 67 70 71 74 76 76 78 80 81 81 82 82
41 42 46 48 50 54 55 48 47 48 48 48 44 43 42 41 40 45 51 51 48 47 52 51 52 49 48 47 50 48 46 47 50 50 51 52 55 53 55 59 61 64 67 70 72 73 73 72 72
44 45 42 45 48 50 54 53 46 46 43 42 42 39 39 38 38 44 46 46 50 47 49 47 46 45 41 42 39 34 34 27 10 11 9 15 26 36 40 44 46 52 54 55 56 58 61 63 63
51 49 48 48 51 50 48 49 47 45 42 34 35 37 39 36 32 37 40 44 44 46 45 42 41 37 36 32 32 28 23 27 20 5 7 11 8 13 26 34 32 34 41 46 46 47 46 47 47
57 55 53 54 52 54 51 47 46 43 38 35 32 34 33 32 35 35 38 41 41 41 46 39 38 35 32 29 24 35 39 29 15 9 19 19 15 9 24 22 28 27 31 35 32 35 26 25 25
59 59 59 58 60 58 57 49 42 37 37 35 34 36 36 36 41 41 37 38 38 38 42 41 33 28 24 32 44 47 42 26 16 14 9 15 17 14 23 28 29 26 21 24 18 18 22 19 17
60 62 63 58 61 63 61 57 42 39 35 34 32 35 37 34 39 40 39 36 37 37 40 41 29 25 40 46 53 51 43 30 22 13 13 23 22 21 19 28 28 18 19 19 24 24 20 21 22
55 52 53 60 56 57 60 59 50 40 35 35 32 31 37 35 40 40 35 34 35 37 40 39 29 43 48 58 62 55 43 33 28 29 14 26 23 17 15 26 31 26 24 18 29 32 26 32 28
59 56 52 57 57 58 57 56 52 47 37 34 36 30 29 33 36 41 39 38 35 34 36 36 28 52 55 54 54 52 39 34 38 33 31 41 23 21 7 12 28 30 28 25 32 24 14 16 26
64 61 60 60 58 58 55 55 53 50 42 38 32 33 29 30 33 37 41 36 36 38 34 33 28 54 58 60 59 51 39 39 48 43 31 37 23 20 9 12 24 30 27 34 22 29 36 35 32
69 68 67 62 59 58 58 54 52 52 45 41 32 33 28 30 32 35 41 42 36 37 40 32 27 22 61 51 50 45 45 51 51 45 46 39 24 30 14 14 15 23 31 33 36 38 38 37 26
69 72 62 59 62 60 59 52 51 53 52 48 32 34 30 29 32 34 42 42 37 31 36 27 23 20 31 63 40 33 34 53 54 47 47 43 29 28 16 7 15 20 27 39 39 35 37 37 27
74 67 58 55 56 60 63 58 55 50 56 51 35 33 34 26 32 35 38 40 36 32 34 26 20 21 23 30 44 23 22 42 40 47 40 39 34 30 24 16 18 23 25 41 40 39 34 31 29
74 74 67 67 67 66 63 60 55 54 60 52 40 33 37 27 29 32 35 39 42 35 32 28 19 26 23 26 36 30 37 40 44 56 40 33 39 32 29 22 20 29 26 34 42 45 41 32 32
77 76 72 69 72 71 77 50 60 63 60 56 43 35 37 28 27 29 30 40 40 38 27 23 19 27 27 31 32 43 38 35 42 47 43 46 41 34 32 26 26 30 31 31 42 47 45 39 32
83 83 74 76 78 80 85 59 68 60 55 56 43 37 37 34 28 27 30 35 39 37 26 24 22 32 34 37 40 50 43 44 50 48 41 41 48 42 34 30 23 31 34 32 37 40 42 34 28
90 86 84 76 82 82 85 58 57 52 52 52 43 40 32 35 30 28 28 33 36 35 29 24 27 35 38 41 48 56 51 50 56 60 51 49 52 46 36 27 27 26 33 33 37 36 40 35 28
90 91 89 83 81 76 71 57 53 51 50 48 44 39 32 35 30 31 23 31 33 29 29 22 31 32 39 40 53 62 59 56 53 53 61 54 53 47 41 42 41 38 35 37 37 41 42 37 33
96 96 92 87 79 71 67 51 52 50 53 48 43 39 35 35 34 30 23 31 33 34 27 27 26 31 38 35 54 62 63 59 57 50 63 58 51 49 48 49 40 37 40 43 46 43 42 38 33
99 100 98 82 72 64 61 49 49 42 50 47 42 37 36 31 25 27 21 30 32 32 31 25 24 38 37 39 44 62 65 61 60 58 57 58 60 52 43 41 41 42 41 43 47 43 42 35 35
106 105 93 76 66 59 61 46 48 44 45 53 41 41 35 32 27 28 22 28 29 28 31 23 25 30 42 38 38 50 69 68 66 66 65 61 58 55 56 49 47 46 42 49 46 47 49 43 42
103 99 85 72 59 53 59 41 44 44 47 51 43 36 36 36 30 28 25 30 30 30 29 27 23 26 46 42 41 46 59 66 72 66 60 60 61 59 58 55 56 58 53 53 47 44 46 47 46
95 87 76 69 59 50 54 42 46 49 50 50 41 40 42 34 29 29 28 29 30 28 26 30 23 24 37 51 43 39 39 63 71 72 66 63 68 62 58 58 55 60 59 57 52 48 47 48 52
92 84 76 59 56 42 53 50 47 51 50 50 46 43 39 32 30 31 31 29 32 28 24 27 22 22 26 47 50 43 38 38 54 61 69 55 54 58 53 46 51 59 56 60 60 53 52 54 56
82 79 74 57 53 38 54 49 45 47 50 54 51 46 38 34 34 33 31 30 30 29 26 24 21 20 24 39 47 44 47 41 40 44 50 54 52 44 44 42 40 50 54 59 60 56 52 58 60
80 82 69 57 50 45 50 47 49 59 56 58 54 49 38 35 37 37 34 31 32 30 24 20 20 20 20 28 47 49 52 48 43 45 48 47 55 46 46 47 50 53 55 57 60 59 60 62 64
84 70 69 51 48 41 47 52 58 58 52 50 46 48 42 39 39 40 37 35 32 31 25 18 20 19 19 18 44 51 58 54 48 48 48 47 49 48 55 50 54 56 60 60 62 65 66 65 66
74 67 60 46 44 42 48 55 59 60 50 53 50 51 46 46 41 43 37 32 29 32 27 24 21 20 18 17 28 52 56 57 56 54 50 48 47 50 50 51 54 60 62 65 67 67 67 68 69
75 60 52 47 43 45 52 55 58 53 58 56 51 50 51 47 44 44 40 32 31 34 30 27 23 21 18 18 17 37 56 55 59 57 55 53 53 55 54 54 55 57 62 64 67 69 69 71 72
64 57 47 44 48 50 53 58 64 52 49 61 56 49 54 53 49 48 40 35 35 36 28 31 30 26 20 19 18 19 41 53 56 59 58 57 58 60 61 61 61 61 64 66 68 70 73 74 76

GFSSGP_250_spd_111.txt.gz
Wind_Speed
49 48 48 48 47 46 44 46 46 50 50 51 51 49 46 48 48 47 42 40 42 44 46 49 53 57 59 61 63 68 71 75 78 80 79 80 83 86 88 86 87 89 87 87 89 88 87 88 87
48 49 47 46 48 47 45 47 48 50 52 53 53 53 51 52 53 53 52 45 47 47 46 46 47 49 51 52 55 60 64 66 70 72 73 72 74 75 74 77 78 77 78 80 80 82 79 78 80
51 51 51 48 45 47 49 50 52 55 56 54 53 55 56 55 54 56 56 54 51 48 46 45 45 46 49 48 46 50 56 59 61 62 63 60 60 62 60 63 66 70 69 70 71 72 72 69 69
51 50 48 50 50 52 52 55 56 55 55 59 58 56 58 56 53 50 54 54 49 47 44 40 41 43 44 43 44 46 49 49 49 51 53 51 50 53 54 56 58 63 64 61 59 60 57 56 57
50 50 52 55 54 56 55 54 55 52 52 53 54 53 50 51 47 49 50 50 45 47 43 40 38 39 40 39 40 41 39 34 36 33 33 36 34 29 28 29 36 48 53 53 51 46 44 46 48
50 50 54 56 59 57 55 56 54 50 50 51 52 52 46 44 42 44 50 51 48 49 44 36 35 36 36 35 35 33 22 22 20 23 16 31 29 33 26 7 17 34 41 42 39 34 32 31 32
52 50 52 59 62 61 58 53 53 51 52 51 48 50 49 46 37 38 47 51 46 44 40 38 37 37 35 34 31 28 26 26 32 34 40 40 27 17 17 9 11 17 29 30 27 20 24 26 22
56 53 53 59 63 64 59 57 58 52 50 49 46 49 50 47 38 37 41 47 45 38 39 37 36 37 34 27 30 30 25 42 33 41 44 41 35 30 19 13 11 17 21 23 19 19 16 17 20
57 51 52 61 63 64 64 61 58 58 52 55 52 53 42 43 43 38 38 46 46 40 39 37 33 37 35 31 32 30 44 47 38 41 43 32 30 28 22 19 14 17 16 19 13 13 13 18 23
56 53 56 63 63 65 63 62 64 57 55 50 52 55 44 36 42 45 40 44 47 43 38 35 34 35 32 29 28 31 57 52 45 40 40 34 29 27 21 17 19 17 18 11 15 13 13 18 23
57 57 63 65 65 63 64 66 65 62 62 55 54 53 49 38 40 44 44 45 44 46 39 34 33 36 30 23 25 27 58 59 45 42 42 35 27 25 22 21 16 14 8 7 14 13 11 17 22
58 63 66 63 61 61 63 68 68 66 65 63 63 58 53 46 46 44 44 50 46 45 39 31 34 34 29 24 22 25 61 61 56 39 40 36 30 27 23 22 15 14 7 9 13 13 15 22 28
64 68 62 59 60 63 68 65 68 67 73 69 73 64 65 62 49 47 44 46 47 44 42 32 33 32 29 30 20 25 62 67 55 38 39 39 34 33 24 17 15 12 5 6 12 14 13 14 26
71 60 59 60 64 66 68 67 66 71 75 75 77 71 71 68 60 39 51 49 43 44 39 35 33 31 28 29 21 18 55 69 60 36 36 37 37 32 29 24 15 8 5 4 8 13 19 16 26
67 63 65 69 69 67 69 66 70 73 77 77 75 72 76 77 66 42 48 51 45 42 37 35 31 31 26 25 24 19 33 61 70 59 41 30 29 33 31 26 21 14 9 6 8 12 20 14 25
73 75 67 69 68 69 76 59 73 79 78 75 74 73 77 78 57 44 45 53 47 39 40 37 32 29 26 21 18 22 28 59 72 69 48 40 32 32 36 29 31 20 17 15 10 11 19 17 26
73 70 71 71 75 77 79 67 76 78 79 77 76 75 71 64 53 40 41 46 46 36 40 37 33 27 24 20 19 21 26 30 62 67 62 62 47 49 49 48 36 26 22 19 15 14 14 15 19
85 78 73 73 80 82 74 73 76 79 79 78 75 78 76 63 49 37 35 45 46 37 39 39 32 26 22 22 18 17 25 24 43 54 63 45 46 50 54 53 46 34 27 20 20 18 19 20 22
80 80 76 78 81 79 77 75 76 81 79 78 78 79 75 56 42 37 37 47 44 38 40 36 29 24 21 21 18 17 28 28 29 31 35 29 38 45 48 59 44 39 35 28 21 23 21 24 26
76 79 82 81 82 86 81 79 79 80 80 81 82 75 64 52 41 38 40 47 44 39 37 32 25 21 20 19 20 15 32 33 36 33 33 29 35 40 46 47 47 46 40 32 28 28 28 29 28
82 84 85 83 87 86 82 77 78 76 79 87 83 67 59 50 40 39 46 46 42 40 34 29 22 19 19 21 19 16 30 40 38 40 38 43 44 44 45 51 51 45 39 38 32 31 34 29 29
84 84 87 87 87 86 88 81 71 78 86 82 74 64 54 48 40 43 49 45 44 39 34 28 23 20 22 24 22 17 24 45 45 45 48 49 53 56 53 52 51 47 39 39 36 35 32 32 39
79 87 85 86 88 88 78 84 75 83 85 83 74 62 51 44 37 45 49 48 41 37 35 27 23 19 20 23 23 19 18 44 54 52 53 54 52 59 57 55 57 46 42 43 41 41 46 44 46
90 91 90 91 87 88 79 91 82 86 88 81 74 53 44 40 39 50 47 45 40 37 34 27 22 19 20 23 24 21 20 29 55 59 60 59 58 57 56 57 55 54 50 48 50 49 48 48 52
91 88 89 91 93 92 86 94 88 82 84 68 62 46 42 42 46 48 44 48 44 39 34 30 24 17 19 21 22 21 21 20 48 62 61 64 64 62 56 54 55 54 50 50 50 51 53 55 56
95 93 96 97 95 94 92 87 83 83 69 56 51 42 43 47 49 51 51 51 48 38 34 32 26 19 17 19 22 18 20 20 22 58 60 63 62 64 63 62 58 52 52 54 54 57 55 56 51
92 94 93 96 97 96 89 86 82 79 68 56 49 37 45 51 51 51 56 54 49 41 37 36 28 20 17 19 20 18 19 17 15 36 53 51 59 65 66 66 61 60 60 57 58 59 56 53 50
93 96 100 102 101 97 89 86 85 78 56 41 41 37 48 52 57 56 59 55 49 43 39 37 30 21 21 18 22 18 15 14 11 16 44 45 42 46 49 54 55 54 52 51 53 54 54 55 54
103 101 99 99 102 96 86 79 80 61 50 42 41 40 50 60 61 57 53 51 48 43 42 38 29 25 21 21 21 22 16 12 10 11 29 45 43 41 41 44 46 48 46 49 53 51 52 56 55
101 101 97 95 98 93 71 62 62 48 47 40 34 44 57 64 64 56 51 54 52 46 45 42 34 28 24 21 22 22 24 13 13 11 17 34 44 42 42 39 44 46 48 49 50 56 56 53 52

GFSSGP_250_spd_114.txt.gz
Wind_Speed
46 46 44 43 44 44 44 44 43 42 43 47 48 51 53 54 54 53 53 50 46 45 46 43 45 44 46 49 54 58 64 67 69 71 76 82 87 91 93 93 93 93 94 95 95 94 94 94 94
46 47 47 47 47 47 46 45 45 45 47 50 53 55 54 53 55 55 56 53 51 50 48 45 44 43 45 47 49 52 55 58 60 64 70 72 75 77 83 87 87 87 88 87 89 91 93 95 95
47 48 47 46 47 49 47 45 47 48 50 51 51 49 47 50 52 50 54 54 51 52 48 46 42 40 41 42 45 47 49 51 52 56 60 64 65 67 64 66 69 74 79 79 81 83 83 85 86
50 50 49 49 48 50 46 47 49 47 47 44 48 43 43 43 46 49 50 51 49 48 48 46 43 41 42 45 47 46 45 47 49 49 42 51 51 53 58 56 62 64 64 67 70 71 70 72 73
50 50 50 53 48 46 43 43 43 46 45 46 47 46 44 41 39 42 46 49 49 46 43 45 45 42 42 39 42 43 43 42 40 35 28 25 17 34 38 51 54 59 62 54 57 59 61 63 63
52 51 50 52 49 48 48 42 46 44 41 47 46 44 48 44 41 40 41 44 47 47 39 43 46 45 40 37 38 39 39 34 28 28 29 34 21 31 29 32 43 45 44 41 47 52 53 51 51
56 52 48 53 58 54 50 47 48 48 45 48 48 43 48 41 41 37 39 39 42 45 40 40 45 46 40 36 36 34 34 28 32 30 34 38 30 34 37 37 29 24 29 33 41 40 46 44 39
57 53 49 56 63 56 50 51 52 52 49 52 49 47 48 36 40 36 34 37 37 42 44 38 42 42 41 38 38 32 31 31 29 30 38 41 37 36 37 36 23 13 14 16 23 25 28 25 27
56 52 50 58 64 58 52 53 55 58 55 54 55 48 48 40 43 37 35 40 48 45 42 43 41 42 41 38 37 30 26 29 34 32 40 39 41 42 37 38 22 18 16 16 16 14 17 18 21
58 53 54 61 61 59 58 56 57 56 52 56 58 58 52 49 52 47 45 47 51 45 45 41 41 41 40 35 34 30 26 29 27 32 36 43 41 39 31 28 24 23 20 19 19 17 12 18 16
59 57 60 59 64 61 59 60 59 53 54 61 60 58 58 55 56 48 47 50 59 49 47 42 40 41 38 32 29 29 27 29 22 28 38 40 38 37 28 27 29 25 19 20 20 13 11 9 13
57 58 61 64 68 64 61 67 61 57 54 61 63 64 61 59 56 52 51 55 59 47 47 46 44 40 35 31 28 26 25 25 25 27 36 42 39 30 31 29 22 23 22 16 12 6 7 4 9
59 60 63 64 68 65 66 66 65 58 61 62 62 66 64 63 61 54 53 57 61 49 45 46 48 41 35 31 27 26 23 25 22 25 33 47 42 25 27 25 24 22 18 15 11 6 5 6 6
61 60 64 67 68 70 70 63 61 62 70 64 65 66 68 62 63 57 57 61 69 54 48 46 48 42 34 30 28 26 24 25 20 20 42 41 42 35 28 29 26 22 18 15 13 6 3 10 8
60 64 65 65 67 68 71 60 67 66 66 70 68 70 69 65 65 63 60 62 71 51 47 46 45 42 31 28 27 23 23 21 20 22 38 37 42 43 36 31 25 22 17 16 11 6 2 7 12
71 66 62 58 64 68 70 56 69 65 67 66 69 70 67 67 69 64 65 66 63 49 42 45 43 42 33 27 25 22 21 23 23 32 47 41 34 40 40 34 33 24 19 19 12 9 3 1 4
74 64 66 68 70 73 70 63 66 69 68 67 70 67 66 69 73 66 66 68 57 46 40 44 41 42 33 27 24 23 22 20 28 39 45 47 41 39 35 36 34 31 25 20 15 14 12 8 1
79 80 73 72 76 76 73 71 74 73 72 70 70 69 69 71 70 69 67 64 56 42 39 41 41 41 34 26 25 21 17 18 30 34 46 54 45 36 35 27 36 35 28 22 19 18 14 13 8
78 83 78 76 79 80 79 73 76 70 71 74 72 74 73 70 68 67 64 61 53 40 37 38 41 38 34 26 24 19 13 17 27 25 37 56 66 52 46 40 34 45 42 31 22 19 17 17 14
83 78 81 82 86 83 82 75 69 70 72 72 75 76 73 72 67 69 68 60 49 36 36 39 40 39 32 26 21 18 13 16 25 25 27 35 67 56 57 54 50 48 45 44 43 29 23 20 20
84 79 80 82 86 86 78 62 68 72 75 73 76 76 75 72 66 73 65 52 45 36 35 43 41 38 30 25 22 17 16 17 27 28 27 27 48 50 45 52 50 52 47 45 41 34 30 25 24
79 77 86 83 84 83 82 68 68 73 72 73 77 78 73 67 70 70 56 45 41 33 34 44 40 38 28 25 23 19 16 15 33 31 33 32 37 39 44 51 53 50 42 43 42 39 35 34 28
80 83 83 81 81 78 75 80 63 70 71 72 79 81 74 71 71 62 54 45 36 34 41 44 39 38 28 25 21 18 16 17 34 35 37 39 38 47 53 46 41 42 40 42 45 44 36 36 29
83 82 85 85 82 80 73 82 66 71 75 75 80 79 76 75 65 48 48 45 35 35 46 46 41 37 29 24 22 19 19 16 24 43 43 41 45 48 52 50 50 45 46 42 44 43 41 43 40
84 83 86 84 79 74 74 84 77 75 74 76 76 77 74 66 50 47 44 43 35 39 48 48 42 38 29 23 24 19 21 15 20 42 49 51 49 52 57 55 54 52 51 52 50 48 46 45 45
83 83 84 84 83 83 79 78 75 69 73 73 74 74 70 64 52 46 43 40 34 39 49 46 42 40 28 23 24 20 21 14 21 21 54 56 58 54 59 60 56 54 52 51 53 55 51 51 51
84 86 88 85 81 80 74 73 75 77 78 77 72 70 68 67 50 42 44 41 37 46 49 47 44 40 28 23 21 21 18 15 16 20 28 63 62 61 58 55 58 57 56 55 54 52 52 50 52
88 90 90 89 90 86 80 78 80 81 79 77 72 70 70 61 45 42 45 39 41 50 47 44 45 38 30 26 20 21 21 15 15 18 20 43 69 66 63 61 58 54 54 55 55 54 53 55 58
94 95 96 95 95 92 83 81 77 74 74 73 72 65 62 48 45 44 45 41 46 51 47 46 47 37 33 26 25 24 21 18 14 14 16 28 53 69 69 60 60 60 59 59 61 61 59 58 57
89 91 92 91 90 85 79 74 77 77 77 73 59 57 49 47 46 47 45 44 52 51 50 51 44 38 35 29 27 26 21 20 17 11 13 14 38 54 52 50 49 50 53 53 56 58 54 52 54

GFSSGP_250_spd_120.txt.gz
Wind_Speed
46 46 46 44 42 39 36 35 35 33 34 35 35 36 38 39 42 42 44 46 46 47 44 44 46 49 51 52 54 57 56 58 60 62 62 66 70 75 77 76 74 77 79 85 88 89 90 90 90
46 44 41 41 38 37 37 38 34 34 33 33 36 34 37 36 39 41 42 42 44 45 43 41 41 42 46 49 49 52 52 53 56 58 60 60 59 59 60 63 64 63 64 70 72 80 87 91 89
46 41 40 40 36 37 40 41 40 38 35 34 33 37 37 36 40 40 39 41 44 42 41 39 39 40 42 45 45 46 44 45 47 51 54 53 51 47 40 42 44 46 50 53 58 65 67 76 86
43 42 41 42 43 42 41 42 43 40 37 36 37 40 38 38 41 40 36 35 39 39 37 36 36 35 38 39 43 43 41 40 40 42 42 41 37 33 19 19 14 21 29 38 44 46 60 67 68
45 44 42 45 47 45 44 47 45 43 40 39 40 42 41 38 42 47 38 35 34 38 36 35 33 35 37 38 38 41 41 37 36 34 33 30 32 32 28 38 25 31 25 39 44 46 49 57 59
45 46 45 49 53 49 49 48 48 45 42 43 42 45 41 38 40 46 44 42 41 45 34 33 36 33 36 37 40 39 39 37 35 33 29 27 30 34 49 44 42 38 36 52 49 49 49 51 50
51 50 46 50 55 56 54 50 47 48 44 45 46 44 44 41 39 43 46 48 49 47 44 42 38 35 35 38 40 42 40 38 34 31 31 31 26 33 47 47 47 45 51 56 52 54 51 46 46
58 56 51 52 56 58 58 52 50 46 45 47 48 45 44 43 38 42 45 49 50 48 47 45 41 38 35 34 38 40 44 38 36 32 30 32 28 36 51 49 52 54 56 58 52 47 48 43 41
65 61 56 57 59 62 60 57 55 51 48 48 49 49 46 45 40 42 46 51 52 48 47 46 43 42 40 37 38 42 41 39 36 32 30 31 30 34 47 54 56 56 59 60 54 49 48 46 40
68 64 61 60 64 68 66 61 58 57 53 48 49 49 46 45 42 43 52 51 51 50 49 47 47 44 41 41 37 43 39 37 34 34 30 31 29 33 42 48 59 55 57 56 53 44 40 32 32
65 62 65 62 66 67 64 62 60 56 53 51 50 50 46 42 44 46 51 49 52 52 51 53 51 48 41 42 39 42 38 34 31 34 30 28 29 28 32 44 50 57 54 53 50 36 25 22 22
60 61 63 63 65 67 63 62 62 59 58 57 51 54 48 43 48 49 53 55 55 56 56 53 49 46 39 43 40 42 36 34 30 31 27 26 26 28 34 34 50 49 45 35 32 28 20 15 16
58 62 63 65 64 64 67 67 63 63 62 61 59 54 51 48 47 48 52 55 59 57 56 54 53 54 42 44 42 39 33 33 31 32 26 28 25 31 34 28 31 48 40 31 29 23 18 16 17
67 60 62 66 64 67 71 69 70 69 70 70 65 57 52 50 49 55 56 58 59 59 58 57 58 58 48 45 45 42 30 32 32 31 29 29 29 30 33 27 29 35 39 38 31 23 19 15 15
74 72 69 69 68 67 70 65 66 68 67 66 64 61 59 53 55 55 54 58 59 59 61 61 61 58 45 49 46 42 30 30 34 33 29 29 31 32 33 30 36 37 39 39 34 28 22 18 16
76 77 78 75 70 74 75 72 72 70 68 69 69 67 68 66 64 62 60 59 59 59 63 63 64 61 47 51 44 41 30 29 34 33 29 28 33 36 34 36 40 43 38 38 32 30 24 20 16
77 73 74 77 77 78 72 67 65 65 63 60 65 65 61 64 64 64 61 60 57 60 64 67 62 59 50 52 47 39 30 30 34 34 27 28 34 34 33 42 44 41 38 35 34 31 25 20 20
86 81 83 75 80 79 74 71 71 65 61 60 59 61 64 62 59 52 59 62 62 66 67 67 60 61 53 52 46 35 29 32 34 30 26 29 33 30 37 44 44 39 37 34 34 33 25 23 20
87 88 84 85 82 80 79 75 72 67 66 65 62 61 61 60 58 59 61 64 67 67 66 66 61 57 51 51 44 31 28 34 34 30 28 29 36 31 44 49 45 39 35 35 40 35 26 27 24
86 86 86 89 86 84 82 78 77 73 70 68 67 66 64 63 66 60 64 68 70 69 67 67 59 56 53 49 40 30 29 35 34 31 28 28 30 31 47 52 47 40 38 39 39 32 29 27 27
92 87 89 92 92 85 81 77 78 75 74 76 74 72 67 64 61 59 65 67 68 67 65 65 64 55 52 48 39 32 33 37 35 29 30 28 28 34 48 55 49 46 40 42 39 35 32 32 28
89 89 93 94 93 85 82 77 81 76 80 81 78 75 70 67 64 62 66 70 69 66 59 60 59 54 56 47 38 33 36 39 35 29 31 25 31 35 45 52 57 48 46 44 42 43 38 37 34
84 90 90 92 89 89 79 77 84 77 81 82 81 74 70 68 67 62 67 66 57 60 58 56 57 53 53 46 36 34 37 39 34 29 29 23 33 34 39 56 56 56 57 48 43 45 45 41 38
90 91 91 91 89 87 85 84 83 81 85 83 81 76 72 73 68 63 64 59 62 61 55 54 54 50 51 42 35 37 38 38 32 32 30 24 34 32 34 56 58 53 52 45 42 42 47 46 44
89 93 94 93 92 84 90 88 83 83 79 78 77 77 76 70 64 61 59 62 58 54 54 53 53 47 50 39 35 39 41 37 33 31 29 27 33 35 35 49 53 54 55 51 52 52 52 49 50
87 88 90 91 94 93 94 92 90 83 83 82 79 78 75 68 64 63 60 55 56 54 55 54 51 48 48 38 37 42 44 38 36 32 30 33 29 39 36 37 56 57 56 57 56 52 53 50 48
77 80 79 87 84 81 83 84 82 83 83 80 76 71 65 62 61 58 59 61 63 58 56 57 48 47 43 40 39 44 43 39 36 32 29 29 25 43 38 39 48 56 62 58 62 58 55 58 49
75 75 78 78 80 77 72 77 83 81 80 78 75 68 63 63 62 60 60 59 58 56 53 54 50 49 43 41 43 47 44 40 37 31 29 21 29 40 45 42 45 57 67 66 70 62 59 60 53
74 76 78 79 80 80 79 82 85 78 77 75 72 71 69 64 61 63 64 63 63 56 59 57 53 49 42 45 49 49 41 42 39 33 28 25 20 33 45 48 46 55 61 67 68 69 69 67 65
77 77 79 82 80 79 80 84 81 78 79 79 74 71 70 70 67 66 66 64 61 57 60 58 53 52 42 49 55 53 44 45 40 34 29 20 20 25 32 54 54 52 57 68 66 64 62 63 58

GFSSGP_250_spd_123.txt.gz
Wind_Speed
65 61 58 54 51 50 50 50 49 46 43 37 35 35 34 37 37 38 39 42 44 47 49 49 49 48 47 46 50 54 59 62 63 62 63 62 62 61 62 67 71 71 73 75 81 80 81 85 84
63 57 53 50 49 47 48 45 45 43 43 40 37 37 34 37 39 39 38 42 43 43 45 47 46 42 42 44 44 48 51 56 59 63 63 62 59 59 59 60 57 55 54 60 66 71 74 82 83
57 51 48 48 49 49 49 45 42 41 40 41 40 39 38 37 41 40 39 40 40 41 39 41 40 39 36 38 41 44 48 48 53 57 60 60 59 50 51 46 30 25 25 32 40 49 60 64 73
50 50 48 48 49 52 49 44 41 44 43 44 42 41 41 38 41 43 41 41 40 40 39 41 39 36 37 38 37 39 43 45 49 49 51 55 48 43 37 29 32 28 24 27 36 36 38 46 53
49 49 49 51 51 49 46 48 46 46 43 45 46 46 44 41 41 46 42 43 44 41 38 40 41 42 45 42 40 39 40 41 44 45 44 48 48 38 31 34 34 37 28 44 32 39 45 45 47
52 52 50 50 52 49 44 49 50 52 47 45 46 50 49 43 41 46 43 41 43 44 39 40 41 43 48 42 43 42 41 42 42 43 42 42 43 36 34 40 48 50 47 52 46 35 47 48 48
54 55 52 53 52 54 50 47 52 54 48 48 47 51 53 46 44 44 45 41 43 44 46 46 43 40 44 48 47 48 45 42 44 42 39 41 40 38 39 48 54 59 60 58 58 35 51 53 47
56 57 54 55 58 60 63 52 54 54 53 46 51 52 55 50 52 45 44 44 38 45 47 48 47 44 47 49 49 47 46 49 46 44 37 39 41 42 37 51 58 61 61 59 62 49 57 53 46
58 57 55 61 64 65 73 57 57 55 56 50 52 56 57 52 53 49 45 41 40 43 48 50 50 50 49 50 49 51 49 51 50 44 38 37 39 41 37 38 54 62 65 62 57 59 59 59 57
64 63 63 65 67 69 76 65 65 58 57 55 56 56 55 54 53 52 44 42 40 43 47 53 54 51 50 55 51 54 51 50 48 47 36 34 35 36 36 33 48 58 67 59 60 60 63 60 59
68 67 71 70 71 69 73 67 69 60 62 60 57 56 54 52 53 52 49 46 41 43 47 55 53 53 58 57 52 54 51 52 46 48 33 31 32 32 33 31 36 54 62 62 57 60 61 61 48
65 61 65 71 71 65 70 70 65 66 61 62 56 55 56 53 58 51 53 51 48 50 46 53 56 56 58 57 56 55 53 52 48 46 30 32 33 31 32 32 34 39 51 53 61 57 55 50 40
69 73 69 66 68 68 69 65 66 66 67 63 59 60 56 55 56 59 58 53 52 46 44 54 56 53 60 58 58 57 54 54 50 45 30 33 32 33 32 30 34 34 38 42 50 46 42 37 26
78 77 76 73 69 67 66 67 68 63 66 65 66 67 66 64 61 62 56 56 54 49 47 53 57 61 62 61 58 61 54 53 51 46 32 35 33 34 31 31 32 29 27 37 43 35 31 27 24
78 83 81 77 78 77 76 68 66 64 70 68 70 76 70 64 64 59 60 58 51 52 57 58 59 65 61 59 60 64 60 59 52 43 33 37 34 33 34 31 34 33 30 33 38 45 33 30 25
86 82 83 80 84 81 85 74 78 78 77 73 73 66 65 58 58 59 58 61 65 62 59 60 65 65 62 61 64 65 62 60 52 40 33 38 34 32 35 33 36 30 32 33 37 40 37 32 25
89 85 83 85 87 88 82 77 83 85 77 74 75 72 70 68 68 65 63 57 59 56 53 54 59 57 64 64 62 65 65 57 50 37 34 38 36 32 35 36 36 33 37 37 41 40 39 33 25
89 91 85 83 87 91 86 81 81 84 79 78 79 76 69 63 60 59 57 53 54 52 47 53 59 65 67 66 66 64 64 56 47 35 36 37 34 32 35 36 38 36 38 40 40 36 38 34 28
90 92 88 83 87 94 87 83 83 82 78 75 80 78 73 68 65 60 56 53 51 51 54 56 61 64 68 67 64 64 62 54 43 34 37 37 35 35 34 35 40 39 40 43 40 40 37 36 30
88 88 86 90 92 95 90 88 85 84 78 73 78 78 78 73 67 65 59 56 53 53 53 57 61 61 66 63 65 63 61 52 41 34 39 37 32 35 31 36 38 42 43 44 43 40 39 35 32
89 87 88 92 96 95 88 85 84 82 83 82 79 76 79 75 74 69 65 62 60 58 58 51 60 62 65 62 60 59 56 53 39 36 40 39 33 33 34 37 39 43 44 47 40 42 41 36 35
87 89 91 95 94 90 94 85 85 85 85 82 85 84 79 78 74 72 70 66 65 61 59 55 59 65 64 56 55 57 56 49 36 36 42 38 34 30 35 34 40 44 48 47 39 44 41 41 39
78 90 93 96 95 91 89 90 85 90 82 83 84 83 80 76 76 73 72 70 66 66 64 57 59 63 64 55 58 56 53 44 35 36 42 37 36 30 30 33 38 43 50 47 41 43 44 42 40
78 83 85 95 102 103 88 93 89 92 89 92 85 82 80 79 77 74 71 72 67 63 68 57 61 63 60 59 58 54 52 38 33 36 41 38 37 29 30 33 39 39 49 49 45 42 47 41 39
76 80 82 84 93 99 99 100 90 90 94 91 82 79 78 76 73 74 73 74 71 70 69 61 61 61 56 57 54 53 48 33 33 38 40 40 35 30 32 34 40 46 50 54 49 45 48 42 42
73 75 77 79 81 85 96 100 88 91 89 82 76 81 82 78 75 74 74 76 76 75 68 63 62 57 55 54 52 51 46 33 37 41 41 41 38 33 32 38 41 46 52 56 55 50 47 45 48
73 70 70 77 80 80 80 85 92 88 82 82 82 87 84 84 80 74 73 73 71 68 65 64 63 55 53 53 57 53 40 31 39 41 42 40 34 32 30 42 37 36 44 53 56 55 52 49 46
72 71 74 75 73 70 74 80 83 86 85 84 82 86 83 80 80 77 74 76 73 69 65 60 59 59 57 56 53 53 37 32 41 42 44 42 35 36 34 42 38 37 37 42 50 50 53 53 52
71 74 74 75 71 67 68 73 76 81 83 86 86 86 81 78 77 77 77 76 72 63 59 59 58 57 54 48 52 46 39 36 44 44 45 44 38 35 36 35 45 42 38 44 50 51 58 55 55
69 71 75 74 72 67 67 70 73 79 78 80 81 86 80 78 76 77 78 73 68 62 62 61 60 57 48 57 53 48 39 42 47 47 47 44 37 34 30 36 45 45 44 40 48 53 52 59 61